[[{"header":{"parameterUnit":"m.s-1","parameterCategory":1,"la1":30.6,"la2":28.766,"lo1":-90.7593,"lo2":-88.6598,"dx":0.0162,"dy":0.0183,"nx":116,"ny":114,"refTime":"2022-11-11T06:00:00:Z","depth":0,"parameterNumber":2,"parameterNumberName":"U-component_of_WINDS"},"data":[0.0,0.0,0.0,0.0,0.0,0.0,0.0,0.0,0.0,0.0,0.0,0.0,0.0,0.0,0.0,0.0,0.0,0.0,0.0,0.0,0.0,0.0,0.0,0.0,0.0,0.0,0.0,0.0,0.0,0.0,0.0,0.0,0.0,0.0,0.0,0.0,0.0,0.0,0.0,0.0,0.0,0.0,0.0,0.0,0.0,0.0,0.0,0.0,0.0,0.0,0.0,0.0,0.0,0.0,0.0,0.0,0.0,0.0,0.0,0.0,0.0,0.0,0.0,0.0,0.0,0.0,0.0,0.0,0.0,0.0,0.0,0.0,0.0,0.0,0.0,0.0,0.0,0.0,0.0,0.0,0.0,0.0,0.0,0.0,0.0,0.0,0.0,0.0,0.0,0.0,0.0,0.0,0.0,0.0,0.0,0.0,0.0,0.0,0.0,0.0,0.0,0.0,0.0,0.0,0.0,0.0,0.0,0.0,0.0,0.0,0.0,0.0,0.0,0.0,0.0,0.0,0.0,0.0,0.0,0.0,0.0,0.0,0.0,0.0,0.0,0.0,0.0,0.0,0.0,0.0,0.0,0.0,0.0,0.0,0.0,0.0,0.0,0.0,0.0,0.0,0.0,0.0,0.0,0.0,0.0,0.0,0.0,0.0,0.0,0.0,0.0,0.0,0.0,0.0,0.0,0.0,0.0,0.0,0.0,0.0,0.0,0.0,0.0,0.0,0.0,0.0,0.0,0.0,0.0,0.0,0.0,0.0,0.0,0.0,0.0,0.0,0.0,0.0,0.0,0.0,0.0,0.0,0.0,0.0,0.0,0.0,0.0,0.0,0.0,0.0,0.0,0.0,0.0,0.0,0.0,0.0,0.0,0.0,0.0,0.0,0.0,0.0,0.0,0.0,0.0,0.0,0.0,0.0,0.0,0.0,0.0,0.0,0.0,0.0,0.0,0.0,0.0,0.0,0.0,0.0,0.0,0.0,0.0,0.0,0.0,0.0,0.0,0.0,0.0,0.0,0.0,0.0,0.0,0.0,0.0,0.0,0.0,0.0,0.0,0.0,0.0,0.0,0.0,0.0,0.0,0.0,0.0,0.0,0.0,0.0,0.0,0.0,0.0,0.0,0.0,0.0,0.0,0.0,0.0,0.0,0.0,0.0,0.0,0.0,0.0,0.0,0.0,0.0,0.0,0.0,0.0,0.0,0.0,0.0,0.0,0.0,0.0,0.0,0.0,0.0,0.0,0.0,0.0,0.0,0.0,0.0,0.0,0.0,0.0,0.0,0.0,0.0,0.0,0.0,0.0,0.0,0.0,0.0,0.0,0.0,0.0,0.0,0.0,0.0,0.0,0.0,0.0,0.0,0.0,0.0,0.0,0.0,0.0,0.0,0.0,0.0,0.0,0.0,0.0,0.0,0.0,0.0,0.0,0.0,0.0,0.0,0.0,0.0,0.0,0.0,0.0,0.0,0.0,0.0,0.0,0.0,0.0,0.0,0.0,0.0,0.0,0.0,0.0,0.0,0.0,0.0,0.0,0.0,0.0,0.0,0.0,0.0,0.0,0.0,0.0,0.0,0.0,0.0,0.0,0.0,0.0,0.0,0.0,0.0,0.0,0.0,0.0,0.0,0.0,0.0,0.0,0.0,0.0,0.0,0.0,0.0,0.0,0.0,0.0,0.0,0.0,0.0,0.0,0.0,0.0,0.0,0.0,0.0,0.0,0.0,0.0,0.0,0.0,0.0,0.0,0.0,0.0,0.0,0.0,0.0,0.0,0.0,0.0,0.0,0.0,0.0,0.0,0.0,0.0,0.0,0.0,0.0,0.0,0.0,0.0,0.0,0.0,0.0,0.0,0.0,0.0,0.0,0.0,0.0,0.0,0.0,0.0,0.0,0.0,0.0,0.0,0.0,0.0,0.0,0.0,0.0,0.0,0.0,0.0,0.0,0.0,0.0,0.0,0.0,0.0,0.0,0.0,0.0,0.0,0.0,0.0,0.0,0.0,0.0,0.0,0.0,0.0,0.0,0.0,0.0,0.0,0.0,0.0,0.0,0.0,0.0,0.0,0.0,0.0,0.0,0.0,0.0,0.0,0.0,0.0,0.0,0.0,0.0,0.0,0.0,0.0,0.0,0.0,0.0,0.0,0.0,0.0,0.0,0.0,0.0,0.0,0.0,0.0,0.0,0.0,0.0,0.0,0.0,0.0,0.0,0.0,0.0,0.0,0.0,0.0,0.0,0.0,0.0,0.0,0.0,0.0,0.0,0.0,0.0,0.0,0.0,0.0,0.0,0.0,0.0,0.0,0.0,0.0,0.0,0.0,0.0,0.0,0.0,0.0,0.0,0.0,0.0,0.0,0.0,0.0,0.0,0.0,0.0,0.0,0.0,0.0,0.0,0.0,0.0,0.0,0.0,0.0,0.0,0.0,0.0,0.0,0.0,0.0,0.0,0.0,0.0,0.0,0.0,0.0,0.0,0.0,0.0,0.0,0.0,0.0,0.0,0.0,0.0,0.0,0.0,0.0,0.0,0.0,0.0,0.0,0.0,0.0,0.0,0.0,0.0,0.0,0.0,0.0,0.0,0.0,0.0,0.0,0.0,0.0,0.0,0.0,0.0,0.0,0.0,0.0,0.0,0.0,0.0,0.0,0.0,0.0,0.0,0.0,0.0,0.0,0.0,0.0,0.0,0.0,0.0,0.0,0.0,0.0,0.0,0.0,0.0,0.0,0.0,0.0,0.0,0.0,0.0,0.0,0.0,0.0,0.0,0.0,0.0,0.0,0.0,0.0,0.0,0.0,0.0,0.0,0.0,0.0,0.0,0.0,0.0,0.0,0.0,0.0,0.0,0.0,0.0,0.0,0.0,0.0,0.0,0.0,0.0,0.0,0.0,0.0,0.0,0.0,0.0,0.0,0.0,0.0,0.0,0.0,0.0,0.0,0.0,0.0,0.0,0.0,0.0,0.0,0.0,0.0,0.0,0.0,0.0,0.0,0.0,0.0,0.0,0.0,0.0,0.0,0.0,0.0,0.0,0.0,0.0,0.0,0.0,0.0,0.0,0.0,0.0,0.0,0.0,0.0,0.0,0.0,0.0,0.0,0.0,0.0,0.0,0.0,0.0,0.0,0.0,0.0,0.0,0.0,0.0,0.0,0.0,0.0,0.0,0.0,0.0,0.0,0.0,0.0,0.0,0.0,0.0,0.0,0.0,0.0,0.0,0.0,0.0,0.0,0.0,0.0,0.0,0.0,0.0,0.0,0.0,0.0,0.0,0.0,0.0,0.0,0.0,0.0,0.0,0.0,0.0,0.0,0.0,0.0,0.0,0.0,0.0,0.0,0.0,0.0,0.0,0.0,0.0,0.0,0.0,0.0,0.0,0.0,0.0,0.0,0.0,0.0,0.0,0.0,0.0,0.0,0.0,0.0,0.0,0.0,0.0,0.0,0.0,0.0,0.0,0.0,0.0,0.0,0.0,0.0,0.0,0.0,0.0,0.0,0.0,0.0,0.0,0.0,0.0,0.0,0.0,0.0,0.0,0.0,0.0,0.0,0.0,0.0,0.0,0.0,0.0,0.0,0.0,0.0,0.0,0.0,0.0,0.0,0.0,0.0,0.0,0.0,0.0,0.0,0.0,0.0,0.0,0.0,0.0,0.0,0.0,0.0,0.0,0.0,0.0,0.0,0.0,0.0,0.0,0.0,0.0,0.0,0.0,0.0,0.0,0.0,0.0,0.0,0.0,0.0,0.0,0.0,0.0,0.0,0.0,0.0,0.0,0.0,0.0,0.0,0.0,0.0,0.0,0.0,0.0,0.0,0.0,0.0,0.0,0.0,0.0,0.0,0.0,0.0,0.0,0.0,0.0,0.0,0.0,0.0,0.0,0.0,0.0,0.0,0.0,0.0,0.0,0.0,0.0,0.0,0.0,0.0,0.0,0.0,0.0,0.0,0.0,0.0,0.0,0.0,0.0,0.0,0.0,0.0,0.0,0.0,0.0,0.0,0.0,0.0,0.0,0.0,0.0,0.0,0.0,0.0,0.0,0.0,0.0,0.0,0.0,0.0,0.0,0.0,0.0,0.0,0.0,0.0,0.0,0.0,0.0,0.0,0.0,0.0,0.0,0.0,0.0,0.0,0.0,0.0,0.0,0.0,0.0,0.0,0.0,0.0,0.0,0.0,0.0,0.0,0.0,0.0,0.0,0.0,0.0,0.0,0.0,0.0,0.0,0.0,0.0,0.0,0.0,0.0,0.0,0.0,0.0,0.0,0.0,0.0,0.0,0.0,0.0,0.0,0.0,0.0,0.0,0.0,0.0,0.0,0.0,0.0,0.0,0.0,0.0,0.0,0.0,0.0,0.0,0.0,0.0,0.0,0.0,0.0,0.0,0.0,0.0,0.0,0.0,0.0,0.0,0.0,0.0,0.0,0.0,0.0,0.0,0.0,0.0,0.0,0.0,0.0,0.0,0.0,0.0,0.0,0.0,0.0,0.0,0.0,0.0,0.0,0.0,0.0,0.0,0.0,0.0,0.0,0.0,0.0,0.0,0.0,0.0,0.0,0.0,0.0,0.0,0.0,0.0,0.0,0.0,0.0,0.0,0.0,0.0,0.0,0.0,0.0,0.0,0.0,0.0,0.0,0.0,0.0,0.0,0.0,0.0,0.0,0.0,0.0,0.0,0.0,0.0,0.0,0.0,0.0,0.0,0.0,0.0,0.0,0.0,0.0,0.0,0.0,0.0,0.0,0.0,0.0,0.0,0.0,0.0,0.0,0.0,0.0,0.0,0.0,0.0,0.0,0.0,0.0,0.0,0.0,0.0,0.0,0.0,0.0,0.0,0.0,0.0,0.0,0.0,0.0,0.0,0.0,0.0,0.0,0.0,0.0,0.0,0.0,0.0,0.0,0.0,0.0,0.0,0.0,0.0,0.0,0.0,0.0,0.0,0.0,0.0,0.0,0.0,0.0,0.0,0.0,0.0,0.0,0.0,0.0,0.0,0.0,0.0,0.0,0.0,0.0,0.0,0.0,0.0,0.0,0.0,0.0,0.0,0.0,0.0,0.0,0.0,0.0,0.0,0.0,0.0,0.0,0.0,0.0,0.0,0.0,0.0,0.0,0.0,0.0,0.0,0.0,0.0,0.0,0.0,0.0,0.0,0.0,0.0,0.0,0.0,0.0,0.0,0.0,0.0,0.0,0.0,0.0,0.0,0.0,0.0,0.0,0.0,0.0,0.0,0.0,0.0,0.0,0.0,0.0,0.0,0.0,0.0,0.0,0.0,0.0,0.0,0.0,0.0,0.0,0.0,0.0,0.0,0.0,0.0,0.0,0.0,0.0,0.0,0.0,0.0,0.0,0.0,0.0,0.0,0.0,0.0,0.0,0.0,0.0,0.0,0.0,0.0,0.0,0.0,0.0,0.0,0.0,0.0,0.0,0.0,0.0,0.0,0.0,0.0,0.0,0.0,0.0,0.0,0.0,0.0,0.0,0.0,0.0,0.0,0.0,0.0,0.0,0.0,0.0,0.0,0.0,0.0,0.0,0.0,0.0,0.0,0.0,0.0,0.0,0.0,0.0,0.0,0.0,0.0,0.0,0.0,0.0,0.0,0.0,0.0,0.0,0.0,0.0,0.0,0.0,0.0,0.0,0.0,0.0,0.0,0.0,0.0,0.0,0.0,0.0,0.0,0.0,0.0,0.0,0.0,0.0,0.0,0.0,0.0,0.0,0.0,0.0,0.0,0.0,0.0,0.0,0.0,0.0,0.0,0.0,0.0,0.0,0.0,0.0,0.0,0.0,0.0,0.0,0.0,0.0,0.0,0.0,0.0,0.0,0.0,0.0,0.0,0.0,0.0,0.0,0.0,0.0,0.0,0.0,0.0,0.0,0.0,0.0,0.0,0.0,0.0,0.0,0.0,0.0,0.0,0.0,0.0,0.0,0.0,0.0,0.0,0.0,0.0,0.0,0.0,0.0,0.0,0.0,0.0,0.0,0.0,0.0,0.0,0.0,0.0,0.0,0.0,0.0,0.0,0.0,0.0,0.0,0.0,0.0,0.0,0.0,0.0,0.0,0.0,0.0,0.0,0.0,0.0,0.0,0.0,5.4648,4.8125,0.0,0.0,0.0,0.0,0.0,0.0,0.0,0.0,0.0,0.0,0.0,0.0,0.0,0.0,0.0,0.0,0.0,0.0,0.0,0.0,0.0,0.0,0.0,2.8672,2.8906,2.8906,2.9297,0.0,0.0,0.0,0.0,0.0,0.0,0.0,3.0775,3.1634,3.2494,3.3353,3.5884,3.9117,4.2861,4.0594,3.7943,3.5135,0.0,0.0,0.0,0.0,0.0,0.0,0.0,0.0,0.0,0.0,0.0,0.0,0.0,0.0,0.0,0.0,0.0,0.0,0.0,0.0,0.0,0.0,0.0,0.0,0.0,0.0,0.0,0.0,0.0,0.0,0.0,0.0,0.0,0.0,0.0,0.0,0.0,0.0,0.0,0.0,0.0,0.0,0.0,0.0,0.0,0.0,0.0,0.0,0.0,0.0,0.0,0.0,0.0,0.0,0.0,0.0,0.0,0.0,0.0,0.0,0.0,0.0,0.0,0.0,0.0,0.0,0.0,0.0,0.0,0.0,5.7539,5.4531,0.0,0.0,0.0,0.0,0.0,0.0,0.0,0.0,0.0,0.0,0.0,0.0,0.0,0.0,0.0,0.0,0.0,0.0,0.0,0.0,0.0,2.8828,2.8945,2.9766,3.0273,3.0273,3.0937,3.1328,3.1328,3.1484,0.0,0.0,0.0,0.0,3.2982,3.4585,3.5678,3.6264,4.103,4.5281,4.8942,4.9606,4.7268,4.2396,3.9507,0.0,0.0,0.0,0.0,0.0,0.0,0.0,0.0,0.0,0.0,0.0,0.0,0.0,0.0,0.0,0.0,0.0,0.0,0.0,0.0,0.0,0.0,0.0,0.0,0.0,0.0,0.0,0.0,0.0,0.0,0.0,0.0,0.0,0.0,0.0,0.0,0.0,0.0,0.0,0.0,0.0,0.0,0.0,0.0,0.0,0.0,0.0,0.0,0.0,0.0,0.0,0.0,0.0,0.0,0.0,0.0,0.0,0.0,0.0,0.0,0.0,0.0,0.0,6.1483,6.203,6.2889,6.2733,6.2733,6.2772,6.078,6.1795,6.4374,5.7538,0.0,0.0,0.0,0.0,0.0,0.0,0.0,0.0,0.0,0.0,0.0,0.0,0.0,0.0,0.0,0.0,0.0,0.0,0.0,3.0859,3.1601,3.2422,3.2891,3.2891,3.3008,3.3086,3.3086,3.3789,0.0,0.0,0.0,3.5857,3.6618,3.7594,3.9549,4.2516,4.9072,5.2971,5.4294,5.4372,5.4021,5.3084,4.8958,4.5447,4.2633,0.0,0.0,0.0,0.0,0.0,0.0,0.0,0.0,0.0,0.0,0.0,0.0,0.0,0.0,0.0,0.0,0.0,0.0,0.0,0.0,0.0,0.0,0.0,0.0,0.0,0.0,0.0,0.0,0.0,0.0,0.0,0.0,0.0,0.0,0.0,0.0,0.0,0.0,0.0,0.0,0.0,4.8504,5.1791,0.0,0.0,0.0,0.0,0.0,0.0,0.0,0.0,0.0,0.0,0.0,0.0,0.0,6.0744,6.3243,6.5707,6.8049,7.0319,7.106,7.188,7.27,7.1958,7.1997,7.2544,6.9303,0.0,6.2244,6.2623,0.0,0.0,0.0,0.0,0.0,0.0,0.0,0.0,0.0,0.0,0.0,0.0,0.0,0.0,0.0,0.0,0.0,0.0,0.0,0.0,0.0,3.5664,3.7226,3.7695,3.9531,4.0039,3.8555,3.8828,0.0,0.0,3.8,3.8583,3.9429,4.1735,4.5093,4.9497,5.3006,5.5426,5.6714,5.7695,5.789,5.7343,5.5435,5.2156,4.7971,4.7116,0.0,0.0,0.0,0.0,0.0,0.0,0.0,0.0,0.0,0.0,0.0,0.0,0.0,0.0,0.0,0.0,0.0,0.0,0.0,0.0,0.0,0.0,0.0,0.0,0.0,0.0,0.0,0.0,0.0,0.0,0.0,0.0,0.0,0.0,0.0,0.0,0.0,0.0,0.0,4.8844,5.2468,5.5894,5.5465,5.4728,0.0,0.0,0.0,0.0,0.0,0.0,0.0,0.0,0.0,6.4023,6.4994,6.6946,6.9991,7.1123,7.2255,7.3393,7.3783,7.3939,7.3861,7.3939,7.3939,7.3822,7.2729,7.0972,6.8791,6.7102,6.6282,6.5775,0.0,0.0,0.0,0.0,6.1252,6.1871,0.0,0.0,0.0,0.0,0.0,0.0,0.0,0.0,0.0,0.0,0.0,0.0,3.5859,3.9141,4.1523,4.2341,4.4997,4.5505,4.2888,4.3162,4.2534,4.0603,4.0756,4.1147,4.1732,4.5831,5.0165,5.4684,5.6207,5.7577,5.8827,6.0119,6.0397,5.9768,5.9768,5.7031,5.2381,5.1722,4.9965,4.7354,0.0,0.0,0.0,0.0,0.0,0.0,0.0,0.0,0.0,0.0,0.0,0.0,0.0,0.0,0.0,0.0,0.0,0.0,0.0,0.0,0.0,0.0,0.0,0.0,0.0,0.0,0.0,0.0,0.0,0.0,0.0,0.0,0.0,0.0,0.0,0.0,0.0,5.3253,5.6575,6.0037,5.9881,5.9378,0.0,0.0,0.0,0.0,0.0,0.0,6.2627,6.3316,6.5535,6.96,7.0576,7.2372,7.5143,7.5384,7.5618,7.5813,7.5846,7.5417,7.4636,7.5462,7.5384,7.4636,7.5462,7.5813,7.5501,7.1435,7.0108,7.0576,6.9288,6.7615,6.5941,6.6175,6.6678,6.737,0.0,0.0,0.0,0.0,0.0,0.0,0.0,0.0,0.0,0.0,0.0,3.8633,3.9531,4.2695,4.5075,4.5941,4.6952,4.6405,4.3825,4.5168,4.494,4.2399,4.306,4.3525,4.3564,4.9376,5.3708,5.6489,5.9773,6.1412,6.1525,6.1603,6.1603,6.1564,6.1564,5.9143,5.5083,5.5044,5.3522,5.0867,4.7471,0.0,0.0,0.0,0.0,0.0,0.0,0.0,0.0,0.0,0.0,0.0,0.0,0.0,0.0,0.0,0.0,0.0,0.0,0.0,0.0,0.0,0.0,0.0,0.0,0.0,0.0,0.0,0.0,0.0,0.0,0.0,0.0,0.0,0.0,0.0,0.0,0.0,0.0,6.3633,6.6092,0.0,0.0,0.0,0.0,6.2735,6.3516,6.5468,6.8752,6.8981,7.0582,7.405,7.5032,7.5969,7.6939,7.7804,7.8624,7.9444,7.9444,7.8975,7.8155,7.902,7.8942,7.8194,7.9053,7.9444,7.917,7.5618,7.4207,7.4011,7.1513,7.0498,7.0498,7.1318,7.163,7.2138,0.0,0.0,0.0,2.6445,2.7266,2.832,2.9766,3.0976,3.2422,3.4375,3.7422,4.0195,4.2148,4.6907,5.0292,5.1171,5.3049,5.3084,5.0503,4.9345,4.7865,4.5835,4.5519,4.7198,5.107,5.3834,5.6484,5.9061,6.0822,6.1403,6.0895,6.1993,6.2228,6.1681,6.172,6.1174,6.0237,5.9651,5.7894,5.5357,5.3639,5.0906,0.0,0.0,0.0,0.0,0.0,0.0,0.0,0.0,0.0,0.0,0.0,0.0,0.0,0.0,0.0,0.0,0.0,0.0,0.0,0.0,0.0,0.0,0.0,0.0,0.0,0.0,0.0,0.0,0.0,0.0,0.0,0.0,0.0,0.0,0.0,0.0,0.0,6.4721,6.6873,0.0,6.8044,6.8044,6.8005,6.7966,6.9762,7.1636,7.3432,7.4056,7.5188,7.6945,7.7843,7.8468,7.878,7.9092,7.9678,8.0537,8.053,8.0374,8.0062,8.0386,8.0074,7.9287,8.0146,8.0537,8.0498,7.9795,7.8858,7.7765,7.6867,7.6477,7.6516,7.6828,7.7296,7.796,0.0,2.5703,0.0,2.6836,2.7734,2.8906,3.0625,3.1875,3.375,3.6914,3.9844,4.2812,4.5973,5.0917,5.4259,5.4845,5.6953,5.6797,5.3357,5.2034,5.0285,4.7709,4.7861,5.0438,5.5634,5.684,5.8553,6.0856,6.1988,6.2262,6.1754,6.2891,6.3125,6.2579,6.2579,6.2891,6.3399,6.2813,6.1408,5.9417,5.7699,5.442,5.0282,0.0,0.0,0.0,0.0,0.0,0.0,0.0,0.0,0.0,0.0,0.0,0.0,0.0,0.0,0.0,0.0,0.0,0.0,0.0,0.0,0.0,0.0,0.0,0.0,0.0,0.0,0.0,0.0,0.0,0.0,0.0,0.0,0.0,0.0,6.0471,6.3945,6.6556,6.8864,7.0504,7.105,7.1402,7.1792,7.2378,7.4525,7.6086,7.6633,7.7492,7.839,7.9248,7.9834,8.042,8.0966,8.0966,8.1435,8.2287,8.2287,8.2131,8.1858,8.2137,8.1825,8.1044,8.1903,8.2293,8.2326,8.2918,8.245,8.1356,8.081,8.0576,8.0576,8.0576,8.0927,8.1435,0.0,2.5703,2.5977,2.6875,2.7734,2.8906,3.0703,3.2383,3.5,3.9414,4.2969,4.6716,5.1019,5.4572,5.668,5.6675,5.8202,5.6992,5.1874,5.3088,5.2117,4.7943,5.0243,5.3244,5.6636,5.8397,6.0076,6.1798,6.3516,6.4375,6.4375,6.4414,6.4453,6.4453,6.4453,6.4453,6.4453,6.4414,6.3906,6.2813,5.9339,5.6411,5.3795,0.0,0.0,0.0,0.0,0.0,0.0,0.0,0.0,0.0,0.0,0.0,0.0,0.0,0.0,0.0,0.0,0.0,0.0,0.0,0.0,0.0,0.0,0.0,0.0,0.0,0.0,0.0,0.0,0.0,0.0,0.0,0.0,0.0,6.2735,6.6053,6.8513,6.9489,7.2534,7.4564,7.4564,7.5345,7.5852,7.5891,7.7453,7.839,7.8429,7.9287,8.0146,8.1005,8.1044,8.1864,8.3543,8.3582,8.4011,8.4909,8.4909,8.4441,8.3692,8.448,8.4362,8.3621,8.448,8.4831,8.4824,8.4863,8.4863,8.4707,8.3035,8.2371,8.2371,8.2371,8.2371,8.2371,2.5703,2.5703,2.6172,2.7695,2.8125,2.9297,3.2266,3.3633,3.6133,4.1055,4.4726,4.8513,5.2819,5.6333,5.8402,5.8397,5.9417,5.8675,5.5391,5.4424,5.3175,5.1375,5.4966,5.7734,5.9334,6.1681,6.3125,6.3594,6.5273,6.6092,6.6131,6.742,6.8005,6.8005,6.8005,6.8005,6.7966,6.7303,6.6561,6.5507,6.2696,6.0002,5.7504,0.0,0.0,0.0,0.0,0.0,0.0,0.0,0.0,0.0,0.0,0.0,0.0,0.0,0.0,0.0,0.0,0.0,0.0,0.0,0.0,0.0,0.0,0.0,0.0,0.0,0.0,0.0,0.0,0.0,0.0,0.0,6.4453,6.6561,6.7498,6.8435,7.0309,7.3627,7.4876,7.5696,7.632,7.6594,7.6984,7.7648,7.8116,7.8663,7.9326,8.0185,8.1044,8.1903,8.2528,8.3621,8.5377,8.5377,8.6158,8.7603,8.6978,8.69,8.7251,8.6197,8.5612,8.5416,8.5651,8.5729,8.58,8.6431,8.6705,8.651,8.4785,8.4122,8.4122,8.4122,8.4122,8.4122,2.5703,2.5977,2.668,2.8047,2.8594,2.9883,3.293,3.4141,3.6953,4.3203,4.613,4.9637,5.5005,5.7387,5.8709,5.9061,5.8909,5.7855,5.5665,5.4229,5.419,5.5864,5.8319,6.0388,6.1988,6.4219,6.5351,6.5351,6.7029,6.7888,6.7927,6.8942,6.9411,6.9411,6.9411,6.9411,6.9372,6.8864,6.8357,6.7732,6.5897,6.293,5.9573,5.9065,5.7387,5.5279,5.5123,5.4849,5.4303,5.2624,0.0,0.0,0.0,0.0,0.0,0.0,0.0,0.0,0.0,0.0,0.0,0.0,0.0,0.0,0.0,0.0,0.0,0.0,0.0,0.0,0.0,0.0,0.0,0.0,6.8239,7.1128,7.2924,7.2846,7.3705,7.6555,7.6906,7.7218,7.8116,7.7843,7.7999,7.8897,7.9287,7.9717,8.0224,8.1396,8.245,8.3308,8.4519,8.5807,8.7173,8.7173,8.7681,8.8696,8.7837,8.7681,8.811,8.6744,8.6119,8.6073,8.5722,8.5566,8.5605,8.6119,8.6314,8.6275,0.0,0.0,0.0,0.0,8.5644,8.541,2.5703,2.6406,2.7266,2.8164,2.9023,3.0469,3.3008,3.4141,3.75,4.5273,4.7057,5.0235,5.7192,5.7851,5.8202,5.9178,5.7695,5.6055,5.4411,5.3752,5.5513,6.0193,6.0661,6.1949,6.4375,6.6092,6.6951,6.6951,6.8674,6.9567,6.9567,6.9645,6.9684,6.9684,6.9684,6.9684,6.9684,6.9684,6.9645,6.9489,6.8708,6.5468,6.1095,6.1017,5.9104,5.6567,5.7231,5.6957,5.6372,5.6879,0.0,0.0,0.0,0.0,0.0,0.0,0.0,0.0,0.0,0.0,0.0,0.0,0.0,0.0,0.0,0.0,0.0,0.0,0.0,0.0,0.0,0.0,0.0,0.0,7.0465,7.4095,7.7999,7.796,7.7804,7.8468,7.8546,7.8858,7.9639,7.9014,7.8936,7.9912,8.0693,8.1239,8.1435,8.284,0.0,0.0,0.0,8.772,8.8696,8.8696,8.8735,8.8852,8.8071,8.7642,8.7525,8.6744,8.6353,8.6197,8.541,8.5097,8.5097,8.5097,8.5097,8.5215,8.6588,8.7095,8.7134,8.7212,8.6744,8.6236,2.5703,2.6406,2.7266,2.8164,2.9023,3.0469,3.3008,3.4141,3.75,4.5273,4.7057,5.0469,5.8011,5.8202,5.8436,6.0002,5.8553,5.7148,5.6181,5.7192,5.8631,6.031,6.2418,6.4101,6.5312,6.699,6.7849,6.7844,6.9606,7.0465,7.0465,7.1167,7.1519,7.1519,7.1519,7.1519,7.1519,7.1519,7.1089,7.0426,7.027,6.8357,6.5507,6.4843,6.4179,6.3555,6.3008,6.2696,6.2267,6.0315,5.9104,5.8089,5.6567,5.563,0.0,0.0,0.0,0.0,0.0,0.0,0.0,0.0,0.0,0.0,0.0,0.0,0.0,0.0,0.0,0.0,0.0,0.0,0.0,7.1831,7.4915,7.7687,7.9248,7.9912,8.0068,7.9522,7.9444,7.9522,7.9678,7.9561,8.0107,8.1669,8.1942,8.2645,8.3972,8.4362,8.4948,8.5807,8.6197,8.7095,8.8696,8.8696,8.9047,8.975,8.9594,0.0,8.8461,8.8266,8.7798,8.7141,8.6984,8.6906,8.6906,8.6906,8.6906,8.6783,8.5729,8.5293,8.5371,8.608,8.6236,8.6236,2.6992,2.7344,2.7773,2.8203,2.9375,3.0976,3.3086,3.4141,3.7031,4.3516,4.5102,4.8084,5.4533,5.445,5.4801,5.6996,5.6801,5.6567,5.6606,5.8163,6.0076,6.2267,6.3594,6.4882,6.617,6.7888,6.8747,6.8742,7.0504,7.1363,7.1363,7.1792,7.1987,7.1987,7.1987,7.1987,7.1987,7.1987,7.1753,7.1363,7.1363,7.0309,6.8591,6.7342,6.6561,6.6131,6.5702,6.5273,6.4804,6.3906,6.3321,6.2813,6.1954,6.0822,5.93,0.0,0.0,0.0,0.0,0.0,0.0,0.0,0.0,0.0,0.0,0.0,0.0,0.0,0.0,6.7459,6.7498,0.0,7.3588,7.4408,7.7453,7.999,8.0888,8.1396,8.1317,8.0459,8.0341,8.0693,8.1513,8.1239,8.1708,8.3426,8.3543,8.3933,8.4753,8.4792,8.5182,8.608,8.651,8.7368,8.8696,8.8696,8.893,8.932,8.8891,8.8461,8.8032,8.7603,8.7173,8.6744,8.6275,8.608,8.608,8.608,8.6353,8.6666,8.5807,8.5963,8.6783,8.7251,8.7407,8.7407,2.8281,2.8437,2.8555,2.8555,2.9844,3.1484,3.3125,3.3984,3.6367,4.1718,4.299,4.5469,5.0824,5.0625,5.0937,5.3049,5.4814,5.5942,5.6324,5.8397,6.1013,6.414,6.4297,6.5077,6.6756,6.8518,6.9411,6.9405,7.1167,7.1987,7.1987,7.1987,7.1987,7.1987,7.1987,7.1987,7.1987,7.1982,7.1976,7.1976,7.1969,7.154,7.0766,6.936,6.8078,6.7068,6.7068,6.6209,6.5273,6.6405,6.6483,6.617,6.6834,6.5312,6.2774,6.0315,5.7894,0.0,0.0,0.0,0.0,0.0,0.0,0.0,0.0,6.4414,6.6405,6.7576,6.9176,7.0504,7.105,7.3588,7.5891,7.6906,7.9405,8.1591,8.2645,8.2801,8.2528,8.1825,8.1591,8.2098,8.3621,8.3152,8.3347,8.4714,8.4948,8.5143,8.5299,8.5299,8.569,8.6588,8.7134,8.7759,8.8422,8.8461,8.8461,8.8422,8.7915,8.7642,8.7642,8.6939,8.6627,8.6588,8.5839,8.5566,8.5566,8.5722,8.6236,8.6861,8.7056,8.7954,8.9171,8.8819,8.8696,8.8618,2.8281,2.8906,2.9453,2.9453,3.0273,3.1484,3.3125,3.3476,3.5663,4.1626,4.2477,4.482,5.0761,5.064,5.0207,5.052,5.4814,5.6922,5.5543,5.9178,6.2267,6.4219,6.4297,6.5077,6.6756,6.8518,6.9411,6.9405,7.1167,7.1987,7.1987,7.1987,7.1987,7.1987,7.1987,7.1987,7.1987,7.1955,7.1901,7.1893,7.1858,7.1789,7.1745,7.155,7.0011,6.7966,6.7966,6.5936,6.3633,6.6014,6.5312,6.3945,6.699,6.6209,6.3789,6.1954,6.0119,5.8128,5.5552,5.7309,6.0041,6.1017,6.293,6.5663,0.0,7.1519,7.2963,7.5345,7.7179,7.8194,7.7531,7.835,7.9678,8.1317,8.1903,8.2723,8.4284,8.4519,8.448,8.4401,8.3699,8.3582,8.4558,8.4558,8.4597,8.4792,8.5534,8.6275,8.7056,8.7095,8.7525,8.8383,8.7759,8.7446,8.7525,8.7564,8.7564,8.7564,8.8227,8.854,8.854,8.8461,8.8422,8.8383,8.8305,8.8266,8.8305,8.9086,8.9477,8.9633,9.0413,9.0843,9.0804,8.9281,8.8696,8.8813,2.9805,3.0117,3.0351,3.0351,3.0664,3.1484,3.3125,3.3398,3.4842,3.8885,3.9858,4.154,4.5018,4.6459,4.7553,4.8568,5.2905,5.5517,5.5309,5.9334,6.2267,6.3477,6.4023,6.4882,6.6092,6.7771,6.8903,6.9405,7.066,7.1519,7.1987,7.1987,7.1987,7.1987,7.1987,7.1987,7.1987,7.1976,7.1955,7.1893,7.1867,7.2188,7.2674,7.2674,7.2034,7.0855,6.8825,6.7185,0.0,6.66,6.6756,6.7146,6.9606,6.9294,6.7576,6.5312,6.3086,6.1447,6.1876,6.1954,6.2969,6.7342,6.8513,6.945,7.2729,7.4525,7.5969,7.7531,7.8858,7.9912,8.0537,8.0966,8.1786,8.3465,8.4167,8.4948,8.6158,8.5885,8.5924,8.6939,8.5416,8.4401,8.4753,8.5729,8.6119,8.5573,8.6822,8.7564,8.7407,8.6939,8.7056,8.7915,8.7095,8.69,8.7407,8.7407,8.7407,8.7407,8.7759,8.8227,8.8696,8.8696,8.8969,8.9477,8.9477,8.9477,8.9477,8.9867,9.0296,9.0804,9.1155,9.1585,9.1858,9.0648,9.0218,9.0179,3.0898,3.0898,3.0898,3.0898,3.0898,3.1484,3.3125,3.3398,3.4335,3.697,3.7864,3.8961,4.0873,4.3411,4.5519,4.6768,5.0601,5.3487,5.484,5.8514,6.133,6.293,6.3594,6.4453,6.5585,6.699,6.8161,6.9059,6.9918,7.0777,7.1636,7.1636,7.1753,7.1987,7.1987,7.1987,7.1987,7.1976,7.1955,7.1893,7.1876,7.2383,7.3202,7.3436,7.3267,7.2522,6.9522,6.8005,6.7264,6.6405,6.6639,6.7615,6.9606,6.9294,6.7888,6.6249,6.4297,6.3204,6.578,6.5819,6.6483,7.2221,7.3236,7.3354,7.5462,7.6906,7.7999,7.8624,7.9639,8.081,8.2059,8.2684,8.3465,8.4909,8.5885,8.6744,8.7642,8.7212,8.7212,8.8227,8.6666,8.5338,8.487,8.6158,8.6783,8.6158,8.7486,8.8071,8.7446,8.6783,8.6861,8.772,8.69,8.6744,8.7407,8.7407,8.7525,8.7759,8.7759,8.8344,8.9437,8.9437,8.9633,9.0023,9.0257,9.0374,9.0374,9.0609,9.1077,9.1624,9.1624,9.1975,9.2443,9.1858,9.1624,9.1546,3.0898,3.0898,3.0898,3.0898,3.0898,3.1484,3.3125,3.3398,3.4335,3.6972,3.7321,3.8297,4.0834,4.3411,4.5012,4.509,4.8216,5.1297,5.3865,5.648,5.9451,6.2852,6.3047,6.3828,6.5546,6.6405,6.7264,6.8122,6.902,6.9879,7.0738,7.0738,7.1206,7.1987,7.1987,7.1987,7.1987,7.1909,7.1893,7.1885,7.1838,7.2323,7.3219,7.4038,7.3368,7.1737,6.9985,6.7771,6.5546,6.4687,6.3282,6.2384,6.4999,6.4023,6.211,6.2891,6.2462,6.2306,6.4921,6.8005,7.1128,7.3783,7.632,7.839,7.9326,7.96,7.9639,7.9678,8.1044,8.2254,8.2293,8.3621,8.5026,8.5924,8.6783,8.7642,8.854,8.8657,8.8344,8.7525,8.7368,8.6666,8.4948,8.5612,8.6119,8.608,8.6939,8.7446,8.7407,8.7368,8.7759,8.8618,8.7837,8.7368,8.7407,8.7407,8.7837,8.8657,8.8657,8.9555,9.1233,9.1233,9.0765,9.0062,9.0882,9.1272,9.1311,9.2092,9.2443,9.2443,9.2443,9.2482,9.2482,9.2482,9.2443,9.2443,3.0898,3.0898,3.0898,3.0898,3.0898,3.1484,3.3125,3.3398,3.3905,3.5372,3.7087,0.0,0.0,0.0,0.0,0.0,4.7592,4.9856,5.1336,5.543,5.8592,6.0349,6.2071,6.3555,6.4726,6.6092,6.6951,6.7224,6.8669,6.9567,6.984,6.984,6.9996,7.027,7.027,7.027,7.027,7.0258,7.0239,7.0169,7.016,6.9956,6.9761,7.0034,6.9475,6.8222,0.0,6.5351,6.5468,6.457,6.4297,6.4648,6.6639,6.5897,6.4453,6.5273,6.5312,6.6131,7.105,7.2807,7.3978,7.7179,7.8624,7.9326,7.9639,8.0146,8.0732,8.1317,8.2332,8.3465,8.4597,8.5299,8.5963,8.6822,8.7212,8.772,8.8579,8.7681,8.729,8.8149,8.6744,8.5885,8.6471,8.7329,8.7368,8.6197,8.7446,8.7993,8.7446,8.7407,8.7525,8.7837,8.7564,8.7681,8.8266,8.8266,8.8696,8.9555,9.014,9.0726,9.1311,9.1858,9.1936,9.1663,9.1975,9.2092,9.2131,9.2404,9.2482,9.2482,9.2482,9.2482,9.2482,9.2482,9.2482,9.2482,0.0,3.0898,3.0898,3.0898,3.1172,0.0,0.0,0.0,0.0,0.0,0.0,0.0,0.0,0.0,0.0,0.0,0.0,4.8216,4.9973,5.321,5.5704,5.7221,5.9178,6.0661,6.1525,6.2891,6.3906,6.4526,6.6561,6.7888,6.8479,6.9411,7.0035,7.0348,7.0348,7.0348,7.0348,7.0348,7.0102,6.977,6.91,6.8507,6.7914,6.7321,6.6408,0.0,6.3539,6.3115,6.3243,6.3008,6.3477,6.4492,6.6209,6.6209,6.5897,6.7303,6.7732,6.8825,7.3939,7.5384,7.6203,7.9366,8.0146,8.0263,8.0576,8.1278,8.2137,8.2996,8.3855,8.487,8.6314,8.6314,8.6471,8.7681,8.7876,8.8188,8.9047,8.8461,8.8032,8.8227,8.7017,8.6392,8.69,8.772,8.7759,8.6666,8.7603,8.7993,8.7446,8.7407,8.7407,8.7407,8.7407,8.7837,8.8696,8.8696,8.9281,9.0452,9.1311,9.1741,9.1741,9.2248,9.2482,9.2482,9.2482,9.2482,9.2482,9.2482,9.2482,9.2482,9.2482,9.2482,9.2482,9.2482,9.2482,9.2482,0.0,0.0,3.0898,0.0,0.0,0.0,0.0,0.0,0.0,0.0,0.0,0.0,0.0,0.0,0.0,0.0,0.0,0.0,4.97,5.0012,5.1219,5.3747,5.4757,5.566,5.6519,5.7382,5.8587,6.0222,6.2808,6.4882,6.6444,6.8942,7.0582,7.1402,7.1402,7.1441,7.148,7.148,7.0972,7.0035,6.8357,6.7592,6.7243,6.5644,6.3967,6.2446,6.2485,6.099,5.9104,6.008,6.1056,6.2228,6.3984,6.5155,6.6366,6.8981,6.9723,7.0465,7.3978,7.6086,7.7921,8.0459,8.1083,8.1356,8.2176,8.2879,8.3621,8.448,8.5221,8.5963,8.6861,8.6431,8.651,8.8188,8.854,8.893,8.975,9.057,9.0218,8.7759,8.8149,8.7993,0.0,8.6939,8.7407,8.7407,8.7407,8.7407,8.7407,8.7407,8.7407,8.7407,8.7446,8.7876,8.8774,8.8852,8.9711,9.1389,9.2131,9.2482,9.2482,9.2482,9.2482,9.2482,9.2482,9.2482,9.2482,9.2482,9.2482,9.2482,9.2482,9.2482,9.2482,9.2482,9.2482,9.2482,0.0,0.0,0.0,0.0,0.0,0.0,0.0,0.0,0.0,0.0,0.0,0.0,0.0,0.0,0.0,0.0,0.0,0.0,4.712,4.9036,5.0676,5.2003,5.3526,5.4736,5.5591,5.7079,5.7703,5.7582,6.0119,6.1291,6.1091,6.1754,6.254,6.336,6.336,6.3711,6.4336,6.4336,6.3828,6.3008,6.254,6.1208,5.9441,5.9012,5.7802,5.6358,5.6982,5.7226,5.7543,5.969,6.2267,6.4999,6.7342,6.8708,7.0035,7.3236,7.4173,7.5071,7.9209,8.0146,8.0302,8.163,8.2411,8.2918,8.3152,8.2371,8.1864,8.2762,8.1552,8.0615,8.1513,8.3035,8.4323,8.4753,8.6471,8.7798,8.8032,8.8266,8.8383,8.8383,0.0,8.7798,8.8032,8.7642,8.7407,8.7407,8.7407,8.7407,8.7407,8.7407,8.7407,8.7407,8.8032,8.8774,8.9672,9.0921,9.1741,9.2209,9.2404,9.2482,9.2482,9.2482,9.2482,9.2482,9.2482,9.2482,9.2482,9.2482,9.2482,9.2482,9.2482,9.2482,9.2482,9.2482,9.2482,9.2482,0.0,0.0,0.0,0.0,0.0,0.0,0.0,0.0,0.0,0.0,0.0,0.0,0.0,0.0,0.0,0.0,0.0,0.0,0.0,4.7435,4.8646,4.9153,5.0481,5.1418,5.1925,5.3175,5.419,5.4892,5.6688,5.8094,5.9104,5.9495,6.0119,6.0983,6.0978,6.1252,6.172,6.172,6.1213,0.0,0.0,5.8207,5.6528,5.5747,5.4849,5.4108,5.5005,5.6333,5.8324,6.2384,6.5077,6.7224,7.0191,7.1441,7.2495,7.593,7.6672,7.714,8.0732,8.1669,8.1708,8.2176,8.2645,8.2762,8.202,8.1396,8.1044,8.1122,7.999,7.9717,8.2059,8.2762,8.3855,8.6471,8.7525,8.811,8.8501,8.9164,8.9398,8.8774,8.893,8.9008,8.8735,8.8266,8.7798,8.7446,8.7407,8.7407,8.7407,8.7407,8.7407,8.7407,8.8266,8.9281,9.057,9.1858,9.2482,9.2482,9.2482,9.2482,9.2482,9.2482,9.2482,9.2482,9.2482,9.2482,9.2482,9.2482,9.2482,9.2482,9.2482,9.2482,9.2482,9.2482,9.2482,9.2482,0.0,0.0,0.0,0.0,0.0,0.0,0.0,0.0,0.0,3.7617,3.7649,3.8219,3.9663,3.9897,0.0,0.0,0.0,0.0,0.0,0.0,4.6144,4.6144,4.6963,4.7435,4.7435,4.8216,4.9739,5.1999,5.2897,5.4814,5.7746,5.8527,5.9347,6.0163,6.0159,6.0237,6.0315,6.0315,5.9846,5.8909,5.7387,5.6294,5.5396,0.0,5.3483,5.3639,5.4732,5.6684,5.9729,6.5975,6.8161,6.8942,7.2768,7.39,7.4447,7.7648,7.8038,7.7999,8.0498,8.1708,8.2293,8.2293,8.2371,8.1981,8.0107,8.0107,8.0185,7.9092,7.8585,7.9639,8.3933,8.284,8.3191,8.9125,8.8735,8.811,8.932,9.0843,9.1116,8.9281,9.0374,9.0726,8.9203,8.893,8.8579,8.7798,8.7642,8.7525,8.7407,8.7407,8.7525,8.7759,8.8579,8.9828,9.1428,9.2131,9.2482,9.2482,9.2482,9.2482,9.2482,9.2482,9.2482,9.2482,9.2482,9.2482,9.2482,9.2482,9.2482,9.2482,9.2482,9.2482,9.2482,9.2482,9.2561,9.2678,0.0,0.0,0.0,0.0,0.0,0.0,0.0,0.0,0.0,0.0,3.9445,3.9546,0.0,0.0,0.0,0.0,0.0,0.0,0.0,0.0,0.0,4.5246,4.6066,4.6534,4.6534,4.7357,4.8021,4.849,4.9302,5.0005,5.0598,5.075,5.1297,5.212,5.2117,5.2507,5.321,5.321,5.2663,5.1843,5.157,5.0906,5.0204,5.0633,0.0,0.0,5.3405,5.5435,5.8168,6.5585,6.8591,7.0152,7.5735,7.7023,7.6828,7.8897,7.9366,7.9678,8.1552,8.2176,8.2293,8.2293,8.2801,8.2645,8.0263,7.8702,7.714,7.4876,7.269,7.2495,7.6789,7.6633,7.7609,8.2996,8.2996,8.3386,8.6353,8.7642,8.893,9.0648,9.1116,9.1194,9.0882,9.0218,8.9711,8.9555,8.8891,8.8149,8.7446,8.7407,8.8071,8.9516,9.0374,9.1311,9.2287,9.2443,9.2482,9.2482,9.2482,9.2482,9.2482,9.2482,9.2482,9.2482,9.2482,9.2482,9.2482,9.2482,9.2482,9.2482,9.2482,9.2482,9.2482,9.2482,9.2951,9.3576,0.0,0.0,0.0,0.0,0.0,0.0,0.0,3.8359,3.9101,4.0391,4.0545,4.0537,4.0525,4.0873,4.1264,0.0,0.0,0.0,0.0,0.0,0.0,4.4972,4.5402,4.5831,4.63,4.669,4.7357,4.8216,0.0,4.8174,4.9466,4.8564,4.8603,4.9423,4.9423,4.9657,5.0048,5.0048,4.9813,4.9423,4.9423,4.9189,4.8837,4.9267,0.0,0.0,5.321,5.5123,5.7582,6.3984,6.6405,6.82,7.6477,7.878,7.8429,7.839,7.9639,8.0927,8.042,8.1552,8.2801,8.2411,8.2606,8.1942,7.8468,7.7023,7.5423,7.1987,7.027,7.0582,7.4408,7.4798,7.6047,8.0849,8.2762,8.4245,8.5885,8.8383,9.0374,9.1194,9.1663,9.1741,9.135,9.0921,9.0492,9.0023,8.9594,8.9008,8.811,8.8071,8.8891,9.0609,9.1077,9.1702,9.2482,9.2482,9.2482,9.2482,9.2482,9.2482,9.2482,9.2482,9.2482,9.2482,9.2482,9.2482,9.2482,9.2482,9.2482,9.2482,9.2482,9.2482,9.2561,9.299,9.3458,9.3849,0.0,0.0,0.0,0.0,0.0,0.0,3.8476,3.9336,4.0195,4.1094,4.1133,4.1132,4.1082,4.1114,4.1108,0.0,0.0,0.0,0.0,0.0,0.0,0.0,4.4894,4.5402,4.6261,0.0,0.0,4.8255,4.6963,0.0,0.0,0.0,0.0,0.0,4.8252,4.8252,4.8252,4.8252,4.8252,0.0,0.0,4.8252,4.8291,0.0,0.0,0.0,0.0,5.4888,5.6879,6.2423,6.4297,6.5897,7.5149,7.7804,7.7414,7.6945,7.8741,8.0654,7.9522,8.12,8.3074,8.245,8.2293,8.1122,7.6594,7.554,7.4251,6.9762,6.8825,6.9957,7.3588,7.3627,7.4681,7.9405,8.1942,8.3855,8.5338,8.8774,9.1233,9.1507,9.2287,9.2443,9.1624,9.1546,9.1272,9.057,9.0374,8.9906,8.9047,8.8969,8.9672,9.1233,9.1467,9.1858,9.2482,9.2678,9.2795,9.2795,9.2951,9.3068,9.3068,9.3068,9.3068,9.3068,9.3068,9.3068,9.3029,9.2873,9.2795,9.2756,9.2561,9.26,9.2873,9.3537,9.4044,9.4434,0.0,0.0,0.0,0.0,0.0,0.0,3.8476,3.9336,4.0195,4.1094,4.1172,4.1172,4.1094,4.1084,4.1108,0.0,0.0,0.0,0.0,0.0,0.0,0.0,0.0,0.0,0.0,0.0,0.0,4.6534,4.6378,0.0,0.0,0.0,0.0,0.0,0.0,4.6534,4.6534,4.6534,0.0,0.0,0.0,0.0,0.0,0.0,0.0,0.0,0.0,5.4108,5.5279,6.2032,6.4297,6.5273,7.0933,7.1636,7.1089,7.4837,7.6164,7.7218,8.0927,8.2176,8.2371,8.2332,8.2293,8.0966,7.5852,7.4642,7.3197,6.8083,6.7029,6.8357,7.2612,7.0816,7.0621,7.6516,7.5774,7.6633,8.2879,8.5456,8.811,9.1936,9.3146,9.3341,9.2482,9.2404,9.2365,9.2287,9.1585,9.0804,8.9945,8.9867,9.0335,9.1272,9.2014,9.2443,9.2482,9.3302,9.3693,9.3693,9.4473,9.4864,9.4864,9.4864,9.4864,9.4864,9.4864,9.4864,9.4786,9.4005,9.3693,9.3615,9.2795,9.299,9.3693,9.3771,9.4786,9.6152,0.0,0.0,0.0,0.0,0.0,0.0,3.8555,3.9805,4.082,4.1133,4.1211,4.1172,4.1172,4.1131,4.1086,4.1111,0.0,0.0,0.0,0.0,0.0,0.0,0.0,0.0,0.0,0.0,4.63,4.63,4.63,0.0,0.0,0.0,0.0,0.0,0.0,4.63,4.63,4.63,0.0,0.0,0.0,0.0,0.0,0.0,0.0,0.0,0.0,0.0,5.4576,5.8363,6.0354,6.1603,6.4219,6.4882,6.5624,6.9918,7.3744,7.6633,7.6828,7.9522,8.2293,8.2293,8.2645,8.1396,7.5227,7.4173,7.2768,6.6561,6.5312,6.5975,6.8239,6.7927,6.8435,7.1909,7.4212,7.7453,8.2762,8.6822,9.0257,9.2951,9.4044,9.3654,9.1233,9.1897,9.2482,9.2482,9.1741,9.1585,9.2248,9.1311,9.1389,9.2756,9.3107,9.3537,9.4044,9.4395,9.4591,9.4591,9.4942,9.5098,9.5098,9.5098,9.5098,9.5098,9.5098,9.4786,9.4278,9.3927,9.381,9.3771,9.3419,9.381,9.4669,9.5176,9.5801,9.6464,0.0,0.0,0.0,0.0,0.0,3.8594,3.8594,4.0078,4.1172,4.1211,4.1172,4.1172,4.1211,4.1133,4.1092,4.1111,4.1108,0.0,0.0,0.0,0.0,0.0,0.0,0.0,0.0,0.0,4.63,4.63,4.63,4.63,0.0,0.0,4.63,4.63,0.0,0.0,0.0,0.0,0.0,0.0,0.0,0.0,0.0,0.0,0.0,0.0,0.0,0.0,0.0,0.0,0.0,5.8909,6.0041,6.0822,6.2149,6.6444,7.0738,7.4056,7.4056,7.714,8.0615,8.1669,8.1552,7.9834,7.4525,7.2924,7.1011,6.5468,6.4297,6.457,6.5429,6.6053,6.7107,6.9098,7.2885,7.7453,8.2762,8.7564,9.1155,9.2873,9.4044,9.3458,9.0296,9.1507,9.2482,9.2482,9.1975,9.2287,9.3732,9.2678,9.2717,9.4122,9.4161,9.4473,9.5098,9.5371,9.5488,9.5488,9.5762,9.5879,9.5879,9.5879,9.5879,9.5879,9.5879,9.5527,9.4942,9.4669,9.4552,9.4552,9.4278,9.4708,9.5567,9.6152,9.6542,9.6855,0.0,0.0,0.0,0.0,0.0,0.0,3.8594,4.0039,4.1133,4.1172,4.1133,4.1133,4.1172,4.1133,4.1092,4.1111,4.1108,0.0,0.0,0.0,0.0,0.0,0.0,0.0,0.0,0.0,4.63,4.63,4.63,4.63,4.63,4.63,4.63,4.63,0.0,0.0,0.0,0.0,0.0,0.0,0.0,0.0,4.6495,0.0,0.0,0.0,0.0,0.0,0.0,0.0,0.0,0.0,0.0,6.0393,6.1252,6.5546,6.6873,6.82,7.4173,7.5813,7.6711,8.0146,7.8429,7.5423,7.3705,7.066,6.742,6.4843,6.4297,6.457,6.5429,6.5624,6.6444,6.8981,7.0894,7.472,8.2411,8.651,8.9359,9.1116,9.2795,9.2795,9.0257,9.1507,9.2482,9.2482,9.2482,9.2873,9.3732,9.3771,9.4161,9.5059,9.5098,9.5098,9.5098,9.5957,9.6386,9.6386,9.7245,9.7675,9.7675,9.7675,9.7675,9.7675,9.7675,9.7675,9.7597,9.6738,9.6386,9.6308,9.541,9.5606,9.6386,9.6386,9.6933,9.7675,0.0,0.0,0.0,0.0,0.0,0.0,3.8516,3.957,4.0496,4.1054,4.114,4.1172,4.1133,4.1133,4.1133,4.1091,4.1082,0.0,0.0,0.0,0.0,0.0,0.0,0.0,0.0,4.63,4.63,4.63,4.63,4.63,4.63,4.63,4.63,4.63,4.63,4.63,0.0,0.0,0.0,0.0,0.0,4.63,4.6417,0.0,0.0,0.0,0.0,0.0,0.0,0.0,0.0,0.0,0.0,0.0,0.0,6.2032,6.4101,6.6522,6.8981,7.0933,7.2729,7.4408,7.4486,7.3158,6.9645,6.8474,6.7029,6.3282,6.254,6.2969,6.4453,6.4726,6.5741,6.8903,7.0855,7.4915,8.323,8.6861,9.0218,9.4317,9.3185,9.1975,9.1741,9.1155,9.1272,9.2404,9.3068,9.3771,9.463,9.5254,9.5684,9.5996,9.5996,9.6269,9.6855,9.7167,9.7284,9.7284,9.7558,9.7714,9.7714,9.7714,9.7714,9.7714,9.7714,9.7362,9.6777,9.6503,9.6386,9.6386,9.6113,9.6503,9.7284,9.7284,9.744,9.7714,0.0,0.0,0.0,0.0,0.0,0.0,3.8476,3.9336,4.0186,4.1045,4.1123,4.1101,4.1093,4.1133,4.1133,4.1055,4.1084,0.0,0.0,0.0,0.0,0.0,0.0,0.0,4.6261,4.63,4.63,4.63,4.63,4.63,4.63,4.63,4.63,4.63,4.63,4.63,0.0,0.0,0.0,0.0,4.5948,4.6027,4.6417,0.0,0.0,0.0,0.0,0.0,0.0,0.0,0.0,0.0,0.0,0.0,0.0,0.0,6.2189,6.4453,6.5936,6.7537,6.9215,7.105,7.0933,6.9762,6.7342,6.6209,6.4921,6.2267,6.1954,6.2618,6.4023,6.4804,6.6561,7.066,7.1987,7.5384,8.366,8.6197,8.8891,9.3458,9.2092,9.0999,9.1507,9.1194,9.1389,9.2404,9.3302,9.4161,9.5059,9.5918,9.6542,9.6894,9.6894,9.7167,9.7675,9.7714,9.7714,9.7714,9.7714,9.7714,9.7714,9.7714,9.7714,9.7714,9.8065,9.7714,0.0,9.7245,9.7206,9.6894,9.6894,9.7206,9.7714,9.7714,9.7714,9.7714,0.0,0.0,0.0,0.0,0.0,0.0,0.0,3.9141,3.9961,4.0976,4.0981,4.0974,4.1086,4.1091,4.1093,4.1016,4.1045,0.0,0.0,0.0,0.0,0.0,0.0,0.0,4.6261,4.63,4.6339,4.6378,4.6378,4.6417,4.6495,4.6417,4.6378,4.6378,4.6339,4.63,0.0,0.0,0.0,0.0,4.5402,4.5597,0.0,0.0,0.0,0.0,0.0,0.0,0.0,0.0,0.0,0.0,0.0,0.0,0.0,0.0,0.0,0.0,0.0,6.5312,6.6092,6.9255,6.7654,6.5507,6.6288,6.4023,0.0,6.1798,6.2501,6.336,6.4219,6.5897,6.8708,7.3393,7.3861,7.6203,8.3504,8.4987,8.6588,8.9867,9.0257,9.0296,9.0374,9.1663,9.2482,9.2482,9.3341,9.4239,9.5059,9.5996,9.6855,9.7675,9.7714,9.7714,9.7714,9.7714,9.7714,9.7714,9.7714,9.7714,9.7714,9.7753,9.7792,9.7831,9.8729,9.8612,9.787,9.869,9.8494,9.7714,9.7714,9.7714,9.7714,9.7714,9.7714,9.7714,0.0,0.0,0.0,0.0,0.0,0.0,0.0,0.0,0.0,0.0,4.0109,4.0374,4.0965,4.114,4.1169,0.0,0.0,0.0,0.0,0.0,0.0,0.0,0.0,0.0,4.6261,4.63,4.6612,4.7276,4.7276,4.7631,4.8216,4.7592,4.7276,4.7276,4.6612,4.63,0.0,0.0,0.0,0.0,4.6066,4.6105,0.0,0.0,0.0,0.0,4.9032,5.0243,0.0,0.0,0.0,0.0,0.0,0.0,0.0,0.0,6.0002,6.0978,6.2267,0.0,6.2813,6.3594,6.3204,6.2657,0.0,6.2774,6.2696,6.2696,6.3399,6.4258,6.5116,6.8318,7.0738,7.0621,7.429,7.8311,8.1435,8.6978,9.1233,9.2717,9.2912,9.3185,9.3849,9.3068,9.2482,9.2482,9.3927,9.4864,9.5098,9.6542,9.7479,9.7675,9.7714,9.7714,9.7714,9.7714,9.7714,9.7714,9.7714,9.7714,9.7714,9.8377,9.869,9.8729,9.9627,9.9509,9.8729,9.8924,9.8494,9.7714,9.7714,9.7714,9.7714,9.7714,9.7714,9.7714,0.0,0.0,0.0,0.0,0.0,0.0,0.0,0.0,0.0,0.0,3.9188,3.9513,4.0312,4.0468,4.0682,0.0,0.0,0.0,0.0,0.0,0.0,0.0,0.0,4.5831,4.63,4.669,4.712,4.7592,4.7978,4.8369,4.8798,4.8369,4.8135,4.8099,4.7276,4.6651,0.0,0.0,0.0,4.6264,4.587,0.0,0.0,0.0,0.0,0.0,4.8798,4.993,0.0,5.1921,5.2663,5.3561,0.0,0.0,0.0,0.0,5.9417,6.051,6.0978,6.1408,6.172,6.172,6.172,6.1798,6.2228,6.2657,6.3125,6.3516,6.4297,6.5155,6.6014,6.902,7.226,7.4876,7.7375,8.0302,8.4011,8.9477,9.3263,9.3732,9.4161,9.4434,9.4512,9.3302,9.2678,9.3068,9.4356,9.5254,9.5684,9.6972,9.7714,9.7714,9.7714,9.7714,9.7714,9.7714,9.7714,9.7714,9.8104,9.8299,9.8338,9.9197,9.9588,9.9627,10.0095,9.9822,9.9002,9.9002,9.8494,9.7714,9.7714,9.7714,9.7714,9.7714,9.7714,9.7714,0.0,0.0,0.0,0.0,0.0,0.0,0.0,0.0,0.0,0.0,0.0,0.0,0.0,0.0,0.0,0.0,0.0,0.0,0.0,0.0,0.0,0.0,4.5831,4.6378,4.6495,4.7237,4.7748,4.7978,4.8642,4.9068,4.9185,4.9068,4.8876,4.8607,4.7904,4.712,4.6261,4.5519,4.5636,4.6222,4.5519,0.0,0.0,0.0,0.0,0.0,0.0,0.0,0.0,5.1375,5.196,5.2858,5.3717,0.0,0.0,0.0,0.0,0.0,6.0549,6.1134,6.1837,6.2345,6.211,6.2071,6.3477,6.3477,6.3438,6.4336,6.5702,6.699,6.7654,7.0777,7.5227,8.1317,8.1513,8.2723,8.7954,9.1546,9.3654,9.3771,9.4434,9.4669,9.4044,9.3107,9.2873,9.3732,9.4591,9.5488,9.6347,9.7245,9.7714,9.7714,9.7714,9.7714,9.7714,9.7714,9.7714,9.7714,9.8455,9.8807,9.8846,9.9705,10.0212,10.029,10.029,9.9861,9.9197,9.9041,9.8494,9.7714,9.7714,9.7714,9.7714,9.7714,9.7714,9.7714,0.0,0.0,0.0,0.0,0.0,0.0,0.0,0.0,0.0,0.0,0.0,0.0,0.0,0.0,0.0,0.0,0.0,0.0,0.0,0.0,0.0,4.4972,4.5831,4.6651,4.7396,4.7514,4.8291,4.9735,4.9852,5.0282,5.0984,5.0243,4.9146,4.778,4.7666,4.712,4.63,4.6144,4.6183,4.63,4.6144,0.0,0.0,0.0,0.0,0.0,0.0,0.0,0.0,5.1141,5.196,5.2858,5.3717,0.0,0.0,0.0,0.0,0.0,6.1095,6.1603,6.2384,6.5273,6.3828,6.2696,6.6444,6.5663,6.4336,6.5234,6.8981,7.2143,7.23,7.917,8.4284,8.2567,8.4519,8.6783,8.8461,9.0999,9.2951,9.3693,9.3927,9.4239,9.4825,9.3458,9.2873,9.3732,9.4591,9.5488,9.6347,9.7245,9.7714,9.7714,9.7714,9.7714,9.7714,9.7714,9.7714,9.7714,9.7831,9.7909,9.7948,9.8807,9.9588,10.029,10.029,10.0212,10.0017,9.9314,9.8494,9.7714,9.7714,9.7714,9.7714,9.7714,9.7714,9.7714,0.0,0.0,0.0,0.0,0.0,0.0,0.0,0.0,0.0,0.0,0.0,0.0,0.0,0.0,0.0,0.0,0.0,0.0,0.0,0.0,4.4075,4.4972,4.5831,4.669,4.7592,4.8017,4.8876,5.0087,5.0555,5.1023,5.1375,5.0984,5.0126,4.8912,4.8447,4.7787,4.6963,4.6495,4.63,4.63,0.0,0.0,0.0,0.0,0.0,0.0,0.0,0.0,0.0,0.0,5.1687,5.2234,5.3561,0.0,0.0,0.0,0.0,0.0,6.0666,6.133,6.3086,6.8864,6.7693,6.5936,6.8825,7.0387,7.0426,6.7537,7.0699,7.4095,7.4564,7.8585,8.284,8.5963,9.0101,9.3107,9.3497,9.4981,9.5996,9.5918,9.5098,9.4473,9.4395,9.3263,9.3068,9.4395,9.4864,9.5684,9.7011,9.7479,9.7714,9.7714,9.7714,9.7714,9.7714,9.8182,9.8182,9.7714,9.8182,9.8416,9.8416,9.9314,9.9939,10.029,9.9783,9.9588,9.9548,9.8651,9.8065,9.7714,9.7714,9.7714,9.7714,9.7714,9.7714,9.7714,0.0,0.0,0.0,0.0,0.0,0.0,0.0,0.0,0.0,0.0,0.0,0.0,0.0,0.0,0.0,0.0,0.0,0.0,0.0,4.3117,4.4,4.466,4.5714,4.669,4.7592,4.8408,4.9224,5.0087,5.0984,5.1414,5.1414,5.1414,5.0945,5.0087,4.9384,4.8529,4.7553,4.6885,4.6495,4.63,0.0,0.0,0.0,0.0,0.0,0.0,0.0,0.0,0.0,0.0,0.0,0.0,0.0,0.0,0.0,5.7309,5.9143,6.0354,6.0627,6.1915,6.4687,7.0855,7.023,6.902,7.2612,7.5188,7.5618,7.1363,7.3939,7.7179,7.8038,7.9561,8.2957,8.9789,9.42,9.7011,9.7597,9.826,9.8299,9.7206,9.5918,9.4669,9.3615,9.2873,9.3224,9.4981,9.5098,9.584,9.7597,9.7714,9.7714,9.7714,9.7714,9.7792,9.7987,9.869,9.8651,9.8026,9.8885,9.9314,9.9314,10.0017,10.029,10.029,9.9392,9.9002,9.8924,9.8065,9.7714,9.7714,9.7714,9.7714,9.7714,9.7714,9.7714,9.7714,0.0,0.0,0.0,0.0,0.0,0.0,0.0,0.0,0.0,0.0,0.0,0.0,0.0,0.0,0.0,0.0,0.0,0.0,0.0,4.2765,4.3726,4.3798,4.5402,4.669,4.7592,4.8408,4.9224,5.0087,5.0984,5.1414,5.1414,5.1414,5.0945,5.0087,5.0048,4.9111,4.7592,4.7514,4.7042,4.63,4.63,0.0,0.0,0.0,0.0,0.0,0.0,0.0,0.0,0.0,0.0,0.0,0.0,0.0,5.4654,5.8011,6.133,6.3594,6.2032,6.457,6.7966,6.9333,6.8864,7.0465,7.9405,7.8585,7.6242,7.7414,8.1083,8.4323,8.5182,8.8657,9.1858,9.3302,9.3849,9.4942,9.7362,9.7753,9.7167,9.5488,9.5176,9.4434,9.2756,9.2522,9.3224,9.4981,9.5098,9.584,9.7597,9.7714,9.7714,9.7714,9.7714,9.8104,9.8885,9.8963,9.8963,9.8924,9.9783,10.0212,10.0212,10.029,10.029,10.029,9.9392,9.9002,9.8924,9.8065,9.7714,9.7714,9.7714,9.7714,9.7714,9.7714,9.7714,9.7714,0.0,0.0,0.0,0.0,0.0,0.0,0.0,0.0,0.0,0.0,0.0,0.0,0.0,0.0,0.0,0.0,0.0,0.0,0.0,4.2726,4.3687,4.3681,4.5363,4.6456,4.6768,4.8096,4.9228,5.0087,5.0984,5.1414,5.1414,5.1414,5.1219,5.0867,5.036,4.9462,4.833,4.7822,4.7081,4.63,4.63,4.63,0.0,0.0,0.0,0.0,0.0,0.0,0.0,0.0,5.0321,5.0906,5.2624,5.3561,5.4576,5.7465,5.9612,6.1174,6.1564,6.4843,6.8942,7.2495,7.3549,7.4798,7.8936,8.2332,8.3894,8.1356,8.3386,8.6197,8.8149,8.9867,9.2092,9.5645,9.4395,9.4083,9.7245,9.7245,9.666,9.5996,9.4942,9.4044,9.338,9.2834,9.3224,9.4981,9.5098,9.584,9.7597,9.7714,9.7948,9.8494,9.8494,9.8924,9.9783,10.029,10.0603,10.0603,10.0407,10.029,10.029,10.029,10.0017,9.947,9.9158,9.869,9.8182,9.7831,9.7714,9.7714,9.7714,9.7714,9.7714,9.7714,9.7714,9.7714,0.0,0.0,0.0,0.0,0.0,0.0,0.0,0.0,0.0,0.0,0.0,0.0,0.0,0.0,0.0,0.0,0.0,0.0,4.1055,4.2726,4.3687,4.3681,4.5363,4.63,4.63,4.7709,4.8837,4.9692,5.0828,5.1414,5.1414,5.1414,5.1414,5.1375,5.0789,4.9887,4.8755,4.8213,4.7318,4.63,4.63,4.63,0.0,0.0,0.0,0.0,0.0,0.0,0.0,0.0,4.9852,5.0399,5.2156,5.3288,5.4498,5.7035,5.9183,6.0861,6.1525,6.5819,7.0699,7.3158,7.6477,7.9287,7.9873,8.3738,8.6471,8.4011,8.6392,8.9242,9.0218,9.1077,9.2678,9.5957,9.4473,9.4044,9.7245,9.7206,9.6699,9.6425,9.5332,9.4512,9.4239,9.3654,9.3927,9.541,9.5527,9.6152,9.7636,9.7948,9.8377,9.8963,9.9275,9.9822,10.0681,10.1188,10.1618,10.1891,10.1383,10.111,10.111,10.0798,10.0212,9.9392,9.9119,9.8494,9.7714,9.7714,9.7714,9.7714,9.7714,9.7714,9.7714,9.7714,9.7714,9.7714,0.0,0.0,0.0,0.0,0.0,0.0,0.0,0.0,0.0,0.0,0.0,0.0,0.0,0.0,0.0,0.0,0.0,0.0,4.1016,4.2687,4.3687,4.3681,4.5363,4.63,4.63,4.7159,4.8017,4.8794,5.0555,5.1414,5.1414,5.1414,5.1414,5.1414,5.1414,5.0438,4.8794,4.8798,4.7826,4.63,4.63,4.63,4.63,0.0,0.0,0.0,0.0,0.0,0.0,0.0,4.9384,5.0399,5.2117,5.3288,5.4498,5.7074,6.09,6.3945,6.2267,6.8044,7.3744,7.0348,7.6555,8.3504,8.3504,8.2254,8.202,8.5416,9.0882,9.4317,9.178,9.338,9.4825,9.3966,9.381,9.4708,9.7323,9.7714,9.7362,9.6503,9.6425,9.6074,9.5215,9.5098,9.5449,9.6347,9.6386,9.6777,9.7675,9.8533,9.9002,9.9002,9.9861,10.0681,10.15,10.15,10.1891,10.2789,10.2789,10.2789,10.2789,10.1891,10.111,10.029,9.9392,9.8494,9.7714,9.7714,9.7714,9.7714,9.7714,9.7714,9.7714,9.7714,9.7714,9.7714,0.0,0.0,0.0,0.0,0.0,0.0,0.0,0.0,0.0,0.0,0.0,0.0,0.0,0.0,0.0,0.0,0.0,0.0,4.1015,4.2724,4.3684,4.3681,4.5363,4.63,4.63,4.7159,4.8291,4.9692,5.0867,5.1414,5.1414,5.1414,5.1414,5.1414,5.1414,5.0438,4.8794,4.8798,4.7826,4.63,4.63,4.63,4.63,0.0,0.0,0.0,0.0,0.0,0.0,0.0,0.0,0.0,5.0516,5.2312,5.497,6.0007,6.2818,6.5116,6.8869,7.39,7.8077,7.7648,8.0537,8.3816,8.5065,8.5416,8.5612,8.6002,9.0882,9.4669,9.3302,9.3185,9.42,9.7011,9.541,9.4708,9.7323,9.7714,9.7597,9.7362,9.6777,9.6308,9.6035,9.5449,9.5723,9.7206,9.6738,9.7323,9.9431,9.9197,9.9548,10.0681,10.0993,10.1618,10.2398,10.2398,10.2515,10.2789,10.2789,10.2789,10.2789,10.1891,10.111,10.029,9.9392,9.8494,9.7714,9.7714,9.7714,9.7714,9.7714,9.7714,9.7714,9.7714,9.7714,9.7714,0.0,0.0,0.0,0.0,0.0,0.0,0.0,0.0,0.0,0.0,3.5704,3.5704,0.0,0.0,0.0,0.0,0.0,0.0,4.1054,4.241,4.3329,4.3681,4.5051,4.5948,4.63,4.7159,4.8096,4.9111,5.0282,5.1063,5.1414,5.1414,5.1414,5.1414,5.1414,5.0633,4.9302,4.8954,4.8021,4.6807,4.6456,4.63,4.63,0.0,0.0,0.0,0.0,0.0,0.0,0.0,0.0,0.0,4.9813,5.3053,5.704,5.9694,6.3711,6.7844,7.0113,7.5384,8.0263,8.0459,8.2762,8.5338,8.6392,8.729,8.7876,8.7681,9.217,9.5879,9.4981,9.4981,9.584,9.8104,9.6738,9.5918,9.7479,9.7714,9.7714,9.7714,9.7245,9.6933,9.6933,9.6738,9.7089,9.8143,9.8065,9.8651,10.0212,10.0095,10.0485,10.15,10.1813,10.2281,10.2789,10.2789,10.2789,10.2789,10.2789,10.2789,10.2789,10.1618,10.0798,10.0212,9.9002,9.8182,9.7714,9.7714,9.7714,9.7714,9.7714,9.7714,9.7714,9.7714,9.7714,9.7714,0.0,0.0,0.0,0.0,0.0,0.0,0.0,0.0,0.0,3.5704,3.5704,3.5704,0.0,0.0,0.0,3.8319,3.918,4.0078,4.1055,4.1904,4.2747,4.3564,4.4504,4.5402,4.6261,4.7081,4.7514,4.7592,4.9189,5.0438,5.1297,5.1297,5.1297,5.1297,5.1375,5.0867,4.993,4.9228,4.8411,4.7514,4.6729,4.6378,4.63,4.63,0.0,0.0,0.0,0.0,0.0,0.0,0.0,0.0,4.9735,5.4463,5.9347,5.7582,6.3784,7.0693,6.8463,7.4246,8.0771,8.0381,8.3972,8.7681,8.7759,8.854,8.9398,8.9789,9.4005,9.7284,9.6347,9.7636,9.8612,9.7831,9.7714,9.7714,9.7714,9.7714,9.7714,9.7714,9.7714,9.7714,9.7714,9.8494,9.9041,9.9119,9.9861,10.0407,10.0485,10.111,10.15,10.1618,10.2398,10.2789,10.2789,10.2789,10.2789,10.2789,10.2789,10.2789,10.2593,10.0993,10.0212,9.9978,9.8377,9.7714,9.7714,9.7714,9.7714,9.7714,9.7714,9.7714,9.7714,9.7714,9.7714,9.7714,0.0,0.0,0.0,0.0,0.0,0.0,0.0,0.0,3.5704,3.5704,3.5704,3.5704,3.5704,3.5917,0.0,3.8359,3.8711,3.9531,4.1094,4.1953,4.2493,4.2666,4.4149,4.5402,4.6261,4.6495,4.6924,4.7592,4.8603,4.9536,5.0399,5.0399,5.0399,5.0399,5.1102,5.0555,4.9107,4.9618,4.8954,4.7592,4.7396,4.6924,4.63,4.63,4.63,0.0,0.0,0.0,0.0,0.0,0.0,0.0,4.9032,5.1492,5.5162,5.9357,6.2647,6.6556,7.3927,7.7915,8.0732,8.3933,8.7095,8.9633,9.0296,9.2131,9.2834,8.9633,9.3107,9.6191,9.4669,9.6347,9.7909,9.7714,9.7714,9.7714,9.7714,9.7714,9.7714,9.7714,9.7714,9.7714,9.7714,9.8494,9.9275,9.9978,10.0212,10.0915,10.2203,10.1813,10.1813,10.2515,10.2711,10.2789,10.2789,10.2789,10.2789,10.2789,10.2789,10.2398,10.1696,10.0798,9.9548,9.8221,9.787,9.7714,9.7714,9.7714,9.7714,9.7714,9.7714,9.7714,9.7714,9.7714,9.7714,9.7714,0.0,0.0,0.0,0.0,0.0,0.0,0.0,0.0,3.5704,3.5704,3.5704,3.5704,3.5742,3.5802,0.0,0.0,3.8594,3.9336,4.1094,4.1599,4.1982,4.2396,4.3684,4.4777,4.5675,4.5675,4.6105,4.6963,4.7393,4.8252,4.9462,4.9462,4.9497,4.9536,5.0399,5.0282,4.9458,4.9926,4.9618,4.8759,4.8333,4.7904,4.7514,4.7514,4.7514,4.7514,4.7514,0.0,0.0,0.0,0.0,0.0,0.0,0.0,5.6142,5.808,6.2462,6.7932,7.3744,7.7759,8.1467,8.6158,8.8696,9.0218,9.1116,9.3263,9.4473,9.2248,9.4552,9.6738,9.584,9.6777,9.7714,9.7714,9.7714,9.7714,9.7714,9.7714,9.7714,9.7714,9.7714,9.7714,9.7714,9.8885,9.9822,10.029,10.0993,10.1891,10.2789,10.2398,10.2281,10.2789,10.2789,10.2789,10.2789,10.2789,10.2789,10.2789,10.2789,10.2086,10.0915,10.0095,9.8963,9.7714,9.7714,9.7714,9.7714,9.7714,9.7714,9.7714,9.7714,9.7714,9.7714,9.7714,9.7714,9.7714,0.0,0.0,0.0,0.0,0.0,0.0,0.0,0.0,0.0,3.5704,3.5704,3.5736,3.5805,3.5861,3.6641,0.0,0.0,0.0,4.1094,4.1205,4.1543,4.236,4.3099,4.3957,4.4972,4.5012,4.5441,4.63,4.63,4.7002,4.8372,4.8525,4.8599,4.8638,4.9661,5.0012,4.9887,5.0204,5.0243,5.0048,4.9306,4.8919,4.8802,4.8802,4.8802,4.8802,4.8802,4.8802,4.8685,4.8017,0.0,0.0,0.0,0.0,5.7629,5.5634,6.1338,6.864,7.0397,7.5813,8.2287,8.7603,8.9477,9.0257,9.1272,9.3263,9.4903,9.5059,9.6503,9.7714,9.7714,9.7714,9.7714,9.7714,9.7714,9.7714,9.7714,9.7714,9.7714,9.7714,9.7714,9.7714,9.7714,9.9158,10.0095,10.029,10.1696,10.2593,10.2789,10.2789,10.2789,10.2789,10.2789,10.2789,10.2789,10.2789,10.2789,10.2789,10.2515,10.1618,10.029,9.9236,9.8377,9.7714,9.7714,9.7714,9.7714,9.7714,9.7714,9.7714,9.7714,9.7714,9.7714,9.7714,9.7714,9.7714,0.0,0.0,0.0,0.0,0.0,0.0,0.0,0.0,0.0,0.0,3.5704,3.5724,3.5806,3.5859,3.6641,3.8437,3.8594,3.9336,4.1094,0.0,0.0,4.236,4.2516,4.3336,4.4976,4.5012,4.5441,4.63,4.63,4.6417,4.6651,4.7393,4.7744,4.7822,4.9387,4.97,4.9068,5.0594,5.0789,5.0087,4.9969,4.9462,4.8794,4.8794,4.8794,4.8794,4.8794,4.8794,4.8794,4.8677,4.9306,0.0,0.0,0.0,5.3643,5.4033,5.622,5.9651,6.4926,7.3549,8.2404,8.8344,8.9906,9.0413,9.1975,9.3185,9.42,9.4942,9.6503,9.7714,9.7714,9.7714,9.7714,9.7714,9.7714,9.7714,9.7714,9.7714,9.7714,9.7714,9.7714,9.7714,9.7714,9.8572,9.9509,10.0212,10.1188,10.2008,10.2789,10.2789,10.2789,10.2789,10.2789,10.2789,10.2789,10.2789,10.2789,10.2789,10.1305,10.0485,10.0212,9.8612,9.7792,9.7714,9.7714,9.7714,9.7714,9.7714,9.7714,9.7714,9.7714,9.7714,9.7714,9.7714,9.7714,9.7714,0.0,0.0,0.0,0.0,0.0,0.0,0.0,0.0,0.0,0.0,0.0,3.6728,3.7264,3.7383,3.793,3.9219,3.9336,3.9844,4.1133,4.1133,4.1289,4.1636,4.1665,4.2243,4.3531,4.4036,4.4699,4.5558,4.6066,4.63,4.63,4.669,4.6885,4.6924,4.8138,4.872,4.8873,5.0126,5.075,5.0828,5.0828,5.0594,5.0243,5.0243,5.0243,5.0243,5.0243,5.0243,5.0165,4.9692,5.0126,5.075,5.0243,0.0,0.0,0.0,5.524,5.8011,6.4458,7.3822,8.2365,8.5019,8.8227,9.1038,9.2248,9.3185,9.42,9.5567,9.6425,9.7128,9.7597,9.7714,9.7714,9.7714,9.7714,9.7714,9.7714,9.7714,9.7714,9.7714,9.7714,9.7714,9.7714,9.8494,9.9158,9.9548,10.0798,10.1696,10.2086,10.2515,10.2789,10.2789,10.2789,10.2789,10.2789,10.2789,10.2593,10.2086,10.0915,10.0017,9.9548,9.826,9.7714,9.7714,9.7714,9.7714,9.7714,9.7714,9.7714,9.7714,9.7714,9.7714,9.7714,9.7714,9.7714,9.7714,0.0,0.0,0.0,0.0,0.0,0.0,0.0,0.0,0.0,0.0,0.0,3.7786,3.8437,0.0,0.0,0.0,3.9883,4.0273,4.1133,4.1133,4.1133,4.1094,4.1084,4.1501,4.2399,4.3255,4.4114,4.5012,4.587,4.63,4.63,4.63,4.63,4.6339,4.7198,4.8057,4.8876,4.9735,5.0594,5.1414,5.1648,5.1726,5.1765,5.196,5.2078,5.2078,5.2078,5.2078,5.1921,5.1063,5.118,5.157,5.0711,5.1648,0.0,0.0,0.0,5.8324,6.477,7.2456,7.932,8.1936,8.5995,8.9867,9.2014,9.3185,9.4239,9.5769,9.623,9.666,9.7558,9.7714,9.7714,9.7714,9.7714,9.7714,9.7714,9.7714,9.7714,9.7714,9.7714,9.7714,9.7714,9.8299,9.8768,9.8963,10.0212,10.0993,10.1188,10.2008,10.2515,10.2515,10.2711,10.2789,10.2789,10.2789,10.2398,10.15,10.0681,9.9822,9.8963,9.8104,9.7714,9.7714,9.7714,9.7714,9.7714,9.7714,9.7714,9.7714,9.7714,9.7714,9.7714,9.7714,9.7714,9.7714,0.0,0.0,0.0,0.0,0.0,0.0,0.0,0.0,0.0,0.0,0.0,3.8437,3.8516,3.8555,3.8945,3.9805,3.9883,4.0273,4.1133,4.1211,4.1172,4.1094,4.1084,0.0,4.2399,4.3258,4.4117,4.5012,4.587,4.63,4.63,4.63,4.63,4.6339,4.7198,4.806,4.888,4.9735,5.0594,5.1453,5.2312,5.2624,5.2702,5.3565,5.3877,5.3877,5.3877,5.3877,5.3721,5.2858,5.2585,5.2468,5.1609,5.2546,5.3795,0.0,0.0,0.0,6.4223,6.7229,7.1173,8.0999,8.3653,8.541,9.1194,9.3185,9.4044,9.4981,9.5801,9.666,9.7558,9.7714,9.7714,9.7714,9.7714,9.7714,9.7714,9.7714,9.7714,9.7714,9.7714,9.7714,9.7714,9.7753,9.8104,9.8924,9.908,9.9509,10.029,10.111,10.1618,10.1618,10.2398,10.2789,10.2789,10.2789,10.2398,10.15,10.072,9.9822,9.8963,9.8104,9.7714,9.7714,9.7714,9.7714,9.7714,9.7714,9.7714,9.7714,9.7714,9.7714,9.7714,9.7714,9.7714,9.7714,0.0,0.0,0.0,0.0,0.0,0.0,0.0,0.0,0.0,0.0,0.0,0.0,0.0,4.0234,4.0391,4.0703,4.0742,4.0859,4.1172,4.1172,4.1133,4.1094,4.1084,4.1264,4.1579,4.2438,4.3294,4.4149,4.5051,4.5753,4.63,4.63,4.63,4.63,4.6612,4.7514,4.8802,4.915,5.0399,5.2507,5.5556,5.7157,5.7664,5.7977,5.8094,5.8094,5.8094,5.8484,5.9226,6.1104,6.0284,5.8215,5.6805,5.5244,5.4033,5.4303,5.5981,5.8324,6.0783,6.4687,6.9103,7.3393,7.7368,8.107,8.4356,8.7049,8.9587,9.2124,9.42,9.5996,9.744,9.7714,9.7714,9.7714,9.7714,9.7714,9.7714,9.7714,9.7714,9.7714,9.7714,9.7714,9.7714,9.7714,9.7831,9.8143,9.869,9.9158,9.9431,10.029,10.0681,10.0681,10.0993,10.1188,10.1188,10.1188,10.0798,9.99,9.9588,9.9002,9.8143,9.7831,9.7714,9.7714,9.7714,9.7714,9.7714,9.7714,9.7714,9.7714,9.7714,9.7714,9.7714,9.7714,9.7714,9.7714,0.0,0.0,0.0,3.9414,0.0,3.9883,3.9883,4.0117,4.0508,4.1094,0.0,0.0,0.0,0.0,4.1914,4.1641,4.1367,4.1172,4.1172,4.1133,4.1093,4.1091,4.1119,4.1108,4.1108,4.1657,4.2396,4.3255,4.4153,4.5012,4.587,4.6144,4.63,4.63,4.63,4.7237,4.8802,4.8798,5.0321,5.2975,5.6103,5.8089,5.929,6.0739,6.1642,6.231,6.3447,0.0,6.5468,6.7459,6.5624,6.2267,6.0514,5.7235,5.4229,5.54,5.6528,5.766,5.8792,6.2228,6.6136,6.8752,7.2612,7.6588,7.9476,8.3465,8.7173,8.9509,9.2944,9.5879,9.705,9.7518,9.7714,9.7714,9.7948,9.8026,9.7753,9.7714,9.7714,9.7714,9.7714,9.7714,9.7714,9.7714,9.7714,9.7714,9.8221,9.8572,9.8572,9.9392,10.0017,10.029,10.029,10.029,10.029,10.029,9.9861,9.9002,9.9002,9.8533,9.7714,9.7714,9.7714,9.7714,9.7714,9.7714,9.7714,9.7714,9.7714,9.7714,9.7714,9.7714,9.7714,9.7714,9.7714,9.7714,3.9805,3.9961,4.0234,4.1133,4.1914,4.2422,4.2422,4.3164,4.3711,4.3711,0.0,0.0,0.0,0.0,0.0,4.25,4.1719,4.125,4.1172,4.1133,4.113,4.115,4.1108,4.1108,4.1108,4.1108,4.154,4.2399,4.3255,4.4149,4.5012,4.587,4.63,4.63,4.63,4.7237,4.8802,4.8837,5.036,5.2819,5.3986,5.5499,5.7467,6.1771,6.4481,6.6375,6.9659,7.1407,0.0,7.1299,6.8177,6.4197,6.2189,5.8094,5.4385,5.6059,5.6567,5.6957,0.0,0.0,0.0,6.7698,6.9845,7.1836,7.7073,8.2779,8.7029,8.7368,9.2092,9.623,9.6386,9.7128,9.7714,9.7714,9.8416,9.869,9.7831,9.7714,9.7714,9.7714,9.7714,9.7714,9.7714,9.7714,9.7714,9.7714,9.7714,9.7714,9.7714,9.8494,9.9353,10.0212,10.0212,10.0212,10.0212,10.0212,9.9783,9.8963,9.8963,9.8533,9.7714,9.7714,9.7714,9.7714,9.7714,9.7714,9.7714,9.7714,9.7714,9.7714,9.7714,9.7714,9.7714,9.7714,9.7714,9.7714,4.1562,4.1719,4.1992,4.2851,4.3203,4.3359,4.3359,4.3555,4.3711,0.0,0.0,0.0,4.3711,4.3711,4.3594,4.3359,4.3125,4.3008,4.2969,4.2378,4.2056,4.2048,4.1423,4.1108,4.1108,4.1108,4.154,4.2402,4.3258,4.4153,4.5012,4.587,4.63,4.63,4.63,4.7237,4.8841,4.9462,5.1258,5.4307,6.2041,6.5824,6.7268,7.1563,7.351,7.3972,0.0,7.4942,7.6113,0.0,7.5443,6.8489,6.0505,5.7035,5.5864,5.5708,5.6098,5.684,5.7894,0.0,0.0,0.0,0.0,0.0,7.3247,7.5511,7.8551,8.6666,8.9665,9.1975,9.5723,9.7636,9.8416,9.7792,9.8416,9.869,9.7831,9.8221,9.8416,9.7753,9.7714,9.7714,9.7714,9.7714,9.7714,9.7714,9.7714,9.7714,9.7714,9.7948,9.8182,9.8416,9.8416,9.8416,9.8416,9.8416,9.8299,9.8065,9.8065,9.7948,9.7714,9.7714,9.7714,9.7714,9.7714,9.7714,9.7714,9.7714,9.7714,9.7714,9.7714,9.7714,9.7714,9.7714,9.7714,9.7714,4.2305,4.2695,4.3086,4.3594,4.3984,4.4258,4.4258,4.4531,4.4766,0.0,0.0,0.0,4.4766,4.4453,4.4258,4.4258,4.3906,4.371,4.3706,4.3225,4.2786,4.2438,4.1892,4.1462,4.1108,4.0756,4.0994,4.1852,4.2711,4.3609,4.4465,4.5714,4.63,4.63,4.669,4.7553,4.8919,5.0516,5.3522,5.7625,6.2193,0.0,6.945,7.3041,7.5104,0.0,0.0,0.0,8.1779,8.4284,8.0693,7.3231,6.1798,5.9183,5.989,5.7582,5.6996,5.7348,5.8558,5.8987,5.9534,6.1252,0.0,0.0,6.8557,7.0816,7.4441,8.3158,8.5221,8.7088,9.2241,9.2834,9.3068,9.4747,9.5449,9.623,9.7518,9.8143,9.8416,9.826,9.7909,9.7831,9.8221,9.7909,9.7714,9.7714,9.7714,9.7714,9.7714,9.7714,9.7714,9.7714,9.7714,9.7714,9.7714,9.7714,9.7714,9.7714,9.7714,9.7714,9.7714,9.7714,9.7714,9.7714,9.7714,9.7714,9.7714,9.7714,9.7714,9.7714,9.7714,9.7714,9.7714,9.7714,9.7714,9.7714,0.0,4.332,4.3867,4.3984,4.4648,4.5156,4.5156,4.5781,4.6328,0.0,4.6523,4.6601,4.6601,4.5898,4.5429,4.5429,4.4648,4.4137,4.4114,4.3954,4.3489,4.2711,4.2594,4.2126,4.1264,4.0483,4.0405,4.1108,4.2087,4.2942,4.372,4.548,4.63,4.6339,4.7198,4.8099,4.9114,5.1609,5.6298,6.1764,5.9183,6.2139,0.0,0.0,7.3654,7.6471,8.2606,8.5807,8.6984,8.6236,8.3242,0.0,6.5194,6.3321,6.497,6.0983,5.887,5.8168,5.9812,5.9694,5.9495,6.1134,6.2228,0.0,6.457,6.8033,7.2594,7.8245,7.9795,8.1695,8.6776,8.5332,8.4902,8.9548,9.0765,9.2561,9.6542,9.7128,9.7401,9.8182,9.7597,9.7636,9.8885,9.8221,9.7753,9.7831,9.7753,9.7714,9.7714,9.7714,9.7714,9.7714,9.7714,9.7714,9.7714,9.7714,9.7714,9.7714,9.7714,9.7714,9.7714,9.7714,9.7714,9.7714,9.7714,9.7714,9.7714,9.7714,9.7714,9.7714,9.7714,9.7714,9.7714,9.7714,9.7714,9.7714,4.4336,4.4648,4.4961,4.5664,4.5937,4.6055,4.6055,4.6172,4.6562,4.7266,4.7969,4.8398,4.8398,4.8236,4.8147,4.8147,4.7327,4.6856,4.6846,4.5519,4.466,4.4504,4.3805,4.3024,4.2165,4.197,4.1618,4.1108,4.2672,4.3531,4.372,4.548,4.63,4.6339,4.7198,4.8447,4.9969,5.1882,5.7001,6.4028,6.6823,7.124,7.6566,8.0548,8.2344,8.2957,8.4323,8.5026,8.4473,7.8884,7.8663,7.9109,6.9595,6.6589,6.6253,6.477,6.1213,5.8046,5.9065,5.9222,5.9334,6.0388,6.133,0.0,6.7425,6.6522,6.718,7.5824,7.6119,7.6191,8.0621,8.2032,8.2885,8.3894,8.7525,9.1038,9.3224,9.3497,9.3576,9.3732,9.3615,9.4942,9.8651,9.8221,9.7987,9.869,9.8104,9.7714,9.7714,9.7714,9.7714,9.7714,9.7714,9.7714,9.7714,9.7714,9.7714,9.7714,9.7714,9.7714,9.7714,9.7714,9.7714,9.7714,9.7714,9.7714,9.7714,9.7714,9.7714,9.7714,9.7714,9.7714,9.7714,9.7714,9.7714,9.7714,4.4922,4.5351,4.5781,4.6211,4.6289,4.6445,4.6875,4.6953,4.7265,4.8118,4.8977,4.968,5.0109,5.0136,5.0165,5.0165,4.9345,4.8837,4.8841,4.7237,4.6105,4.5675,4.4816,4.3957,4.306,4.3063,4.2829,4.2399,4.3726,4.4351,4.4383,4.5675,4.6534,4.6963,4.7826,4.915,5.1023,5.5361,6.1417,6.8093,6.7676,0.0,7.6834,8.0269,8.2143,8.3146,8.4824,8.5995,8.5956,8.0719,8.0425,8.1022,7.4122,7.0486,6.8507,6.7224,6.3477,5.9841,6.028,6.008,5.9959,6.0817,6.1369,0.0,0.0,6.4531,6.5077,7.2388,7.1206,7.0264,7.5004,7.4848,7.4965,7.7966,8.0263,8.2411,8.4519,9.0765,9.5098,9.5098,9.5098,9.5957,9.8143,9.7948,9.787,9.8338,9.8338,9.8143,9.7714,9.7714,9.7714,9.7714,9.7714,9.7714,9.7714,9.7714,9.7714,9.7714,9.7714,9.7714,9.7714,9.7714,9.7714,9.7714,9.7714,9.7714,9.7714,9.7714,9.7714,9.7714,9.7714,9.7714,9.7714,9.7714,9.7714,9.7714,4.5234,4.582,4.6289,4.6289,4.6445,4.6796,4.7499,4.7889,4.851,4.9739,5.0434,5.1492,5.321,5.2507,5.2234,5.3053,5.157,5.0594,5.0598,4.9036,4.7783,4.7042,4.6066,4.509,4.4227,4.4036,4.3883,4.3687,4.4585,4.5015,4.5012,4.587,4.6768,4.7631,4.8607,5.0559,5.3526,5.9616,6.6102,7.1958,0.0,7.0753,7.6354,7.9437,8.0804,8.1467,8.5058,8.7368,8.8227,8.5058,8.4447,8.4023,7.854,7.4662,7.1696,6.9294,6.5312,6.1759,6.192,6.1174,6.0622,6.1486,6.172,6.1876,0.0,0.0,0.0,6.8127,6.6331,6.5312,6.9494,6.7581,6.68,7.1173,7.2539,7.3588,7.5149,8.6275,9.4122,9.3771,9.3888,9.4552,9.6074,9.7558,9.8221,9.7753,9.8807,9.8963,9.7753,9.7714,9.7714,9.7714,9.7714,9.7714,9.7714,9.7714,9.7714,9.7714,9.7714,9.7714,9.7714,9.7714,9.7714,9.7714,9.7714,9.7714,9.7714,9.7714,9.7714,9.7714,9.7714,9.7714,9.7714,9.7714,9.7714,9.7714,4.6132,4.6211,4.6289,4.6289,4.6946,4.7478,4.7595,4.8844,5.0676,5.3096,5.3483,5.5357,6.0007,5.645,5.524,5.907,5.5083,5.2386,5.239,5.0789,4.9774,4.9661,4.8138,4.6885,4.6027,4.5246,4.4465,4.3681,4.4582,4.5012,4.5012,4.587,4.6768,4.767,4.9267,5.3448,5.9581,6.2705,6.7537,7.3413,7.6653,7.9353,8.1942,8.6822,8.5488,8.1545,8.5761,8.7876,8.8416,8.6464,8.7876,8.9249,8.2539,7.9092,7.6581,7.1792,6.6249,6.1876,6.2657,6.1642,6.0622,6.1486,6.172,6.172,6.1837,0.0,6.1993,6.2618,0.0,6.3321,6.3906,0.0,0.0,6.2267,6.7693,7.1441,6.9411,7.6399,8.1161,7.9639,8.0107,8.3308,9.0218,9.705,10.0095,9.787,9.9861,10.0212,9.7831,9.7714,9.7714,9.7714,9.7714,9.7714,9.7714,9.7714,9.7714,9.7714,9.7714,9.7714,9.7714,9.7714,9.7714,9.7714,9.7714,9.7714,9.7714,9.7714,9.7714,9.7714,9.7714,9.7714,9.7714,9.7714,9.7714,9.7714,4.6395,4.6319,4.6475,4.6983,4.7364,4.8099,4.9579,5.1687,5.3678,5.5318,5.5899,5.7812,6.1998,5.9173,5.929,6.5126,6.1373,5.9733,0.0,5.7938,5.622,5.8254,5.2355,4.9579,5.0757,4.7982,4.6066,4.5207,4.5597,4.5753,4.5753,4.6144,4.7002,4.849,5.2706,5.7313,6.2393,6.9996,7.4122,7.6028,8.1812,8.2794,8.1155,8.433,8.4564,8.377,8.811,8.9906,9.0179,8.9906,8.9782,8.9469,8.7564,8.2684,7.7224,7.5043,6.9767,6.5077,6.6956,6.6917,6.6331,6.6214,6.6175,6.5394,6.2384,6.172,6.172,6.172,0.0,0.0,0.0,0.0,0.0,0.0,6.4653,6.6566,6.5975,6.8708,7.2534,7.7296,7.9053,8.2567,8.932,9.2014,9.3693,9.4591,9.6152,9.6347,9.4786,9.6582,9.7714,9.7714,9.7714,9.7714,9.7714,9.7714,9.7714,9.7714,9.7714,9.7714,9.7714,9.7714,9.7714,9.7714,9.7714,9.7714,9.7714,9.7714,9.7689,9.7701,9.7682,9.7714,9.7682,9.7715,9.7684,9.7684,4.7081,4.6807,4.6846,4.7474,4.7978,4.9228,5.2038,5.4264,5.6138,5.7465,5.7929,6.0037,6.4926,6.1666,6.2368,7.0436,6.6371,6.5077,0.0,0.0,6.172,6.5208,5.7387,5.36,5.5013,5.1538,4.8724,4.6651,4.6417,4.63,4.63,4.6534,4.7435,4.9036,5.4112,5.9499,6.5351,7.42,7.8728,8.0407,8.5885,8.5456,8.1584,8.2578,8.4056,8.6034,8.9906,9.0999,9.0843,9.26,9.1968,9.0516,9.0836,8.6041,8.0002,7.8596,7.4457,7.0743,7.2661,7.1953,7.0933,7.1987,7.0119,6.7347,6.4765,6.3086,6.1993,6.1759,6.172,0.0,0.0,0.0,6.1252,6.0939,0.0,6.192,6.1837,6.2423,6.578,7.3627,7.6906,8.042,8.5299,8.6549,8.7876,8.9867,9.1741,9.2678,9.2522,9.4903,9.6816,9.8026,9.7831,9.7714,9.7714,9.7714,9.7714,9.7714,9.7714,9.7714,9.7714,9.7714,9.7714,9.7714,9.7714,9.7714,9.7714,9.7714,9.7689,9.7706,9.7689,9.7714,9.7682,9.7691,9.7695,9.7695,4.8568,4.8099,4.7553,4.7592,4.8954,5.118,5.465,5.5942,5.7465,5.9959,5.9568,6.2306,7.0787,6.4169,6.3539,7.4613,0.0,6.5712,6.9159,0.0,6.4398,6.782,6.2881,5.9324,5.7707,5.595,5.2593,4.7553,4.669,4.63,4.63,4.7159,4.7982,4.8919,5.1652,5.8939,6.9387,7.2275,7.876,8.7244,8.9144,8.8318,8.58,8.5038,8.5813,8.7674,9.0335,9.0218,8.9437,9.3615,9.4949,9.4317,9.1062,8.9235,8.7368,8.2339,8.0119,7.9304,7.9382,7.5143,7.2119,7.7902,7.1864,6.5512,6.9494,6.6566,6.2735,6.1876,6.172,6.1447,6.0583,6.0427,5.9373,5.6094,5.7616,0.0,0.0,5.7699,6.0627,6.4297,6.9215,7.3041,7.4915,8.1786,8.5495,8.3894,8.772,9.0804,9.2404,9.26,9.4591,9.8846,9.8143,9.7714,9.7714,9.7714,9.7714,9.7714,9.7714,9.7714,9.7714,9.7714,9.7714,9.7714,9.7714,9.7714,9.7714,9.7714,9.7714,9.7714,9.7714,9.7714,9.7682,9.7691,9.7695,9.7695,4.888,4.9032,4.9267,4.9267,5.0204,5.2156,5.563,5.7343,5.9607,0.0,6.4062,0.0,0.0,7.0381,7.1006,0.0,0.0,7.4474,7.8461,7.4708,0.0,0.0,0.0,6.5022,0.0,5.8714,5.4154,4.8372,4.8099,4.7943,4.7943,4.8255,4.8841,4.9891,5.5361,6.2427,7.066,7.6705,8.1734,8.5761,8.6939,8.6197,8.4863,8.9125,8.9711,8.8735,9.2489,9.3426,9.3146,9.463,9.5879,9.6432,9.4083,9.2007,8.986,8.6932,8.3894,8.1903,8.4167,8.3302,8.2085,8.3588,7.8741,7.3264,7.1875,6.7581,6.3594,6.2735,6.2579,6.3164,6.5121,6.3169,6.1607,6.274,6.1256,5.9456,0.0,5.8558,5.9534,6.0705,0.0,0.0,0.0,0.0,7.6477,7.9873,8.1474,8.405,8.8032,9.0452,9.3693,9.7987,9.7831,9.7714,9.7714,9.7714,9.7714,9.7714,9.7714,9.7714,9.7714,9.7714,9.7689,9.7706,9.7706,9.7695,9.7714,9.7714,9.7714,9.7721,9.7719,9.7689,9.7689,9.7695,9.7695,9.7695,4.9813,5.0165,5.0477,5.0165,5.1609,5.4147,5.8246,6.0315,6.2618,0.0,6.7732,0.0,7.4843,0.0,7.5378,0.0,7.9756,7.9633,8.4558,8.0296,0.0,8.2657,7.6549,0.0,0.0,6.3828,5.8527,5.2472,5.0324,4.9111,4.8798,4.9111,4.9735,5.0789,5.6181,6.2393,6.9303,7.6197,8.025,8.2163,8.3341,8.4434,8.5878,9.0648,9.0492,8.8455,9.37,9.4949,9.431,9.5254,9.6308,9.7057,9.5918,9.4434,9.2905,9.1773,8.9469,8.7791,9.0016,8.9274,8.8181,8.945,8.4714,7.947,7.8206,7.3715,6.9611,6.9064,6.6995,6.5941,6.8166,6.457,6.1949,6.4184,6.1686,5.9187,0.0,5.8207,5.8324,0.0,0.0,0.0,0.0,0.0,7.0348,7.4876,7.5774,7.9053,8.5729,8.8227,9.2131,9.7987,9.787,9.7714,9.7714,9.7714,9.7714,9.7714,9.7714,9.7714,9.7714,9.7714,9.7689,9.7706,9.7684,9.7684,9.7711,9.7711,9.7711,9.7711,9.7693,9.7695,9.7695,9.7695,9.7695,9.7695,5.1531,5.157,5.1336,5.0555,5.3327,5.7387,6.2427,6.4614,6.6371,0.0,7.0576,7.2795,7.4552,7.42,7.6744,8.4089,8.1005,8.1083,8.6828,8.1903,0.0,0.0,8.2131,7.8657,7.5801,0.0,0.0,5.9152,5.3171,4.9809,4.9029,4.9848,5.0672,5.1648,5.4229,5.9148,6.5907,7.0961,7.4818,7.7706,7.9626,8.377,8.8891,8.9919,8.8696,8.7315,9.4037,9.4864,9.3139,9.5645,9.6464,9.6464,9.6464,9.6425,9.6425,9.6472,9.6425,9.6425,9.6464,9.2834,9.0257,9.5222,8.9469,8.3685,8.7777,8.4107,7.9806,7.9733,7.4496,6.9962,7.0123,6.5061,6.0906,6.1052,5.9222,5.7543,5.6762,5.6645,5.6879,0.0,0.0,0.0,0.0,0.0,0.0,6.9137,7.0855,7.5852,8.5143,8.5846,8.9867,9.8338,9.7909,9.7518,9.7518,9.7518,9.7518,9.7518,9.7636,9.7714,9.7714,9.7714,9.7714,9.7682,9.7691,9.7695,9.7695,9.7695,9.7695,9.7695,9.7695,9.7695,9.7695,9.7695,9.7695,9.7695,5.3331,5.3834,5.442,5.4849,5.8324,6.2115,6.5316,6.6751,6.8775,0.0,7.3432,7.4993,7.8032,7.9867,8.1662,8.3653,8.2833,0.0,0.0,0.0,0.0,8.4161,8.4362,8.1467,7.5052,7.1078,6.6126,6.0085,5.4658,5.1921,5.1687,5.1921,5.2507,5.3409,5.5396,6.0046,6.6644,6.9294,7.5584,8.414,8.8474,8.9958,9.0036,9.3465,9.3146,9.1421,9.5801,9.6933,9.6464,9.7128,9.7362,9.7362,9.7362,9.6933,9.6542,9.7167,9.6894,9.6542,9.7206,9.5918,9.4903,9.6855,9.217,8.7362,8.8461,8.5019,8.1265,7.9984,7.8305,7.7843,8.0397,7.332,6.7927,7.0509,6.356,5.7738,5.7504,0.0,0.0,5.6879,0.0,0.0,0.0,0.0,0.0,0.0,6.8474,7.2104,7.9053,8.2411,8.6978,9.3068,9.4278,9.4786,9.4786,9.4786,9.4786,9.4825,9.6777,9.7714,9.7714,9.7714,9.7701,9.7691,9.7695,9.7695,9.7695,9.7695,9.7695,9.7695,9.7695,9.7695,9.7695,9.7695,9.7695,9.7695,5.5201,5.5825,5.6918,5.8558,6.2388,6.598,6.8156,7.1468,7.4864,7.7999,7.9416,0.0,8.2332,8.4122,8.5215,8.5182,8.487,0.0,8.6822,0.0,0.0,8.6314,8.6549,8.448,7.9743,7.5879,0.0,6.5477,6.028,5.661,5.4385,5.4385,5.4853,5.5708,5.7074,6.0471,6.5434,6.9767,7.6131,8.3666,8.7687,8.9561,0.0,9.3107,9.4434,9.502,9.7011,9.7714,9.7714,9.7714,9.7714,9.7714,9.7714,9.7362,9.705,9.7558,9.7362,9.7089,9.7558,9.7323,9.7089,9.7597,9.5137,9.2717,9.31,9.0758,8.8291,8.7674,8.5168,8.377,8.6092,7.7765,7.0186,6.9142,6.3638,5.9222,0.0,0.0,0.0,0.0,5.887,0.0,0.0,0.0,0.0,0.0,6.7615,7.1402,0.0,8.0576,8.4362,9.1077,9.3302,9.3458,9.1585,9.4942,9.5684,9.381,9.6464,9.7714,9.7714,9.7706,9.7687,9.7695,9.7344,9.7187,9.7187,9.7187,9.6953,9.664,9.7031,9.7383,9.7695,9.7695,9.7695,9.7695,5.7426,5.7933,5.9183,6.1486,6.5512,6.9059,7.0915,7.6503,8.12,8.3242,8.5473,8.66,8.5846,8.6861,8.7525,8.7414,8.6828,8.7681,9.0609,8.8188,8.7525,8.9555,8.8305,8.7173,8.6275,8.1936,7.7218,7.2154,6.6883,6.1725,5.6766,5.6766,5.7196,5.8011,5.8983,6.1291,6.4843,7.2232,7.7492,8.1148,8.4044,8.7479,9.0914,9.1812,9.4434,9.7714,9.7714,9.7714,9.7714,9.7714,9.7714,9.7714,9.7714,9.7714,9.7714,9.7714,9.7714,9.7714,9.7831,9.7792,9.7745,9.7831,9.787,9.8026,9.869,9.7753,9.694,9.7558,9.2827,8.8767,8.943,8.0407,7.072,6.4258,6.2462,0.0,0.0,0.0,0.0,0.0,0.0,0.0,0.0,0.0,0.0,0.0,6.7264,7.1519,0.0,0.0,8.1669,8.9516,9.2561,9.2482,8.9086,9.5957,9.7675,9.4168,9.6556,9.7689,9.7689,9.7691,9.7656,9.75,9.6914,9.6523,9.6328,9.6445,9.5976,9.5312,9.6289,9.7031,9.7578,9.7656,9.7617,9.7578,6.0822,6.1486,6.2228,6.2696,6.6917,7.1056,7.3476,7.6086,7.9164,8.299,8.388,8.4115,8.3965,8.6659,8.8188,8.7446,8.7915,8.8188,8.8071,8.8852,8.8891,8.7915,8.8266,8.8071,8.7173,8.2248,7.7518,7.3068,6.7185,6.1993,5.7577,5.7577,5.8046,5.8944,6.0544,6.5077,7.1875,7.7464,8.2651,8.751,9.2248,9.4591,9.5371,9.6269,9.705,9.7714,9.7714,9.7714,9.7714,9.7714,9.7714,9.7714,9.7714,9.7714,9.7714,9.7714,9.7714,9.787,9.8572,9.826,9.787,9.8572,9.8768,9.8612,9.8065,9.826,9.8377,9.7831,9.6152,9.4669,9.4083,8.4837,7.5975,7.1914,6.6488,0.0,0.0,0.0,0.0,0.0,0.0,6.5858,0.0,0.0,0.0,0.0,0.0,0.0,0.0,0.0,7.7921,8.163,8.6314,8.9405,9.085,9.3622,9.5346,9.5971,9.714,9.7693,9.7693,9.7695,9.7344,9.6758,9.7265,9.6719,9.5469,9.6211,9.5976,9.5351,9.6875,9.7187,9.6797,9.7461,9.7265,9.6797,6.3711,6.3711,6.3945,6.4804,6.8518,7.27,7.6605,7.9795,8.299,8.6425,8.7635,8.8181,8.8181,8.9281,8.9711,8.8813,8.9125,8.9398,8.9437,8.9789,8.9828,8.9437,8.9398,8.8969,8.811,8.6073,8.1617,7.4584,7.2143,6.7581,6.1174,6.1174,6.1408,6.1954,6.5936,6.9806,7.3833,8.2143,8.6822,8.9196,9.4825,9.6816,9.6503,9.7362,9.7714,9.7714,9.7714,9.7714,9.7714,9.7714,9.7714,9.7714,9.7714,9.7714,9.7714,9.7714,9.7714,9.7792,9.8221,9.8026,9.7909,9.8768,9.8651,9.8455,9.8924,9.9002,9.9002,9.9041,9.8377,9.666,9.3107,8.8774,8.3861,7.8206,0.0,0.0,0.0,0.0,0.0,0.0,0.0,0.0,0.0,0.0,0.0,0.0,0.0,0.0,0.0,7.2768,7.5969,8.2137,8.608,8.8039,8.7915,9.4122,9.5847,9.312,9.6207,9.7695,9.7695,9.7695,9.75,9.7109,9.6601,9.6211,9.5859,9.5351,9.5429,9.5859,9.5781,9.6054,9.6484,9.6445,9.6445,9.6601,6.8713,6.8323,6.8205,6.9338,7.1953,7.5472,8.008,8.3972,8.7329,8.9945,9.1585,9.2443,9.2248,9.1819,9.1194,9.0335,9.0413,9.0765,9.1272,9.0804,9.0843,9.1546,9.0726,9.014,8.9789,8.9945,8.5956,7.7713,7.7302,7.2817,6.457,6.5707,6.6917,6.8323,7.3091,7.5941,7.7693,8.6347,9.0328,9.1304,9.5879,9.7401,9.7011,9.7714,9.8104,9.826,9.826,9.826,9.826,9.826,9.8026,9.7714,9.7714,9.7714,9.7714,9.7714,9.7714,9.7714,9.7714,9.7714,9.787,9.8533,9.8338,9.8338,9.9705,9.9509,9.9236,10.0095,9.9627,9.7597,9.3029,9.2085,8.9743,8.2924,7.8278,0.0,0.0,0.0,0.0,0.0,0.0,0.0,7.0152,0.0,0.0,0.0,0.0,0.0,7.4173,7.1909,7.4525,8.3426,8.5729,8.6516,8.5897,9.4409,9.6484,9.2239,9.5935,9.7695,9.7695,9.7695,9.7617,9.7383,9.6054,9.5664,9.5859,9.4453,9.4609,9.5586,9.457,9.4883,9.5898,9.5586,9.5664,9.6094,7.8952,7.9499,7.9226,7.8601,7.9416,8.1089,8.3887,8.5995,8.822,9.0843,9.1936,9.2209,9.1507,9.2014,9.2053,9.1233,9.1858,9.1975,9.135,9.1897,9.2287,9.2365,9.1624,9.1858,9.3302,9.1155,8.8032,8.3965,7.9332,7.3091,6.5507,7.0236,7.5394,8.0631,8.1217,8.4492,8.9626,8.9899,9.31,9.8026,9.7792,9.8104,9.8768,9.8846,9.9353,10.0095,10.0095,10.0095,10.0095,10.0095,9.9002,9.7714,9.7714,9.7714,9.7714,9.7714,9.7714,9.7714,9.7714,9.7714,9.7714,9.7792,9.8338,9.8924,9.908,9.908,9.9228,10.0095,9.9627,9.908,9.9275,9.4349,8.8955,8.5075,7.8916,7.3192,0.0,0.0,7.999,7.3783,0.0,0.0,0.0,6.7224,0.0,0.0,6.5546,0.0,0.0,7.1324,7.2807,7.9951,8.0413,8.3437,8.9439,9.2067,9.535,9.9335,9.8203,9.7695,9.7695,9.7695,9.7304,9.6601,9.6445,9.5547,9.414,9.3984,9.3515,9.3125,9.4531,9.4687,9.4336,9.582,9.5429,9.4375,8.1506,8.1903,8.163,8.1942,8.4011,8.6158,8.7674,9.025,9.2209,9.2717,9.2639,9.217,9.1389,9.2014,9.2365,9.2053,9.2326,9.2365,9.2053,9.2326,9.2482,9.2482,9.2678,9.2873,9.3029,9.2522,9.0062,8.5566,8.1467,7.7843,7.4809,7.4818,7.7464,8.2443,8.608,8.8735,9.0719,9.3998,9.6503,9.8182,9.7831,9.8221,9.9002,9.9002,9.9548,10.029,10.029,10.029,10.029,10.029,9.9822,9.9275,9.9275,9.9275,9.9158,9.8612,9.8494,9.8377,9.7831,9.7714,9.7714,9.7714,9.7948,9.8377,9.8885,9.9002,9.9236,10.0095,10.0017,9.99,10.0212,9.8455,9.5247,9.0243,8.7088,8.2528,7.4608,0.0,0.0,7.5071,0.0,8.0029,0.0,0.0,0.0,0.0,0.0,0.0,0.0,0.0,7.6404,8.3315,8.3588,8.6912,9.3751,9.3004,9.3906,9.6484,9.7304,9.7695,9.7695,9.7187,9.6211,9.4961,9.5508,9.4726,9.3164,9.3672,9.3672,9.3398,9.3554,9.375,9.3906,9.4101,9.4062,9.3984,8.6132,8.6529,8.6308,8.6815,8.9157,9.107,9.1421,9.3771,9.5176,9.4278,9.3654,9.2834,9.178,9.217,9.2482,9.2482,9.2482,9.2482,9.2482,9.2482,9.26,9.2873,9.3458,9.3615,9.3263,9.3888,9.2404,8.8728,8.5058,8.2723,8.1686,7.9733,8.1831,8.7386,9.1655,9.3217,9.2905,9.6925,9.8416,9.8065,9.7792,9.8377,9.9392,9.9392,10.0095,10.0993,10.0993,10.0993,10.0993,10.0993,10.0993,10.0915,10.0485,10.029,10.0212,9.9548,9.9392,9.9197,9.8299,9.8065,9.8026,9.7753,9.7714,9.787,9.8494,9.8612,9.8885,9.9744,10.0095,10.0212,9.997,10.0603,9.9236,9.3451,9.2294,8.8708,7.8864,8.4408,0.0,7.6477,7.9366,8.1435,7.9717,7.3432,0.0,0.0,0.0,0.0,0.0,0.0,0.0,8.4028,8.3555,8.66,9.3693,9.1986,9.2422,9.5039,9.6836,9.7578,9.7304,9.6484,9.5469,9.4297,9.4648,9.3984,9.2656,9.3242,9.3515,9.3476,9.2851,9.2969,9.3476,9.3125,9.3203,9.3594,9.5172,9.6038,9.5957,9.5098,9.5723,9.6035,9.5176,9.5801,9.6074,9.5222,9.5066,9.4395,9.2678,9.2482,9.2482,9.2482,9.2482,9.2482,9.2482,9.2482,9.2873,9.3732,9.3771,9.42,9.5059,9.5098,9.5059,9.4988,9.0687,8.6822,8.3516,8.5176,9.0562,9.8807,9.8885,9.8885,9.8838,9.8065,9.8221,9.8924,9.8065,9.8729,10.029,10.029,10.1305,10.2789,10.2789,10.2789,10.2789,10.2789,10.2789,10.2515,10.0798,10.029,10.029,10.029,10.029,10.0095,9.9236,9.8963,9.8768,9.7909,9.7714,9.7714,9.7714,9.7714,9.7948,9.8846,9.9705,10.0017,9.915,9.9736,9.8604,9.3334,9.1832,8.8279,7.9593,8.5813,8.7726,7.8194,8.163,8.4089,8.2411,7.8272,0.0,0.0,0.0,0.0,0.0,0.0,0.0,7.9594,7.7352,7.9723,8.742,8.7534,9.0976,9.7656,9.7695,9.7265,9.6484,9.5625,9.5195,9.5156,9.4297,9.3437,9.2617,9.2617,9.2617,9.2617,9.2617,9.2617,9.2734,9.3554,9.3359,9.2851,9.5593,9.6485,9.6542,9.6582,9.6816,9.6972,9.6894,9.6582,9.6308,9.6035,9.5996,9.5762,9.5215,9.463,9.4278,9.4278,9.4278,9.4278,9.4278,9.4278,9.4395,9.4676,9.5261,9.5684,9.5996,9.5996,9.5996,9.5996,9.1694,8.9313,8.8891,9.2365,9.5488,9.8143,9.8729,9.8651,9.8143,9.8455,9.8416,9.8143,9.8455,9.9588,10.1196,10.1813,10.3101,10.4506,10.3882,10.3687,10.3608,10.2984,10.2789,10.2711,10.2203,10.2008,10.1891,10.1305,10.111,10.0915,10.0095,9.9431,9.8924,9.8651,9.8143,9.7714,9.7714,9.7714,9.7948,9.8807,9.9236,9.9509,9.9822,9.9627,9.8104,9.4037,9.5176,9.3732,8.5676,8.8891,8.9685,8.3113,8.3269,8.4636,8.6471,8.2762,8.0146,0.0,0.0,0.0,0.0,0.0,0.0,8.6576,8.7099,8.9879,9.527,9.2421,9.3242,9.7695,9.7695,9.6953,9.5586,9.4726,9.3984,9.3398,9.3125,9.2851,9.2617,9.2617,9.2617,9.2617,9.2617,9.2617,9.2617,9.289,9.2851,9.2773,9.6038,9.6701,9.6934,9.7518,9.7616,9.7783,9.8322,9.7909,9.7597,9.7714,9.7714,9.7753,9.787,9.7362,9.6777,9.6113,9.6074,9.5918,9.5606,9.5606,9.5449,9.5098,9.5918,9.6386,9.6386,9.6738,9.6894,9.6894,9.4193,9.3178,9.3763,9.6464,9.7714,9.7714,9.826,9.8221,9.7753,9.826,9.8377,9.8221,9.8768,10.0017,10.1578,10.2086,10.3218,10.4389,10.3804,10.3608,10.3491,10.2984,10.2789,10.2789,10.2789,10.2789,10.2711,10.2086,10.2008,10.1813,10.0993,10.0407,9.9783,9.9158,9.8572,9.8104,9.7753,9.7714,9.7831,9.8416,9.8768,9.908,9.9275,9.9392,9.8651,9.6145,9.7589,9.6847,9.0672,9.2756,9.2645,8.651,8.6431,8.7603,8.9477,8.7251,8.5534,8.5221,0.0,0.0,0.0,0.0,8.6123,8.8505,8.9959,9.2578,9.6562,9.3945,9.4336,9.7695,9.7383,9.6719,9.5664,9.4453,9.3594,9.3086,9.2734,9.2617,9.2617,9.2617,9.2617,9.2617,9.2617,9.2617,9.2617,9.2617,9.2617,9.2734,9.6749,9.6942,9.7364,9.8133,9.825,9.8521,9.9358,9.9553,9.9709,9.9944,10.0079,10.029,10.0485,10.0603,9.9978,9.8338,9.8026,9.7558,9.6738,9.666,9.6269,9.541,9.6152,9.6542,9.6503,9.7284,9.7714,9.7714,9.7714,9.7714,9.7714,9.7714,9.7714,9.7714,9.7714,9.7714,9.7714,9.7753,9.826,9.9002,9.9119,10.0095,10.1618,10.1688,10.2195,10.3015,10.2898,10.2898,10.2906,10.2789,10.2789,10.2789,10.2789,10.2789,10.2789,10.2789,10.2789,10.2593,10.1813,10.15,10.111,9.947,9.9002,9.869,9.787,9.7714,9.7714,9.7792,9.8455,9.8768,9.8026,9.9158,9.9939,9.9197,9.9041,9.7784,9.4388,9.6613,9.5988,8.8774,9.0648,9.2326,9.1897,9.1819,9.135,9.0257,8.8305,8.8305,9.0889,8.9275,8.7885,8.6953,8.7773,8.9726,9.2851,9.2929,9.4531,9.7617,9.6797,9.6367,9.625,9.457,9.3828,9.375,9.2969,9.2617,9.2617,9.2617,9.2617,9.2617,9.2617,9.2617,9.2617,9.2617,9.2617,9.2734,9.8249,9.8363,9.848,9.8827,9.8865,9.9056,9.9442,10.0093,10.0595,10.0929,10.1989,10.2789,10.2906,10.3687,10.3882,10.3296,10.111,9.9588,9.9392,9.9392,9.9002,9.8104,9.826,9.8065,9.7401,9.7597,9.7714,9.7714,9.7714,9.7714,9.7714,9.7714,9.7714,9.7714,9.7714,9.7714,9.7753,9.8416,9.8807,9.9119,10.0407,10.15,10.2593,10.3218,10.3999,10.4702,10.3999,10.3804,10.3687,10.2984,10.2789,10.2789,10.2789,10.2789,10.2789,10.2789,10.2789,10.2789,10.2515,10.2008,10.1305,10.0212,9.9002,9.7948,9.7753,9.7714,9.787,9.8572,9.8846,9.9158,9.9588,9.947,9.947,9.99,9.9431,9.8026,9.5169,9.4934,9.4583,9.3412,9.2834,9.3732,9.6855,9.7167,9.5723,9.217,9.5645,9.5112,8.8655,9.3985,9.6261,9.414,9.4844,9.539,9.5586,9.6172,9.6601,9.6758,9.5937,9.5156,9.4492,9.3398,9.289,9.289,9.2695,9.2617,9.2617,9.2617,9.2617,9.2617,9.2617,9.2617,9.2617,9.2617,9.2617,9.2734,9.8788,9.8788,9.8981,9.9481,9.9557,9.975,10.0211,10.1096,10.1711,10.2019,10.3099,10.3999,10.4116,10.4711,10.4989,10.4997,10.3218,10.1891,10.15,10.111,10.0485,9.9627,9.9588,9.9353,9.8885,9.8885,9.869,9.8299,9.7909,9.7714,9.7714,9.7714,9.7714,9.7714,9.8104,9.8299,9.8338,9.9236,9.9822,10.0212,10.111,10.2008,10.2906,10.3296,10.3804,10.4116,10.3687,10.3491,10.3413,10.2984,10.2789,10.2789,10.2789,10.2789,10.2789,10.2789,10.2789,10.2789,10.2789,10.2515,10.1813,10.0603,9.9002,9.7714,9.7714,9.7714,9.7831,9.8299,9.8729,9.9158,9.9627,9.9627,9.9744,10.0212,9.8221,9.6269,9.5254,9.4356,9.4115,9.5013,9.5332,9.6386,9.8768,9.8651,9.7401,9.5059,9.6503,9.6088,9.2876,9.5307,9.6133,9.4765,9.664,9.75,9.7031,9.7461,9.7461,9.7031,9.6211,9.5351,9.4453,9.3594,9.2969,9.2617,9.2617,9.2617,9.2617,9.2617,9.2617,9.2617,9.2617,9.2617,9.2617,9.2617,9.2617,9.2656,9.9173,9.9173,9.9403,10.0211,10.0288,10.048,10.1212,10.2212,10.2903,10.3209,10.3987,10.4701,10.4909,10.5022,10.5078,10.5282,10.4783,10.4116,10.3218,10.2515,10.1696,10.0915,10.0915,10.0798,10.0681,10.0485,10.0095,9.9197,9.8455,9.8104,9.8104,9.8104,9.8104,9.8104,9.8885,9.9197,9.9236,10.0095,10.0915,10.15,10.1618,10.2086,10.2789,10.2789,10.2789,10.2789,10.2789,10.2789,10.2789,10.2789,10.2789,10.2789,10.2789,10.2789,10.2789,10.2789,10.2789,10.2789,10.2789,10.2593,10.2008,10.0485,9.8885,9.7714,9.7714,9.7714,9.7753,9.787,9.8494,9.9033,9.9158,9.9822,10.0095,9.9588,9.6425,9.4037,9.4122,9.4044,9.42,9.4817,9.7323,9.9002,9.9002,9.8338,9.7909,9.7909,9.5208,9.4916,9.8071,9.5157,9.3137,9.2617,9.5937,9.7695,9.7695,9.7695,9.7656,9.75,9.6836,9.6054,9.5156,9.4297,9.3515,9.2773,9.2656,9.2617,9.2617,9.2617,9.2617,9.2617,9.2617,9.2617,9.2617,9.2617,9.2617,9.2578,10.0904,10.0904,10.1019,10.1096,10.1096,10.1212,10.1289,10.2712,10.3789,10.4095,10.5409,10.6403,10.6519,10.6719,10.6795,10.6869,10.6293,10.5717,10.5014,10.4897,10.4389,10.3491,10.3491,10.3179,10.2398,10.1696,10.0915,10.0095,9.9939,9.99,9.99,9.99,9.99,9.99,9.9978,10.0095,10.0212,10.0993,10.1383,10.1618,10.232,10.2711,10.2789,10.2789,10.2789,10.2789,10.2789,10.2789,10.2789,10.2789,10.2789,10.2789,10.2789,10.2789,10.2789,10.2789,10.2789,10.2789,10.2789,10.1813,10.0407,9.9431,9.8455,9.7714,9.7714,9.7714,9.7909,9.8651,9.8924,9.9236,9.9939,10.0212,9.9345,9.6379,9.5325,9.3685,9.0186,9.2685,9.4676,9.4076,9.6972,9.9002,9.9002,9.8885,9.8807,9.8807,9.8299,9.7025,9.4825,9.6088,9.5585,9.2695,9.5937,9.7695,9.7695,9.7695,9.7344,9.6679,9.6562,9.6054,9.5156,9.4297,9.3828,9.3672,9.2929,9.2617,9.2617,9.2617,9.2617,9.2617,9.2617,9.2617,9.2617,9.2617,9.2617,9.25,10.1289,10.1289,10.1289,10.1289,10.1289,10.1289,10.1289,10.2789,10.3905,10.4097,10.552,10.6597,10.6597,10.6713,10.6905,10.7175,10.6914,10.681,10.681,10.5912,10.5209,10.4819,10.4819,10.4584,10.4194,10.3296,10.2515,10.1618,10.1188,10.0681,10.029,10.029,10.029,10.029,10.0798,10.0915,10.0993,10.1813,10.2203,10.2203,10.2593,10.2789,10.2789,10.2789,10.2789,10.2789,10.2789,10.2789,10.2789,10.2789,10.2789,10.2789,10.2789,10.2789,10.2789,10.2789,10.2789,10.2711,10.2203,10.1188,10.0095,9.9236,9.8338,9.7714,9.7714,9.7714,9.7792,9.8221,9.8299,9.8572,9.9431,9.9588,9.8768,9.6223,9.502,9.3231,8.9874,9.1865,9.3537,9.3139,9.6191,9.8299,9.8299,9.8299,9.8299,9.8299,9.8299,9.7604,9.6016,9.7064,9.6992,9.539,9.6875,9.7695,9.7695,9.7695,9.75,9.7148,9.6719,9.6054,9.5156,9.4297,9.3633,9.3164,9.2773,9.2617,9.2617,9.2617,9.2617,9.2617,9.2617,9.2617,9.2617,9.2617,9.2304,9.1914,10.1289,10.1289,10.1289,10.1289,10.152,10.1597,10.1597,10.3097,10.4097,10.3905,10.5213,10.602,10.5828,10.5828,10.602,10.6521,10.6603,10.6888,10.759,10.6185,10.5599,10.599,10.599,10.5912,10.5717,10.5014,10.4194,10.3101,10.2398,10.1696,10.0915,10.0915,10.0915,10.0915,10.15,10.1813,10.1813,10.2515,10.2789,10.2789,10.2789,10.2789,10.2789,10.2789,10.2789,10.2789,10.2789,10.2789,10.2789,10.2789,10.2789,10.2789,10.2789,10.2789,10.2789,10.2789,10.2711,10.232,10.15,10.0603,9.9783,9.8924,9.8182,9.7714,9.7714,9.7714,9.7714,9.7714,9.7714,9.7909,9.8572,9.8846,9.8299,9.6145,9.4832,9.3355,9.1201,9.1975,9.3022,9.3646,9.6074,9.7714,9.7714,9.7714,9.7714,9.7714,9.7714,9.7714,9.7714,9.7687,9.7695,9.7695,9.7695,9.7695,9.7695,9.7695,9.7695,9.7695,9.707,9.6328,9.5469,9.4609,9.3711,9.289,9.2695,9.2617,9.2617,9.2617,9.2617,9.2617,9.2617,9.2461,9.2304,9.2304,9.1758,9.1054,10.1289,10.1289,10.1289,10.1289,10.202,10.252,10.252,10.3905,10.4713,10.3982,10.4713,10.4905,10.4172,10.4095,10.4211,10.4477,10.4715,10.5279,10.6419,10.5795,10.6107,10.7708,10.7786,10.7395,10.6614,10.6497,10.5717,10.3991,10.3882,10.3491,10.2593,10.2593,10.2593,10.2593,10.2711,10.2711,10.2711,10.2789,10.2789,10.2789,10.2789,10.2789,10.2789,10.2789,10.2789,10.2789,10.2789,10.2789,10.2789,10.2789,10.2789,10.2789,10.2789,10.2789,10.2789,10.2789,10.2203,10.1383,10.0603,9.9744,9.8885,9.8026,9.7753,9.7714,9.7714,9.7714,9.7714,9.7714,9.7714,9.7714,9.7792,9.8455,9.7909,9.4544,9.4558,9.4676,9.3654,9.3607,9.4591,9.7011,9.7558,9.7714,9.7714,9.7714,9.7714,9.7714,9.7714,9.7714,9.7714,9.7687,9.7695,9.7695,9.7695,9.7695,9.7695,9.7695,9.7695,9.7695,9.7656,9.7187,9.6367,9.5508,9.4648,9.375,9.2969,9.2617,9.2617,9.2617,9.2617,9.2617,9.2617,9.2109,9.1406,9.1406,9.0859,9.0,10.2903,10.2865,10.2904,10.2904,10.3212,10.3405,10.3405,10.4405,10.4982,10.4713,10.4905,10.4982,10.4713,10.4212,10.402,10.4328,10.441,10.4689,10.5192,10.5209,10.5513,10.6419,10.6419,10.6185,10.5912,10.5912,10.5279,10.4108,10.4116,10.3687,10.2789,10.2789,10.2789,10.2789,10.2789,10.2789,10.2789,10.3413,10.3608,10.3608,10.3608,10.3608,10.3491,10.2984,10.2789,10.2789,10.2789,10.2789,10.2789,10.2789,10.2789,10.2789,10.2789,10.2398,10.1891,10.1383,10.0603,9.9861,9.9588,9.9236,9.8807,9.7909,9.7714,9.7714,9.7714,9.7714,9.7714,9.7714,9.7714,9.7714,9.7714,9.7987,9.7245,9.4271,9.5449,9.6035,9.4083,9.5215,9.6582,9.7597,9.7714,9.7714,9.7714,9.7714,9.7714,9.7714,9.7714,9.7695,9.7687,9.7694,9.7695,9.7695,9.7695,9.7695,9.7695,9.7695,9.7695,9.7695,9.7695,9.6992,9.5703,9.5898,9.4922,9.3125,9.332,9.3086,9.2617,9.2617,9.2617,9.2617,9.2617,9.207,9.1289,9.1289,9.039,8.9219,10.3903,10.3903,10.3905,10.3905,10.4097,10.4289,10.4289,10.4982,10.529,10.4789,10.4713,10.4482,10.3982,10.3405,10.3212,10.3289,10.3405,10.3687,10.4113,10.431,10.4819,10.5404,10.5404,10.5404,10.5404,10.5717,10.5209,10.4116,10.4584,10.4311,10.3218,10.3218,10.3413,10.3608,10.3296,10.3413,10.3687,10.4311,10.4389,10.4116,10.4116,10.3882,10.3608,10.2984,10.2789,10.2789,10.2789,10.2789,10.2789,10.2789,10.2789,10.2789,10.2789,10.2398,10.1696,10.0915,10.029,9.9666,9.9119,9.9002,9.8807,9.7909,9.7714,9.7714,9.7714,9.7714,9.7714,9.7714,9.7714,9.7714,9.7714,9.7714,9.7128,9.5332,9.6542,9.7089,9.5293,9.6582,9.7714,9.7714,9.7714,9.7714,9.7714,9.7714,9.7682,9.7706,9.7706,9.768,9.7695,9.7695,9.7695,9.7695,9.7695,9.7695,9.7695,9.7695,9.7695,9.7695,9.7422,9.6719,9.5625,9.5664,9.4844,9.3437,9.3476,9.332,9.3008,9.2695,9.2617,9.2578,9.2304,9.164,9.0859,9.0586,8.957,8.8398,10.3903,10.3905,10.3905,10.3905,10.4597,10.5097,10.5097,10.579,10.579,10.4097,10.3905,10.3212,10.152,10.1289,10.1289,10.1289,10.1481,10.2097,10.2905,10.3199,10.3999,10.5287,10.5404,10.5404,10.5404,10.6185,10.5795,10.4116,10.5795,10.5795,10.4116,10.4116,10.4584,10.5404,10.4506,10.4584,10.5404,10.5404,10.4897,10.4108,10.4108,10.3608,10.2789,10.2789,10.2789,10.2789,10.2789,10.2789,10.2789,10.2789,10.2789,10.2789,10.2789,10.2789,10.2601,10.1703,10.1508,10.1117,9.9431,9.9002,9.8768,9.7909,9.7714,9.7714,9.7714,9.7714,9.7714,9.7714,9.7714,9.7714,9.7714,9.7714,9.7714,9.7714,9.7714,9.7714,9.7714,9.7714,9.7714,9.7714,9.7714,9.7714,9.7714,9.7714,9.7701,9.7695,9.7695,9.7695,9.7695,9.7695,9.7695,9.7695,9.7695,9.7695,9.7695,9.7695,9.7695,9.7695,9.6875,9.6484,9.6445,9.4726,9.4375,9.5078,9.3359,9.3086,9.3828,9.2969,9.2617,9.25,9.164,9.0742,8.9883,8.9023,8.8203,8.75,10.5713,10.5713,10.5713,10.5713,10.5905,10.602,10.602,10.5713,10.529,10.4789,10.3712,10.2789,10.2289,10.1712,10.1289,10.1289,10.1404,10.1904,10.2905,10.3083,10.362,10.4819,10.3887,10.3413,10.3413,10.4389,10.4584,10.4116,10.5209,10.5482,10.5014,10.5014,10.5209,10.5404,10.5092,10.5209,10.5404,10.5404,10.5209,10.5006,10.4311,10.3882,10.3608,10.2984,10.2789,10.2789,10.2789,10.2789,10.2789,10.2789,10.2789,10.2711,10.2086,10.15,10.0915,10.0017,9.9314,9.8729,9.8213,9.8104,9.8026,9.7753,9.7714,9.7714,9.7714,9.7714,9.7714,9.7714,9.7714,9.7714,9.7714,9.7714,9.7714,9.7714,9.7714,9.7714,9.7714,9.7714,9.7714,9.7714,9.7714,9.7714,9.7714,9.7714,9.7701,9.7695,9.7695,9.7695,9.7695,9.7695,9.7695,9.7695,9.7695,9.7695,9.7695,9.7695,9.7695,9.7695,9.6875,9.6484,9.6484,9.5976,9.5195,9.4297,9.4375,9.3867,9.2969,9.2695,9.2226,9.164,9.1406,9.039,8.9062,8.8789,8.8203,8.75,10.602,10.5905,10.579,10.5482,10.5405,10.5405,10.5405,10.4982,10.4482,10.4212,10.3212,10.252,10.2097,10.1597,10.1289,10.1289,10.1597,10.2213,10.2905,10.3209,10.369,10.4407,10.3713,10.3387,10.3491,10.4584,10.5014,10.4615,10.5795,10.6302,10.5912,10.5912,10.6107,10.638,10.5717,10.5599,10.5912,10.5513,10.5209,10.4819,10.4311,10.3882,10.3491,10.2984,10.2593,10.232,10.2711,10.2593,10.232,10.2711,10.2593,10.2203,10.1696,10.0915,10.0212,9.9666,9.9158,9.8651,9.8299,9.8221,9.8143,9.7792,9.7714,9.7714,9.7714,9.7714,9.7714,9.7714,9.7714,9.7714,9.7714,9.7714,9.7714,9.7714,9.7714,9.7714,9.7714,9.7714,9.7714,9.7714,9.7714,9.7714,9.7714,9.7701,9.7684,9.7695,9.7695,9.7695,9.7695,9.7695,9.7695,9.7695,9.7695,9.7695,9.7695,9.7695,9.7539,9.7226,9.6719,9.6484,9.6484,9.6133,9.5781,9.539,9.4883,9.4297,9.3554,9.25,9.1797,9.1211,9.0547,8.9648,8.8672,8.8359,8.7929,8.75,10.5213,10.4982,10.4789,10.3982,10.3905,10.3905,10.3905,10.3789,10.3482,10.2712,10.252,10.2212,10.1404,10.1289,10.1289,10.1289,10.1981,10.2713,10.3098,10.3595,10.4016,10.4285,10.4477,10.4807,10.4889,10.6107,10.6302,10.5513,10.72,10.759,10.681,10.6693,10.7083,10.7786,10.6107,10.5795,10.6497,10.5717,10.4819,10.4116,10.3882,10.3413,10.2711,10.2711,10.2203,10.1618,10.2515,10.2281,10.1696,10.2398,10.2203,10.15,10.1383,10.0798,10.0212,10.0212,10.0095,9.99,9.908,9.8885,9.869,9.7909,9.7714,9.7714,9.7714,9.7714,9.7714,9.7714,9.7714,9.7714,9.7714,9.7714,9.7714,9.7714,9.7714,9.7714,9.7714,9.7714,9.7714,9.7714,9.7714,9.7714,9.7682,9.7687,9.7695,9.7695,9.7695,9.7695,9.7695,9.7695,9.7695,9.7695,9.7695,9.7695,9.7695,9.7617,9.7265,9.6601,9.6523,9.6523,9.6562,9.5625,9.6015,9.7344,9.4844,9.4179,9.4648,9.2187,9.1133,9.0898,8.9336,8.8672,8.8515,8.7773,8.75,8.75,10.4289,10.4212,10.4097,10.3905,10.3905,10.3905,10.3905,10.3289,10.2789,10.2597,10.202,10.152,10.1289,10.1289,10.1289,10.1289,10.1481,10.2212,10.3595,10.3785,10.4208,10.4903,10.521,10.5001,10.4498,10.5912,10.6614,10.6419,10.7512,10.7903,10.7708,10.7005,10.681,10.6888,10.5912,10.5482,10.5599,10.4819,10.4311,10.3999,10.2593,10.2008,10.1813,10.1813,10.1696,10.1618,10.2515,10.2711,10.2398,10.1891,10.1696,10.1383,10.0798,9.9978,9.9275,9.9275,9.8807,9.8221,9.8026,9.7987,9.7948,9.7753,9.7714,9.7714,9.7714,9.7714,9.7714,9.7714,9.7714,9.7714,9.7714,9.7714,9.7714,9.7714,9.7714,9.7714,9.7714,9.7714,9.7714,9.7714,9.7714,9.7695,9.7691,9.7695,9.7695,9.7695,9.7695,9.7695,9.7695,9.7695,9.7695,9.7695,9.7695,9.7695,9.7695,9.707,9.6992,9.7422,9.6797,9.6836,9.7383,9.5898,9.539,9.5625,9.3711,9.2617,9.2031,9.0781,8.9883,8.9219,8.8867,8.832,8.7734,8.7578,8.75,8.75,10.3405,10.3289,10.3097,10.2712,10.2712,10.2712,10.2712,10.2289,10.202,10.202,10.1597,10.1289,10.1289,10.1289,10.1289,10.1289,10.1712,10.2289,10.3172,10.3711,10.4095,10.448,10.4789,10.4701,10.4293,10.5299,10.5884,10.5912,10.6302,10.6614,10.6693,10.6302,10.6107,10.599,10.5209,10.4819,10.4702,10.3413,10.2906,10.2789,10.1891,10.15,10.15,10.2008,10.1891,10.1618,10.2515,10.2515,10.2086,10.1696,10.0993,10.0212,9.9822,9.908,9.8377,9.8377,9.8065,9.7714,9.7714,9.7714,9.7714,9.7714,9.7714,9.7714,9.7714,9.7714,9.7714,9.7714,9.7714,9.7714,9.7714,9.7714,9.7714,9.7714,9.7714,9.7714,9.7714,9.7714,9.7714,9.7714,9.7706,9.7687,9.7695,9.7695,9.7695,9.7695,9.7695,9.7695,9.7695,9.7695,9.7695,9.7695,9.7695,9.7695,9.7695,9.6914,9.6914,9.7695,9.6875,9.6719,9.7109,9.6601,9.6172,9.5703,9.3984,9.2734,9.1797,9.0078,8.9101,8.8672,8.8281,8.7851,8.75,8.75,8.75,8.7539,10.252,10.2404,10.2097,10.1404,10.1289,10.1289,10.1289,10.1289,10.1289,10.1289,10.1289,10.1289,10.1289,10.1289,10.1289,10.1289,10.1981,10.2405,10.2597,10.3289,10.3674,10.3674,10.3906,10.3907,10.383,10.4187,10.4598,10.4996,10.4997,10.5209,10.5404,10.5209,10.5209,10.5092,10.4311,10.3804,10.3608,10.2086,10.15,10.15,10.1383,10.1383,10.1586,10.2289,10.2086,10.1618,10.2515,10.2203,10.15,10.1305,10.029,9.8963,9.8807,9.826,9.7714,9.7714,9.7714,9.7714,9.7714,9.7714,9.7714,9.7714,9.7714,9.7714,9.7714,9.7714,9.7714,9.7714,9.7714,9.7714,9.7714,9.7714,9.7714,9.7714,9.7714,9.7714,9.7714,9.7714,9.7721,9.7695,9.7689,9.7695,9.7695,9.7695,9.7695,9.7695,9.7695,9.7695,9.7695,9.7695,9.7695,9.7695,9.7695,9.7617,9.75,9.6679,9.6679,9.7461,9.6523,9.6289,9.6719,9.7109,9.6836,9.5937,9.4062,9.2734,9.1758,8.9453,8.8476,8.8437,8.7773,8.75,8.75,8.75,8.7578,8.7773,10.1597,10.152,10.1404,10.1289,10.1289,10.1289,10.1289,10.1289,10.1289,10.1289,10.1289,10.1289,10.1289,10.1289,10.1289,10.1289,10.1404,10.1789,10.2597,10.2713,10.279,10.279,10.279,10.252,10.1712,10.1789,10.2933,10.5005,10.5195,10.5404,10.5404,10.4584,10.4311,10.4194,10.3413,10.2593,10.1813,10.1618,10.15,10.1391,10.0681,10.0915,10.15,10.1618,10.1618,10.1618,10.2515,10.2203,10.1383,10.0681,9.9822,9.8885,9.8104,9.7792,9.7714,9.7714,9.7714,9.7714,9.7714,9.7714,9.7714,9.7714,9.7714,9.7714,9.7714,9.7714,9.7714,9.7714,9.7714,9.7714,9.7714,9.7714,9.7714,9.7714,9.7714,9.7714,9.7714,9.7714,9.7695,9.7693,9.7695,9.7695,9.7695,9.7695,9.7695,9.7695,9.7695,9.7695,9.7695,9.7695,9.7695,9.7695,9.7695,9.7383,9.6679,9.582,9.582,9.664,9.5039,9.539,9.75,9.6133,9.5078,9.4101,9.1601,9.0039,8.914,8.8086,8.7656,8.7656,8.7539,8.75,8.75,8.75,8.7929,8.8437,10.1404,10.1289,10.1289,10.1289,10.1289,10.1289,10.1289,10.1289,10.1289,10.1289,10.1289,10.1289,10.1289,10.1289,10.1289,10.1289,10.1289,10.1481,10.1789,10.1904,10.1904,10.1904,10.1904,10.1712,10.1289,10.1398,10.2096,10.3209,10.3386,10.3687,10.3882,10.3608,10.3101,10.2593,10.2203,10.1618,10.0798,10.029,10.0407,10.0805,10.0407,10.0798,10.1618,10.2008,10.2203,10.2203,10.2086,10.15,10.072,9.9861,9.9002,9.8221,9.7831,9.7714,9.7714,9.7714,9.7714,9.7714,9.7714,9.7714,9.7714,9.7714,9.7714,9.7714,9.7714,9.7714,9.7714,9.7714,9.7714,9.7714,9.7714,9.7714,9.7714,9.7714,9.7714,9.7689,9.768,9.7684,9.7689,9.7695,9.7695,9.7695,9.7695,9.7695,9.7695,9.7695,9.7695,9.7695,9.7695,9.7695,9.7695,9.7695,9.7695,9.7304,9.6523,9.6133,9.5859,9.5742,9.5,9.5469,9.6992,9.5742,9.4726,9.3828,9.2148,9.0976,9.0039,8.8711,8.8164,8.8125,8.7695,8.75,8.7539,8.8008,8.8125,8.8125]},{"header":{"parameterUnit":"m.s-1","parameterCategory":1,"la1":30.6,"la2":28.766,"lo1":-90.7593,"lo2":-88.6598,"dx":0.0162,"dy":0.0183,"nx":116,"ny":114,"refTime":"2022-11-11T06:00:00:Z","depth":0,"parameterNumber":3,"parameterNumberName":"V-component_of_WINDS"},"data":[0.0,0.0,0.0,0.0,0.0,0.0,0.0,0.0,0.0,0.0,0.0,0.0,0.0,0.0,0.0,0.0,0.0,0.0,0.0,0.0,0.0,0.0,0.0,0.0,0.0,0.0,0.0,0.0,0.0,0.0,0.0,0.0,0.0,0.0,0.0,0.0,0.0,0.0,0.0,0.0,0.0,0.0,0.0,0.0,0.0,0.0,0.0,0.0,0.0,0.0,0.0,0.0,0.0,0.0,0.0,0.0,0.0,0.0,0.0,0.0,0.0,0.0,0.0,0.0,0.0,0.0,0.0,0.0,0.0,0.0,0.0,0.0,0.0,0.0,0.0,0.0,0.0,0.0,0.0,0.0,0.0,0.0,0.0,0.0,0.0,0.0,0.0,0.0,0.0,0.0,0.0,0.0,0.0,0.0,0.0,0.0,0.0,0.0,0.0,0.0,0.0,0.0,0.0,0.0,0.0,0.0,0.0,0.0,0.0,0.0,0.0,0.0,0.0,0.0,0.0,0.0,0.0,0.0,0.0,0.0,0.0,0.0,0.0,0.0,0.0,0.0,0.0,0.0,0.0,0.0,0.0,0.0,0.0,0.0,0.0,0.0,0.0,0.0,0.0,0.0,0.0,0.0,0.0,0.0,0.0,0.0,0.0,0.0,0.0,0.0,0.0,0.0,0.0,0.0,0.0,0.0,0.0,0.0,0.0,0.0,0.0,0.0,0.0,0.0,0.0,0.0,0.0,0.0,0.0,0.0,0.0,0.0,0.0,0.0,0.0,0.0,0.0,0.0,0.0,0.0,0.0,0.0,0.0,0.0,0.0,0.0,0.0,0.0,0.0,0.0,0.0,0.0,0.0,0.0,0.0,0.0,0.0,0.0,0.0,0.0,0.0,0.0,0.0,0.0,0.0,0.0,0.0,0.0,0.0,0.0,0.0,0.0,0.0,0.0,0.0,0.0,0.0,0.0,0.0,0.0,0.0,0.0,0.0,0.0,0.0,0.0,0.0,0.0,0.0,0.0,0.0,0.0,0.0,0.0,0.0,0.0,0.0,0.0,0.0,0.0,0.0,0.0,0.0,0.0,0.0,0.0,0.0,0.0,0.0,0.0,0.0,0.0,0.0,0.0,0.0,0.0,0.0,0.0,0.0,0.0,0.0,0.0,0.0,0.0,0.0,0.0,0.0,0.0,0.0,0.0,0.0,0.0,0.0,0.0,0.0,0.0,0.0,0.0,0.0,0.0,0.0,0.0,0.0,0.0,0.0,0.0,0.0,0.0,0.0,0.0,0.0,0.0,0.0,0.0,0.0,0.0,0.0,0.0,0.0,0.0,0.0,0.0,0.0,0.0,0.0,0.0,0.0,0.0,0.0,0.0,0.0,0.0,0.0,0.0,0.0,0.0,0.0,0.0,0.0,0.0,0.0,0.0,0.0,0.0,0.0,0.0,0.0,0.0,0.0,0.0,0.0,0.0,0.0,0.0,0.0,0.0,0.0,0.0,0.0,0.0,0.0,0.0,0.0,0.0,0.0,0.0,0.0,0.0,0.0,0.0,0.0,0.0,0.0,0.0,0.0,0.0,0.0,0.0,0.0,0.0,0.0,0.0,0.0,0.0,0.0,0.0,0.0,0.0,0.0,0.0,0.0,0.0,0.0,0.0,0.0,0.0,0.0,0.0,0.0,0.0,0.0,0.0,0.0,0.0,0.0,0.0,0.0,0.0,0.0,0.0,0.0,0.0,0.0,0.0,0.0,0.0,0.0,0.0,0.0,0.0,0.0,0.0,0.0,0.0,0.0,0.0,0.0,0.0,0.0,0.0,0.0,0.0,0.0,0.0,0.0,0.0,0.0,0.0,0.0,0.0,0.0,0.0,0.0,0.0,0.0,0.0,0.0,0.0,0.0,0.0,0.0,0.0,0.0,0.0,0.0,0.0,0.0,0.0,0.0,0.0,0.0,0.0,0.0,0.0,0.0,0.0,0.0,0.0,0.0,0.0,0.0,0.0,0.0,0.0,0.0,0.0,0.0,0.0,0.0,0.0,0.0,0.0,0.0,0.0,0.0,0.0,0.0,0.0,0.0,0.0,0.0,0.0,0.0,0.0,0.0,0.0,0.0,0.0,0.0,0.0,0.0,0.0,0.0,0.0,0.0,0.0,0.0,0.0,0.0,0.0,0.0,0.0,0.0,0.0,0.0,0.0,0.0,0.0,0.0,0.0,0.0,0.0,0.0,0.0,0.0,0.0,0.0,0.0,0.0,0.0,0.0,0.0,0.0,0.0,0.0,0.0,0.0,0.0,0.0,0.0,0.0,0.0,0.0,0.0,0.0,0.0,0.0,0.0,0.0,0.0,0.0,0.0,0.0,0.0,0.0,0.0,0.0,0.0,0.0,0.0,0.0,0.0,0.0,0.0,0.0,0.0,0.0,0.0,0.0,0.0,0.0,0.0,0.0,0.0,0.0,0.0,0.0,0.0,0.0,0.0,0.0,0.0,0.0,0.0,0.0,0.0,0.0,0.0,0.0,0.0,0.0,0.0,0.0,0.0,0.0,0.0,0.0,0.0,0.0,0.0,0.0,0.0,0.0,0.0,0.0,0.0,0.0,0.0,0.0,0.0,0.0,0.0,0.0,0.0,0.0,0.0,0.0,0.0,0.0,0.0,0.0,0.0,0.0,0.0,0.0,0.0,0.0,0.0,0.0,0.0,0.0,0.0,0.0,0.0,0.0,0.0,0.0,0.0,0.0,0.0,0.0,0.0,0.0,0.0,0.0,0.0,0.0,0.0,0.0,0.0,0.0,0.0,0.0,0.0,0.0,0.0,0.0,0.0,0.0,0.0,0.0,0.0,0.0,0.0,0.0,0.0,0.0,0.0,0.0,0.0,0.0,0.0,0.0,0.0,0.0,0.0,0.0,0.0,0.0,0.0,0.0,0.0,0.0,0.0,0.0,0.0,0.0,0.0,0.0,0.0,0.0,0.0,0.0,0.0,0.0,0.0,0.0,0.0,0.0,0.0,0.0,0.0,0.0,0.0,0.0,0.0,0.0,0.0,0.0,0.0,0.0,0.0,0.0,0.0,0.0,0.0,0.0,0.0,0.0,0.0,0.0,0.0,0.0,0.0,0.0,0.0,0.0,0.0,0.0,0.0,0.0,0.0,0.0,0.0,0.0,0.0,0.0,0.0,0.0,0.0,0.0,0.0,0.0,0.0,0.0,0.0,0.0,0.0,0.0,0.0,0.0,0.0,0.0,0.0,0.0,0.0,0.0,0.0,0.0,0.0,0.0,0.0,0.0,0.0,0.0,0.0,0.0,0.0,0.0,0.0,0.0,0.0,0.0,0.0,0.0,0.0,0.0,0.0,0.0,0.0,0.0,0.0,0.0,0.0,0.0,0.0,0.0,0.0,0.0,0.0,0.0,0.0,0.0,0.0,0.0,0.0,0.0,0.0,0.0,0.0,0.0,0.0,0.0,0.0,0.0,0.0,0.0,0.0,0.0,0.0,0.0,0.0,0.0,0.0,0.0,0.0,0.0,0.0,0.0,0.0,0.0,0.0,0.0,0.0,0.0,0.0,0.0,0.0,0.0,0.0,0.0,0.0,0.0,0.0,0.0,0.0,0.0,0.0,0.0,0.0,0.0,0.0,0.0,0.0,0.0,0.0,0.0,0.0,0.0,0.0,0.0,0.0,0.0,0.0,0.0,0.0,0.0,0.0,0.0,0.0,0.0,0.0,0.0,0.0,0.0,0.0,0.0,0.0,0.0,0.0,0.0,0.0,0.0,0.0,0.0,0.0,0.0,0.0,0.0,0.0,0.0,0.0,0.0,0.0,0.0,0.0,0.0,0.0,0.0,0.0,0.0,0.0,0.0,0.0,0.0,0.0,0.0,0.0,0.0,0.0,0.0,0.0,0.0,0.0,0.0,0.0,0.0,0.0,0.0,0.0,0.0,0.0,0.0,0.0,0.0,0.0,0.0,0.0,0.0,0.0,0.0,0.0,0.0,0.0,0.0,0.0,0.0,0.0,0.0,0.0,0.0,0.0,0.0,0.0,0.0,0.0,0.0,0.0,0.0,0.0,0.0,0.0,0.0,0.0,0.0,0.0,0.0,0.0,0.0,0.0,0.0,0.0,0.0,0.0,0.0,0.0,0.0,0.0,0.0,0.0,0.0,0.0,0.0,0.0,0.0,0.0,0.0,0.0,0.0,0.0,0.0,0.0,0.0,0.0,0.0,0.0,0.0,0.0,0.0,0.0,0.0,0.0,0.0,0.0,0.0,0.0,0.0,0.0,0.0,0.0,0.0,0.0,0.0,0.0,0.0,0.0,0.0,0.0,0.0,0.0,0.0,0.0,0.0,0.0,0.0,0.0,0.0,0.0,0.0,0.0,0.0,0.0,0.0,0.0,0.0,0.0,0.0,0.0,0.0,0.0,0.0,0.0,0.0,0.0,0.0,0.0,0.0,0.0,0.0,0.0,0.0,0.0,0.0,0.0,0.0,0.0,0.0,0.0,0.0,0.0,0.0,0.0,0.0,0.0,0.0,0.0,0.0,0.0,0.0,0.0,0.0,0.0,0.0,0.0,0.0,0.0,0.0,0.0,0.0,0.0,0.0,0.0,0.0,0.0,0.0,0.0,0.0,0.0,0.0,0.0,0.0,0.0,0.0,0.0,0.0,0.0,0.0,0.0,0.0,0.0,0.0,0.0,0.0,0.0,0.0,0.0,0.0,0.0,0.0,0.0,0.0,0.0,0.0,0.0,0.0,0.0,0.0,0.0,0.0,0.0,0.0,0.0,0.0,0.0,0.0,0.0,0.0,0.0,0.0,0.0,0.0,0.0,0.0,0.0,0.0,0.0,0.0,0.0,0.0,0.0,0.0,0.0,0.0,0.0,0.0,0.0,0.0,0.0,0.0,0.0,0.0,0.0,0.0,0.0,0.0,0.0,0.0,0.0,0.0,0.0,0.0,0.0,0.0,0.0,0.0,0.0,0.0,0.0,0.0,0.0,0.0,0.0,0.0,0.0,0.0,0.0,0.0,0.0,0.0,0.0,0.0,0.0,0.0,0.0,0.0,0.0,0.0,0.0,0.0,0.0,0.0,0.0,0.0,0.0,0.0,0.0,0.0,0.0,0.0,0.0,0.0,0.0,0.0,0.0,0.0,0.0,0.0,0.0,0.0,0.0,0.0,0.0,0.0,0.0,0.0,0.0,0.0,0.0,0.0,0.0,0.0,0.0,0.0,0.0,0.0,0.0,0.0,0.0,0.0,0.0,0.0,0.0,0.0,0.0,0.0,0.0,0.0,0.0,0.0,0.0,0.0,0.0,0.0,0.0,0.0,0.0,0.0,0.0,0.0,0.0,0.0,0.0,0.0,0.0,0.0,0.0,0.0,0.0,0.0,0.0,0.0,0.0,0.0,0.0,0.0,0.0,0.0,0.0,0.0,0.0,0.0,0.0,0.0,0.0,0.0,0.0,0.0,0.0,0.0,0.0,0.0,0.0,0.0,0.0,0.0,0.0,0.0,0.0,0.0,0.0,0.0,0.0,0.0,0.0,0.0,0.0,0.0,0.0,0.0,0.0,0.0,0.0,0.0,0.0,0.0,0.0,0.0,0.0,0.0,0.0,0.0,0.0,0.0,0.0,0.0,0.0,0.0,0.0,0.0,0.0,0.0,0.0,0.0,0.0,0.0,0.0,0.0,0.0,0.0,0.0,0.0,0.0,0.0,0.0,0.0,0.0,0.0,0.0,0.0,0.0,0.0,0.0,0.0,0.0,0.0,0.0,0.0,0.0,0.0,0.0,0.0,0.0,0.0,0.0,0.0,0.0,0.0,0.0,0.0,0.0,0.0,0.0,0.0,0.0,0.0,0.0,0.0,0.0,0.0,0.0,0.0,0.0,0.0,0.0,0.0,0.0,0.0,0.0,0.0,0.0,0.0,0.0,0.0,0.0,0.0,0.0,0.0,0.0,0.0,0.0,0.0,0.0,0.0,0.0,0.0,0.0,0.0,0.0,0.0,0.0,0.0,0.0,0.0,0.0,0.0,0.0,0.0,0.0,0.0,0.0,0.0,0.0,0.0,0.0,0.0,0.0,0.0,0.0,0.0,0.0,0.0,0.0,0.0,0.0,0.0,0.0,0.0,0.0,0.0,0.0,0.0,0.0,0.0,0.0,0.0,0.0,0.0,0.0,0.0,0.0,0.0,0.0,0.0,0.0,0.0,0.0,0.0,0.0,0.0,0.0,0.0,0.0,0.0,0.0,0.0,0.0,0.0604,0.0621,0.0638,0.0655,0.1018,0.1366,0.159,0.1595,0.1408,0.1227,0.0,0.0,0.0,0.0,0.0,0.0,0.0,0.0,0.0,0.0,0.0,0.0,0.0,0.0,0.0,0.0,0.0,0.0,0.0,0.0,0.0,0.0,0.0,0.0,0.0,0.0,0.0,0.0,0.0,0.0,0.0,0.0,0.0,0.0,0.0,0.0,0.0,0.0,0.0,0.0,0.0,0.0,0.0,0.0,0.0,0.0,0.0,0.0,0.0,0.0,0.0,0.0,0.0,0.0,0.0,0.0,0.0,0.0,0.0,0.0,0.0,0.0,0.0,0.0,0.0,0.0,0.0,0.0,0.0,0.0,0.0,0.0,0.0,0.0,0.0,0.0,0.0,0.0,0.0,0.0,0.0,0.0,0.0,0.0,0.0,0.0,0.0,0.0,0.0,0.0,0.0,0.0,0.0,0.0,0.0,0.0,0.0,0.0,0.0,0.0,0.0,0.0,0.0,0.0,0.0,0.0,0.1296,0.1283,0.1324,0.1346,0.1433,0.168,0.203,0.2057,0.1857,0.148,0.138,0.0,0.0,0.0,0.0,0.0,0.0,0.0,0.0,0.0,0.0,0.0,0.0,0.0,0.0,0.0,0.0,0.0,0.0,0.0,0.0,0.0,0.0,0.0,0.0,0.0,0.0,0.0,0.0,0.0,0.0,0.0,0.0,0.0,0.0,0.0,0.0,0.0,0.0,0.0,0.0,0.0,0.0,0.0,0.0,0.0,0.0,0.0,0.0,0.0,0.0,0.0,0.0,0.0,0.0,0.0,0.0,0.0,0.0,0.0,0.0,0.0,0.0,0.0,0.0402,0.0406,0.0412,0.0411,0.0411,0.0411,0.0398,0.0404,0.0281,0.0377,0.0,0.0,0.0,0.0,0.0,0.0,0.0,0.0,0.0,0.0,0.0,0.0,0.0,0.0,0.0,0.0,0.0,0.0,0.0,0.0,0.0,0.0,0.0,0.0,0.0,0.0,0.0,0.0,0.0,0.0,0.0,0.0391,0.1279,0.1313,0.1295,0.1392,0.1714,0.1966,0.2133,0.2136,0.2122,0.2086,0.1603,0.1389,0.1396,0.0,0.0,0.0,0.0,0.0,0.0,0.0,0.0,0.0,0.0,0.0,0.0,0.0,0.0,0.0,0.0,0.0,0.0,0.0,0.0,0.0,0.0,0.0,0.0,0.0,0.0,0.0,0.0,0.0,0.0,0.0,0.0,0.0,0.0,0.0,0.0,0.0,0.0,0.0,0.0,0.0,0.2224,0.2148,0.0,0.0,0.0,0.0,0.0,0.0,0.0,0.0,0.0,0.0,0.0,0.0,0.0,0.2121,0.2208,0.2151,0.2228,0.2148,0.2171,0.2196,0.2221,0.2199,0.22,0.2216,0.2117,0.0,0.163,0.205,0.0,0.0,0.0,0.0,0.0,0.0,0.0,0.0,0.0,0.0,0.0,0.0,0.0,0.0,0.0,0.0,0.0,0.0,0.0,0.0,0.0,0.0,0.0,0.0,0.0,0.0,0.0,0.0,0.0,0.0,0.0746,0.0926,0.1377,0.1366,0.1476,0.1837,0.2083,0.2178,0.2228,0.2141,0.2148,0.2128,0.1936,0.1821,0.1885,0.1748,0.0,0.0,0.0,0.0,0.0,0.0,0.0,0.0,0.0,0.0,0.0,0.0,0.0,0.0,0.0,0.0,0.0,0.0,0.0,0.0,0.0,0.0,0.0,0.0,0.0,0.0,0.0,0.0,0.0,0.0,0.0,0.0,0.0,0.0,0.0,0.0,0.0,0.0,0.0,0.1492,0.1832,0.2196,0.2179,0.2031,0.0,0.0,0.0,0.0,0.0,0.0,0.0,0.0,0.0,0.2236,0.2412,0.2484,0.2597,0.2639,0.2681,0.2563,0.2577,0.2582,0.2579,0.2582,0.2582,0.2578,0.254,0.2478,0.2252,0.249,0.2459,0.2441,0.0,0.0,0.0,0.0,0.2139,0.2296,0.0,0.0,0.0,0.0,0.0,0.0,0.0,0.0,0.0,0.0,0.0,0.0,0.0,0.0,0.0181,0.0462,0.0491,0.0496,0.0468,0.0377,0.065,0.1329,0.1423,0.1437,0.1457,0.16,0.1752,0.2149,0.2208,0.2136,0.2183,0.2099,0.1977,0.2087,0.2087,0.2116,0.2058,0.1919,0.1854,0.1654,0.0,0.0,0.0,0.0,0.0,0.0,0.0,0.0,0.0,0.0,0.0,0.0,0.0,0.0,0.0,0.0,0.0,0.0,0.0,0.0,0.0,0.0,0.0,0.0,0.0,0.0,0.0,0.0,0.0,0.0,0.0,0.0,0.0,0.0,0.0,0.0,0.0,0.1743,0.1729,0.2228,0.2222,0.2074,0.0,0.0,0.0,0.0,0.0,0.0,0.1913,0.2349,0.2575,0.2583,0.2619,0.2685,0.2788,0.2632,0.2641,0.2647,0.2814,0.2798,0.2769,0.2635,0.2632,0.2769,0.2635,0.2647,0.2637,0.2651,0.2601,0.2619,0.2571,0.2361,0.2159,0.2166,0.2328,0.2647,0.0,0.0,0.0,0.0,0.0,0.0,0.0,0.0,0.0,0.0,0.0,0.0,0.0,0.0,0.0492,0.1805,0.1947,0.1925,0.1913,0.1577,0.1373,0.1388,0.1504,0.1615,0.1616,0.194,0.211,0.1973,0.1957,0.201,0.2148,0.2151,0.2151,0.215,0.215,0.2065,0.1924,0.1922,0.1869,0.1776,0.1658,0.0,0.0,0.0,0.0,0.0,0.0,0.0,0.0,0.0,0.0,0.0,0.0,0.0,0.0,0.0,0.0,0.0,0.0,0.0,0.0,0.0,0.0,0.0,0.0,0.0,0.0,0.0,0.0,0.0,0.0,0.0,0.0,0.0,0.0,0.0,0.0,0.0,0.0,0.2222,0.2308,0.0,0.0,0.0,0.0,0.2191,0.2218,0.2286,0.2251,0.2409,0.2465,0.2748,0.262,0.2653,0.2855,0.2717,0.2746,0.2774,0.2774,0.2758,0.2729,0.2587,0.2584,0.2731,0.2761,0.2774,0.2765,0.2641,0.2753,0.2746,0.2654,0.2616,0.2616,0.2646,0.2658,0.2677,0.0,0.0,0.0,0.0,0.0,0.0,0.0,0.0,0.0,0.0,0.0,0.0,0.0,0.0819,0.1427,0.2011,0.1968,0.2086,0.2095,0.1723,0.1567,0.15,0.159,0.1648,0.156,0.188,0.2096,0.2191,0.2124,0.2278,0.226,0.2165,0.2173,0.2154,0.2155,0.2136,0.2104,0.2083,0.2022,0.1933,0.1873,0.1778,0.0,0.0,0.0,0.0,0.0,0.0,0.0,0.0,0.0,0.0,0.0,0.0,0.0,0.0,0.0,0.0,0.0,0.0,0.0,0.0,0.0,0.0,0.0,0.0,0.0,0.0,0.0,0.0,0.0,0.0,0.0,0.0,0.0,0.0,0.0,0.0,0.0,0.2401,0.2335,0.0,0.2376,0.2376,0.2375,0.2373,0.2436,0.2502,0.2564,0.2586,0.2626,0.2687,0.2718,0.274,0.2751,0.2762,0.2782,0.2812,0.2988,0.2982,0.2971,0.2632,0.2621,0.2769,0.2799,0.2812,0.2811,0.2787,0.2754,0.2716,0.2684,0.2671,0.2672,0.2683,0.2699,0.2722,0.0,0.0,0.0,0.0,0.0,0.0,0.0,0.0,0.0,0.0,0.0,0.0187,0.0602,0.1444,0.2013,0.2035,0.2113,0.2107,0.2096,0.1931,0.1646,0.1562,0.1671,0.1761,0.1821,0.1985,0.2173,0.2258,0.23,0.231,0.2291,0.2196,0.2204,0.2185,0.2185,0.2196,0.2214,0.2193,0.2144,0.2075,0.2015,0.19,0.1756,0.0,0.0,0.0,0.0,0.0,0.0,0.0,0.0,0.0,0.0,0.0,0.0,0.0,0.0,0.0,0.0,0.0,0.0,0.0,0.0,0.0,0.0,0.0,0.0,0.0,0.0,0.0,0.0,0.0,0.0,0.0,0.0,0.0,0.0,0.2112,0.2233,0.247,0.2405,0.2462,0.2481,0.2493,0.2507,0.2527,0.2602,0.2657,0.2676,0.2706,0.2737,0.2767,0.2788,0.2808,0.2827,0.2827,0.2844,0.3053,0.3053,0.3047,0.3037,0.2868,0.2857,0.283,0.286,0.2874,0.3055,0.2896,0.2879,0.2841,0.2822,0.2814,0.2814,0.2814,0.2826,0.2844,0.0,0.0,0.0,0.0,0.0,0.0,0.0,0.0,0.0,0.0,0.0,0.051,0.1893,0.2025,0.2103,0.2227,0.216,0.2115,0.2038,0.197,0.182,0.1569,0.1755,0.1976,0.2225,0.2167,0.2229,0.2158,0.2218,0.2248,0.2248,0.2249,0.2251,0.2251,0.2251,0.2251,0.2251,0.2249,0.2232,0.2193,0.2072,0.197,0.1879,0.0,0.0,0.0,0.0,0.0,0.0,0.0,0.0,0.0,0.0,0.0,0.0,0.0,0.0,0.0,0.0,0.0,0.0,0.0,0.0,0.0,0.0,0.0,0.0,0.0,0.0,0.0,0.0,0.0,0.0,0.0,0.0,0.0,0.2191,0.2307,0.2393,0.2427,0.2533,0.2604,0.2604,0.2631,0.2649,0.265,0.2705,0.2737,0.2739,0.2769,0.2799,0.2829,0.283,0.2859,0.2917,0.2919,0.2934,0.2965,0.2965,0.2949,0.3105,0.295,0.2946,0.292,0.295,0.2962,0.3147,0.3149,0.3149,0.3143,0.29,0.2876,0.2876,0.2876,0.2876,0.2876,0.0,0.0,0.0,0.0,0.0,0.0,0.0,0.0,0.0,0.0,0.0,0.0529,0.1844,0.1967,0.2039,0.2167,0.2075,0.2049,0.2055,0.1782,0.1741,0.1794,0.1919,0.2142,0.2202,0.2154,0.2204,0.2221,0.2279,0.2308,0.2309,0.2354,0.2375,0.2375,0.2375,0.2375,0.2373,0.235,0.2324,0.2288,0.2189,0.2095,0.2008,0.0,0.0,0.0,0.0,0.0,0.0,0.0,0.0,0.0,0.0,0.0,0.0,0.0,0.0,0.0,0.0,0.0,0.0,0.0,0.0,0.0,0.0,0.0,0.0,0.0,0.0,0.0,0.0,0.0,0.0,0.0,0.2251,0.2324,0.2357,0.239,0.2455,0.2571,0.2615,0.2643,0.2665,0.2675,0.2688,0.2712,0.2728,0.2747,0.277,0.28,0.283,0.286,0.2882,0.292,0.2981,0.2981,0.3009,0.3059,0.3037,0.3035,0.3047,0.301,0.299,0.2983,0.2991,0.2994,0.3184,0.3018,0.3028,0.3021,0.3146,0.3121,0.3121,0.3121,0.3121,0.3121,0.0,0.0,0.0,0.0,0.0,0.0,0.0,0.0,0.0,0.0,0.0503,0.1083,0.1921,0.2004,0.2178,0.2191,0.2057,0.202,0.2065,0.1775,0.1774,0.1951,0.2164,0.2241,0.23,0.2243,0.2282,0.2282,0.2341,0.2371,0.2372,0.2408,0.2424,0.2424,0.2424,0.2424,0.2423,0.2405,0.2387,0.2365,0.2301,0.2198,0.208,0.2063,0.2004,0.193,0.1925,0.1915,0.1896,0.1838,0.0,0.0,0.0,0.0,0.0,0.0,0.0,0.0,0.0,0.0,0.0,0.0,0.0,0.0,0.0,0.0,0.0,0.0,0.0,0.0,0.0,0.0,0.0,0.0,0.2383,0.2484,0.2547,0.2544,0.2574,0.2673,0.2686,0.2697,0.2728,0.2718,0.2724,0.2755,0.2769,0.2784,0.2801,0.2842,0.2879,0.2909,0.2951,0.2996,0.3044,0.3044,0.3062,0.3097,0.3067,0.3062,0.3077,0.3029,0.3007,0.3194,0.3181,0.3175,0.3176,0.3007,0.3014,0.3013,0.0,0.0,0.0,0.0,0.3178,0.3169,0.0,0.0,0.0,0.0,0.0,0.0,0.0,0.0,0.0,0.0,0.1129,0.1974,0.1997,0.2147,0.216,0.2196,0.2141,0.208,0.2138,0.1994,0.1939,0.2233,0.2251,0.2299,0.2248,0.2308,0.2338,0.2338,0.2248,0.2429,0.2429,0.2432,0.2433,0.2433,0.2433,0.2433,0.2433,0.2433,0.2432,0.2427,0.2399,0.2286,0.2133,0.2131,0.2064,0.1975,0.1999,0.1989,0.1969,0.1986,0.0,0.0,0.0,0.0,0.0,0.0,0.0,0.0,0.0,0.0,0.0,0.0,0.0,0.0,0.0,0.0,0.0,0.0,0.0,0.0,0.0,0.0,0.0,0.0,0.2461,0.2587,0.2724,0.2722,0.2717,0.274,0.2743,0.2754,0.2781,0.2759,0.2757,0.2791,0.2818,0.2837,0.2844,0.2893,0.0,0.0,0.0,0.3063,0.3097,0.3097,0.3099,0.3103,0.3076,0.3061,0.3056,0.3029,0.3016,0.301,0.3169,0.3158,0.3158,0.3158,0.3158,0.3162,0.3024,0.3041,0.3043,0.3046,0.3029,0.3011,0.0,0.0,0.0,0.0,0.0,0.0,0.0,0.0,0.0,0.0,0.1129,0.1983,0.2026,0.216,0.2168,0.2095,0.2173,0.212,0.1839,0.1997,0.2176,0.2238,0.2316,0.2238,0.2281,0.2339,0.2369,0.2517,0.2431,0.2461,0.2461,0.2485,0.2497,0.2497,0.2497,0.2497,0.2497,0.2497,0.2482,0.2459,0.2454,0.2387,0.2288,0.2264,0.2241,0.2219,0.22,0.2189,0.2174,0.2106,0.2064,0.2029,0.1975,0.1943,0.0,0.0,0.0,0.0,0.0,0.0,0.0,0.0,0.0,0.0,0.0,0.0,0.0,0.0,0.0,0.0,0.0,0.0,0.0,0.2508,0.2616,0.2713,0.2767,0.2791,0.2796,0.2777,0.2774,0.2777,0.2782,0.2778,0.2797,0.2852,0.2861,0.2886,0.2932,0.2946,0.2966,0.2996,0.301,0.3041,0.3097,0.3097,0.311,0.3134,0.3129,0.0,0.3089,0.3082,0.3066,0.2853,0.2848,0.2845,0.2845,0.2845,0.2845,0.3031,0.2994,0.3165,0.3168,0.3006,0.3011,0.3011,0.0,0.0,0.0,0.0,0.0,0.0,0.0,0.0,0.0,0.0,0.1181,0.1994,0.2023,0.2139,0.2153,0.199,0.1984,0.1975,0.1977,0.2158,0.2229,0.2174,0.2221,0.2266,0.2311,0.2371,0.2401,0.2551,0.2462,0.2492,0.2492,0.2507,0.2514,0.2514,0.2514,0.2514,0.2514,0.2514,0.2506,0.2492,0.2492,0.2455,0.2395,0.2352,0.2324,0.2309,0.2294,0.2279,0.2263,0.2232,0.2211,0.2193,0.2163,0.2124,0.2071,0.0,0.0,0.0,0.0,0.0,0.0,0.0,0.0,0.0,0.0,0.0,0.0,0.0,0.0,0.2356,0.2357,0.0,0.257,0.2598,0.2705,0.2793,0.2825,0.2842,0.284,0.281,0.2806,0.2818,0.2846,0.2837,0.2853,0.2913,0.2917,0.2931,0.296,0.2961,0.2975,0.3006,0.3021,0.3051,0.3097,0.3097,0.3106,0.3119,0.3104,0.3089,0.3074,0.3059,0.3044,0.3029,0.3013,0.3006,0.3006,0.3006,0.3016,0.3026,0.2996,0.3002,0.3031,0.3047,0.3052,0.3052,0.0,0.0,0.0,0.0,0.0,0.0,0.0,0.0,0.0079,0.0273,0.122,0.1886,0.1886,0.1989,0.2001,0.1968,0.1794,0.1954,0.2213,0.2167,0.2264,0.224,0.2245,0.2273,0.2331,0.2243,0.2424,0.2575,0.2485,0.2514,0.2514,0.2514,0.2514,0.2514,0.2514,0.2514,0.2514,0.2671,0.2828,0.2828,0.2985,0.2967,0.278,0.2725,0.2526,0.2342,0.2342,0.2312,0.2279,0.2319,0.2322,0.2311,0.2334,0.2281,0.2192,0.2106,0.2022,0.0,0.0,0.0,0.0,0.0,0.0,0.0,0.0,0.2249,0.2319,0.236,0.2416,0.2462,0.2481,0.257,0.265,0.2686,0.2773,0.2849,0.2886,0.2891,0.2882,0.2857,0.2849,0.2867,0.292,0.2904,0.2911,0.2958,0.2966,0.2973,0.2979,0.2979,0.2992,0.3024,0.3043,0.3065,0.3088,0.3089,0.3089,0.3088,0.307,0.3061,0.3061,0.3036,0.3025,0.3024,0.3185,0.3175,0.3175,0.3181,0.3011,0.3033,0.304,0.3071,0.2919,0.2908,0.3097,0.3095,0.0,0.0,0.0,0.0,0.0,0.0,0.0,0.0,0.0311,0.109,0.1391,0.1467,0.144,0.1547,0.1644,0.1654,0.1794,0.1863,0.2182,0.2196,0.2174,0.2243,0.2245,0.2273,0.2331,0.2243,0.2424,0.2575,0.2485,0.2514,0.2514,0.2514,0.2514,0.2514,0.2514,0.2514,0.2514,0.3299,0.3611,0.3768,0.4395,0.4234,0.3603,0.3593,0.3057,0.2373,0.2373,0.2303,0.2222,0.2305,0.2281,0.2233,0.2339,0.2312,0.2228,0.2163,0.2099,0.203,0.194,0.2001,0.2097,0.2131,0.2198,0.2293,0.0,0.2497,0.2548,0.2631,0.2695,0.2731,0.2707,0.2736,0.2782,0.284,0.286,0.2889,0.2943,0.2951,0.295,0.2947,0.2923,0.2919,0.2953,0.2953,0.2954,0.2961,0.2987,0.3013,0.304,0.3041,0.3056,0.3086,0.3065,0.3054,0.3056,0.3058,0.3058,0.3058,0.3081,0.3092,0.3092,0.3089,0.3088,0.3086,0.3084,0.3082,0.3084,0.3111,0.3125,0.313,0.3157,0.3172,0.3171,0.3118,0.3097,0.3101,0.0,0.0,0.0,0.0,0.0,0.0,0.0,0.0,0.0304,0.1273,0.1392,0.136,0.1375,0.1521,0.1557,0.159,0.1616,0.1817,0.2173,0.2202,0.2174,0.2217,0.2236,0.2266,0.2308,0.2367,0.2406,0.2575,0.2467,0.2497,0.2514,0.2514,0.2514,0.2514,0.2514,0.2514,0.2514,0.2828,0.3299,0.3768,0.4238,0.4099,0.3809,0.3809,0.3303,0.2474,0.2403,0.2346,0.0,0.2326,0.2331,0.2345,0.2431,0.242,0.236,0.2281,0.2203,0.2146,0.2161,0.2163,0.2199,0.2352,0.2393,0.2425,0.254,0.2602,0.2653,0.2707,0.2754,0.2791,0.2812,0.2827,0.2856,0.2915,0.2939,0.2966,0.3009,0.2999,0.3001,0.3036,0.2983,0.2947,0.296,0.2994,0.3007,0.2988,0.3032,0.3058,0.3052,0.3036,0.304,0.307,0.3041,0.3035,0.3052,0.3052,0.3052,0.3052,0.3065,0.3081,0.3097,0.3097,0.3107,0.3125,0.3125,0.3125,0.3125,0.3138,0.3153,0.3171,0.3183,0.3198,0.3208,0.3165,0.315,0.3149,0.0,0.0,0.0,0.0,0.0,0.0,0.0,0.0,0.03,0.1291,0.1405,0.1361,0.1427,0.1516,0.159,0.1633,0.1546,0.1751,0.2155,0.2171,0.2142,0.2198,0.2221,0.2251,0.229,0.2339,0.238,0.2412,0.2442,0.2472,0.2502,0.2502,0.2506,0.2514,0.2514,0.2514,0.2514,0.2828,0.3299,0.3768,0.4081,0.411,0.4157,0.417,0.3679,0.2849,0.258,0.2375,0.2349,0.2319,0.2327,0.2361,0.2431,0.242,0.2371,0.2313,0.2245,0.2207,0.2297,0.2298,0.2322,0.2522,0.2557,0.2562,0.2635,0.2686,0.2724,0.2746,0.2781,0.2822,0.2866,0.2887,0.2915,0.2965,0.2999,0.3029,0.3061,0.3046,0.3046,0.3081,0.3026,0.298,0.2964,0.3009,0.3031,0.3009,0.3055,0.3076,0.3054,0.3031,0.3033,0.3063,0.3035,0.3029,0.3052,0.3052,0.3056,0.3065,0.3065,0.3085,0.3123,0.3123,0.313,0.3144,0.3152,0.3156,0.3156,0.3164,0.318,0.32,0.32,0.3212,0.3228,0.3208,0.32,0.3197,0.0,0.0,0.0,0.0,0.0,0.0,0.0,0.0,0.03,0.121,0.1303,0.1337,0.1426,0.1516,0.1572,0.1575,0.1578,0.1791,0.2116,0.2219,0.2206,0.2195,0.2202,0.2229,0.2289,0.2319,0.2349,0.2379,0.241,0.244,0.247,0.247,0.2487,0.2514,0.2514,0.2514,0.2514,0.3454,0.3768,0.3925,0.4709,0.5057,0.512,0.5177,0.4648,0.376,0.275,0.2367,0.2289,0.2259,0.221,0.2178,0.227,0.2236,0.2169,0.2196,0.2181,0.2176,0.2267,0.2375,0.2484,0.2577,0.2665,0.2737,0.277,0.278,0.2781,0.2782,0.283,0.2872,0.2874,0.292,0.2969,0.3001,0.3031,0.3061,0.3092,0.3096,0.3085,0.3056,0.3051,0.3026,0.2966,0.299,0.3007,0.3006,0.3036,0.3054,0.3052,0.3051,0.3065,0.3095,0.3067,0.3051,0.3052,0.3052,0.3067,0.3096,0.3096,0.3127,0.3186,0.3186,0.317,0.3145,0.3174,0.3187,0.3189,0.3216,0.3228,0.3228,0.3228,0.323,0.323,0.323,0.3228,0.3228,0.0,0.0,0.0,0.0,0.0,0.0,0.0,0.0,0.0296,0.1158,0.1295,0.0,0.0,0.0,0.0,0.0,0.1558,0.1632,0.1793,0.2057,0.2174,0.2239,0.2168,0.2219,0.226,0.2308,0.2338,0.2348,0.2398,0.2429,0.2439,0.2439,0.2444,0.2454,0.2454,0.2454,0.2454,0.276,0.322,0.3831,0.3984,0.4126,0.4114,0.413,0.3641,0.283,0.0,0.2282,0.2286,0.2255,0.2245,0.2258,0.2327,0.2301,0.2251,0.2279,0.2281,0.2309,0.2481,0.2542,0.2583,0.2695,0.2746,0.277,0.2781,0.2799,0.2819,0.284,0.2875,0.2915,0.2954,0.2979,0.3002,0.3032,0.3046,0.3063,0.3093,0.3062,0.3048,0.3078,0.3029,0.2999,0.302,0.305,0.3051,0.301,0.3054,0.3073,0.3054,0.3052,0.3056,0.3067,0.3058,0.3062,0.3082,0.3082,0.3097,0.3127,0.3148,0.3168,0.3189,0.3208,0.321,0.3201,0.3212,0.3216,0.3217,0.3227,0.323,0.323,0.323,0.323,0.323,0.323,0.323,0.323,0.0,0.0,0.0,0.0,0.0,0.0,0.0,0.0,0.0,0.0,0.0,0.0,0.0,0.0,0.0,0.0,0.0,0.1578,0.1636,0.1858,0.2067,0.2248,0.2196,0.2251,0.2148,0.2196,0.2232,0.2394,0.2324,0.2371,0.2242,0.2424,0.2446,0.2457,0.2457,0.2457,0.2457,0.2457,0.2754,0.3199,0.3319,0.344,0.3559,0.3675,0.319,0.0,0.2635,0.248,0.2208,0.22,0.2217,0.2252,0.2312,0.2312,0.2301,0.235,0.2365,0.2403,0.2582,0.2632,0.2661,0.2772,0.2799,0.2803,0.2814,0.2838,0.2868,0.2898,0.2928,0.2964,0.3014,0.3014,0.302,0.3062,0.3069,0.308,0.311,0.3089,0.3074,0.3081,0.3039,0.3017,0.3035,0.3063,0.3065,0.3026,0.3059,0.3073,0.3054,0.3052,0.3052,0.3052,0.3052,0.3067,0.3097,0.3097,0.3118,0.3159,0.3189,0.3204,0.3204,0.3221,0.323,0.323,0.323,0.323,0.323,0.323,0.323,0.323,0.323,0.323,0.323,0.323,0.323,0.323,0.0,0.0,0.0,0.0,0.0,0.0,0.0,0.0,0.0,0.0,0.0,0.0,0.0,0.0,0.0,0.0,0.0,0.0,0.1627,0.1637,0.1789,0.2112,0.2271,0.2187,0.2221,0.2129,0.2302,0.2498,0.2331,0.2266,0.232,0.2408,0.2465,0.2493,0.2493,0.2495,0.2496,0.2496,0.2478,0.2446,0.2387,0.2951,0.3671,0.3584,0.3492,0.3409,0.3411,0.2796,0.2064,0.2098,0.2132,0.2173,0.2234,0.2275,0.2318,0.2409,0.2435,0.2461,0.2583,0.2657,0.2721,0.281,0.2831,0.2841,0.287,0.2894,0.292,0.295,0.2976,0.3002,0.3033,0.3018,0.3021,0.308,0.3092,0.3106,0.3134,0.3163,0.315,0.3065,0.3078,0.3073,0.0,0.3036,0.3052,0.3052,0.3052,0.3052,0.3052,0.3052,0.3052,0.3052,0.3054,0.3069,0.31,0.3103,0.3133,0.3191,0.3217,0.323,0.323,0.323,0.323,0.323,0.323,0.323,0.323,0.323,0.323,0.323,0.323,0.323,0.323,0.323,0.323,0.323,0.0,0.0,0.0,0.0,0.0,0.0,0.0,0.0,0.0,0.0,0.0,0.0,0.0,0.0,0.0,0.0,0.0,0.0,0.1645,0.1605,0.1659,0.1702,0.1752,0.1792,0.1941,0.1869,0.1889,0.2011,0.2099,0.214,0.2267,0.2291,0.2184,0.2213,0.2213,0.2225,0.2247,0.2247,0.2229,0.22,0.2184,0.2271,0.2465,0.2448,0.2397,0.2337,0.2363,0.2123,0.2009,0.2084,0.2174,0.227,0.2352,0.2399,0.2446,0.2557,0.259,0.2622,0.2766,0.2799,0.2804,0.2851,0.2878,0.2896,0.2904,0.2876,0.2859,0.289,0.2848,0.2815,0.2846,0.29,0.2945,0.296,0.302,0.3066,0.3074,0.3082,0.3086,0.3086,0.0,0.3066,0.3074,0.3061,0.3052,0.3052,0.3052,0.3052,0.3052,0.3052,0.3052,0.3052,0.3074,0.31,0.3131,0.3175,0.3204,0.322,0.3227,0.323,0.323,0.323,0.323,0.323,0.323,0.323,0.323,0.323,0.323,0.323,0.323,0.323,0.323,0.323,0.323,0.323,0.0,0.0,0.0,0.0,0.0,0.0,0.0,0.0,0.0,0.0,0.0,0.0,0.0,0.0,0.0,0.0,0.0,0.0,0.0,0.1553,0.1592,0.1609,0.1653,0.1683,0.17,0.1741,0.1774,0.1797,0.1856,0.1902,0.2064,0.2078,0.2099,0.1996,0.2129,0.2139,0.2155,0.2155,0.2138,0.0,0.0,0.2033,0.1974,0.1947,0.1915,0.1889,0.1921,0.1967,0.2037,0.2178,0.2273,0.2348,0.2451,0.2495,0.2532,0.2652,0.2677,0.2694,0.2819,0.2852,0.2853,0.287,0.2886,0.289,0.2864,0.2842,0.283,0.2833,0.2793,0.2784,0.2866,0.289,0.2928,0.302,0.3056,0.3077,0.3091,0.3114,0.3122,0.31,0.3106,0.3108,0.3099,0.3082,0.3066,0.3054,0.3052,0.3052,0.3052,0.3052,0.3052,0.3052,0.3082,0.3118,0.3163,0.3208,0.323,0.323,0.323,0.323,0.323,0.323,0.323,0.323,0.323,0.323,0.323,0.323,0.323,0.323,0.323,0.323,0.323,0.323,0.323,0.323,0.0,0.0,0.0,0.0,0.0,0.0,0.0,0.0,0.0,0.0,0.0739,0.1335,0.1385,0.1393,0.0,0.0,0.0,0.0,0.0,0.0,0.1611,0.1611,0.164,0.1553,0.1553,0.1578,0.1628,0.1816,0.1847,0.1794,0.1764,0.1788,0.1813,0.197,0.2101,0.2104,0.2106,0.2106,0.209,0.2057,0.2004,0.1966,0.1934,0.0,0.1868,0.1873,0.1911,0.1979,0.2086,0.2304,0.238,0.2408,0.2541,0.2581,0.26,0.2712,0.2725,0.2724,0.2811,0.2853,0.2874,0.2874,0.2876,0.2863,0.2797,0.2797,0.28,0.2762,0.2744,0.2781,0.2931,0.2893,0.2905,0.3112,0.3099,0.3077,0.3119,0.3172,0.3182,0.3118,0.3156,0.3168,0.3115,0.3106,0.3093,0.3066,0.3061,0.3056,0.3052,0.3052,0.3056,0.3065,0.3093,0.3137,0.3193,0.3217,0.323,0.323,0.323,0.323,0.323,0.323,0.323,0.323,0.323,0.323,0.323,0.323,0.323,0.323,0.323,0.323,0.323,0.323,0.3232,0.3236,0.0,0.0,0.0,0.0,0.0,0.0,0.0,0.0,0.0,0.0,0.0775,0.1381,0.0,0.0,0.0,0.0,0.0,0.0,0.0,0.0,0.0,0.158,0.1609,0.1625,0.1625,0.155,0.1572,0.1587,0.1829,0.1855,0.1656,0.1772,0.1791,0.1706,0.182,0.1834,0.1858,0.1858,0.1839,0.181,0.1801,0.1778,0.1753,0.1768,0.0,0.0,0.1865,0.1936,0.2031,0.229,0.2395,0.245,0.2645,0.269,0.2683,0.2755,0.2772,0.2782,0.2848,0.287,0.2874,0.2874,0.2891,0.2886,0.2803,0.2748,0.2694,0.2615,0.2538,0.2532,0.2682,0.2676,0.271,0.2898,0.2898,0.2912,0.3016,0.3061,0.3106,0.3165,0.3182,0.3185,0.3174,0.315,0.3133,0.3127,0.3104,0.3078,0.3054,0.3052,0.3076,0.3126,0.3156,0.3189,0.3223,0.3228,0.323,0.323,0.323,0.323,0.323,0.323,0.323,0.323,0.323,0.323,0.323,0.323,0.323,0.323,0.323,0.323,0.323,0.323,0.3246,0.3268,0.0,0.0,0.0,0.0,0.0,0.0,0.0,0.0,0.0,0.0,0.0354,0.0885,0.1327,0.1427,0.1441,0.0,0.0,0.0,0.0,0.0,0.0,0.157,0.1585,0.16,0.1617,0.163,0.155,0.1578,0.0,0.1682,0.1619,0.1696,0.1697,0.1726,0.1726,0.1734,0.1748,0.1748,0.174,0.1726,0.1726,0.1718,0.1705,0.172,0.0,0.0,0.1858,0.1925,0.2011,0.2234,0.2319,0.2382,0.2671,0.2751,0.2739,0.2737,0.2781,0.2826,0.2808,0.2848,0.2891,0.2878,0.2885,0.2861,0.274,0.269,0.2634,0.2514,0.2454,0.2465,0.2598,0.2612,0.2656,0.2823,0.289,0.2942,0.2999,0.3086,0.3156,0.3185,0.3201,0.3204,0.319,0.3175,0.316,0.3144,0.3129,0.3108,0.3077,0.3076,0.3104,0.3164,0.318,0.3202,0.323,0.323,0.323,0.323,0.323,0.323,0.323,0.323,0.323,0.323,0.323,0.323,0.323,0.323,0.323,0.323,0.323,0.323,0.3232,0.3247,0.3264,0.3277,0.0,0.0,0.0,0.0,0.0,0.0,0.0,0.0,0.0,0.0,0.0,0.0269,0.0986,0.1256,0.1436,0.0,0.0,0.0,0.0,0.0,0.0,0.0,0.1568,0.1585,0.1615,0.0,0.0,0.158,0.164,0.0,0.0,0.0,0.0,0.0,0.1685,0.1685,0.1685,0.1685,0.1685,0.0,0.0,0.1685,0.1686,0.0,0.0,0.0,0.0,0.1917,0.1986,0.218,0.2245,0.2301,0.2624,0.2717,0.2703,0.2687,0.275,0.2816,0.2777,0.2836,0.2901,0.2879,0.2874,0.2833,0.2675,0.2638,0.2593,0.2436,0.2403,0.2443,0.257,0.2571,0.2608,0.2773,0.2861,0.2928,0.298,0.31,0.3186,0.3195,0.3223,0.3228,0.32,0.3197,0.3187,0.3163,0.3156,0.314,0.311,0.3107,0.3131,0.3186,0.3194,0.3208,0.323,0.3236,0.324,0.324,0.3246,0.325,0.325,0.325,0.325,0.325,0.325,0.325,0.3249,0.3243,0.324,0.3239,0.3232,0.3234,0.3243,0.3266,0.3284,0.3298,0.0,0.0,0.0,0.0,0.0,0.0,0.0,0.0,0.0,0.0,0.0,0.0,0.009,0.0896,0.1436,0.0,0.0,0.0,0.0,0.0,0.0,0.0,0.0,0.0,0.0,0.0,0.0,0.1625,0.162,0.0,0.0,0.0,0.0,0.0,0.0,0.1625,0.1625,0.1625,0.0,0.0,0.0,0.0,0.0,0.0,0.0,0.0,0.0,0.1889,0.193,0.2166,0.2245,0.2279,0.2477,0.2502,0.2482,0.2613,0.266,0.2697,0.2826,0.287,0.2876,0.2875,0.2874,0.2827,0.2649,0.2607,0.2556,0.2378,0.2341,0.2387,0.2536,0.2473,0.2466,0.2672,0.2646,0.2676,0.2894,0.2984,0.3077,0.321,0.3253,0.326,0.323,0.3227,0.3225,0.3223,0.3198,0.3171,0.3141,0.3138,0.3155,0.3187,0.3213,0.3228,0.323,0.3258,0.3272,0.3272,0.3299,0.3313,0.3313,0.3313,0.3313,0.3313,0.3313,0.3313,0.331,0.3283,0.3272,0.3269,0.324,0.3247,0.3272,0.3275,0.331,0.3358,0.0,0.0,0.0,0.0,0.0,0.0,0.0,0.0,0.0,0.0,0.0,0.0,0.0,0.0359,0.0807,0.1346,0.0,0.0,0.0,0.0,0.0,0.0,0.0,0.0,0.0,0.0,0.1617,0.1617,0.1617,0.0,0.0,0.0,0.0,0.0,0.0,0.1617,0.1617,0.1617,0.0,0.0,0.0,0.0,0.0,0.0,0.0,0.0,0.0,0.0,0.1906,0.2038,0.2108,0.2151,0.2243,0.2266,0.2292,0.2442,0.2575,0.2676,0.2683,0.2777,0.2874,0.2874,0.2886,0.2842,0.2627,0.259,0.2541,0.2324,0.2281,0.2304,0.2383,0.2372,0.239,0.2511,0.2592,0.2705,0.289,0.3032,0.3152,0.3246,0.3284,0.327,0.3186,0.3209,0.323,0.323,0.3204,0.3198,0.3221,0.3189,0.3191,0.3239,0.3251,0.3266,0.3284,0.3296,0.3303,0.3303,0.3315,0.3321,0.3321,0.3321,0.3321,0.3321,0.3321,0.331,0.3292,0.328,0.3276,0.3275,0.3262,0.3276,0.3306,0.3324,0.3345,0.3369,0.0,0.0,0.0,0.0,0.0,0.0,0.0,0.0,0.0,0.0,0.0,0.0,0.0,0.0,0.0359,0.1346,0.1436,0.0,0.0,0.0,0.0,0.0,0.0,0.0,0.0,0.0,0.1617,0.1617,0.1617,0.1617,0.0,0.0,0.1617,0.1617,0.0,0.0,0.0,0.0,0.0,0.0,0.0,0.0,0.0,0.0,0.0,0.0,0.0,0.0,0.0,0.0,0.0,0.2057,0.2097,0.2124,0.217,0.232,0.247,0.2586,0.2586,0.2694,0.2815,0.2852,0.2848,0.2788,0.2602,0.2547,0.248,0.2286,0.2245,0.2255,0.2285,0.2307,0.2343,0.2413,0.2545,0.2705,0.289,0.3058,0.3183,0.3243,0.3284,0.3264,0.3153,0.3195,0.323,0.323,0.3212,0.3223,0.3273,0.3236,0.3238,0.3287,0.3288,0.3299,0.3321,0.333,0.3335,0.3335,0.3344,0.3348,0.3348,0.3348,0.3348,0.3348,0.3348,0.3336,0.3315,0.3306,0.3302,0.3302,0.3292,0.3307,0.3337,0.3358,0.3371,0.3382,0.0,0.0,0.0,0.0,0.0,0.0,0.0,0.0,0.0,0.0,0.0,0.0,0.0,0.0,0.0359,0.1346,0.1436,0.0,0.0,0.0,0.0,0.0,0.0,0.0,0.0,0.0,0.1617,0.1617,0.1617,0.1617,0.1617,0.1617,0.1617,0.1617,0.0,0.0,0.0,0.0,0.0,0.0,0.0,0.0,0.1624,0.0,0.0,0.0,0.0,0.0,0.0,0.0,0.0,0.0,0.0,0.2109,0.2139,0.2289,0.2335,0.2382,0.259,0.2647,0.2679,0.2799,0.2739,0.2634,0.2574,0.2467,0.2354,0.2264,0.2245,0.2255,0.2285,0.2292,0.232,0.2409,0.2476,0.2609,0.2878,0.3021,0.312,0.3182,0.324,0.324,0.3152,0.3195,0.323,0.323,0.323,0.3243,0.3273,0.3275,0.3288,0.332,0.3321,0.3321,0.3321,0.3351,0.3366,0.3366,0.3396,0.3411,0.3411,0.3411,0.3411,0.3411,0.3411,0.3411,0.3408,0.3378,0.3366,0.3363,0.3332,0.3339,0.3366,0.3366,0.3385,0.3411,0.0,0.0,0.0,0.0,0.0,0.0,0.0,0.0,-0.0972,-0.3592,-0.1616,0.0,0.0,0.0,0.009,0.0448,0.0986,0.0,0.0,0.0,0.0,0.0,0.0,0.0,0.0,0.1617,0.1617,0.1617,0.1617,0.1617,0.1617,0.1617,0.1617,0.1617,0.1617,0.1617,0.0,0.0,0.0,0.0,0.0,0.1617,0.1621,0.0,0.0,0.0,0.0,0.0,0.0,0.0,0.0,0.0,0.0,0.0,0.0,0.2166,0.2238,0.2323,0.2409,0.2477,0.254,0.2598,0.2601,0.2555,0.2432,0.2391,0.2341,0.221,0.2184,0.2199,0.2251,0.226,0.2296,0.2406,0.2474,0.2616,0.2906,0.3033,0.315,0.3294,0.3254,0.3212,0.3204,0.3183,0.3187,0.3227,0.325,0.3275,0.3305,0.3326,0.3341,0.3352,0.3352,0.3362,0.3382,0.3393,0.3397,0.3397,0.3407,0.3412,0.3412,0.3412,0.3412,0.3412,0.3412,0.34,0.338,0.337,0.3366,0.3366,0.3356,0.337,0.3397,0.3397,0.3403,0.3412,0.0,0.0,0.0,0.0,0.0,0.0,0.0,0.0,-0.0877,-0.323,-0.2695,-0.1615,-0.0179,0.0,0.0,0.0,0.0896,0.0,0.0,0.0,0.0,0.0,0.0,0.0,0.1615,0.1617,0.1617,0.1617,0.1617,0.1617,0.1617,0.1617,0.1617,0.1617,0.1617,0.1617,0.0,0.0,0.0,0.0,0.1605,0.1607,0.1621,0.0,0.0,0.0,0.0,0.0,0.0,0.0,0.0,0.0,0.0,0.0,0.0,0.0,0.2172,0.2251,0.2303,0.2358,0.2417,0.2481,0.2477,0.2436,0.2352,0.2312,0.2267,0.2174,0.2163,0.2187,0.2236,0.2263,0.2324,0.2467,0.2514,0.2632,0.2921,0.301,0.3104,0.3264,0.3216,0.3178,0.3195,0.3185,0.3191,0.3227,0.3258,0.3288,0.332,0.335,0.3371,0.3384,0.3384,0.3393,0.3411,0.3412,0.3412,0.3412,0.3412,0.3412,0.3412,0.3412,0.3412,0.3412,0.3425,0.3412,0.0,0.3396,0.3395,0.3384,0.3384,0.3395,0.3412,0.3412,0.3412,0.3412,0.0,0.0,0.0,0.0,0.0,0.0,0.0,0.0,0.0,0.0,-0.3045,-0.4036,-0.0807,-0.0448,-0.0269,-0.0,0.0896,0.0,0.0,0.0,0.0,0.0,0.0,0.0,0.1615,0.1617,0.1618,0.162,0.162,0.1621,0.1624,0.1621,0.162,0.162,0.1618,0.1617,0.0,0.0,0.0,0.0,0.1585,0.1592,0.0,0.0,0.0,0.0,0.0,0.0,0.0,0.0,0.0,0.0,0.0,0.0,0.0,0.0,0.0,0.0,0.0,0.2281,0.2308,0.2418,0.2363,0.2288,0.2315,0.2236,0.0,0.2158,0.2183,0.2213,0.2243,0.2301,0.2399,0.2563,0.2579,0.2661,0.2916,0.2968,0.3024,0.3138,0.3152,0.3153,0.3156,0.3201,0.323,0.323,0.326,0.3291,0.332,0.3352,0.3382,0.3411,0.3412,0.3412,0.3412,0.3412,0.3412,0.3412,0.3412,0.3412,0.3412,0.3414,0.3415,0.3416,0.3448,0.3444,0.3418,0.3446,0.344,0.3412,0.3412,0.3412,0.3412,0.3412,0.3412,0.3412,0.0,0.0,0.0,0.0,0.0,0.0,0.0,0.0,0.0,0.0,-0.0788,-0.2116,-0.4125,-0.4324,-0.315,0.0,0.0,0.0,0.0,0.0,0.0,0.0,0.0,0.0,0.1615,0.1617,0.1628,0.1651,0.1651,0.1559,0.1578,0.1558,0.1651,0.1651,0.1628,0.1617,0.0,0.0,0.0,0.0,0.1609,0.161,0.0,0.0,0.0,0.0,0.1712,0.1755,0.0,0.0,0.0,0.0,0.0,0.0,0.0,0.0,0.2095,0.2129,0.2174,0.0,0.2193,0.2221,0.2207,0.2188,0.0,0.2192,0.2189,0.2189,0.2214,0.2244,0.2274,0.2386,0.247,0.2466,0.2594,0.2735,0.2844,0.3037,0.3186,0.3238,0.3245,0.3254,0.3277,0.325,0.323,0.323,0.328,0.3313,0.3321,0.3371,0.3404,0.3411,0.3412,0.3412,0.3412,0.3412,0.3412,0.3412,0.3412,0.3412,0.3412,0.3435,0.3446,0.3448,0.3479,0.3475,0.3448,0.3454,0.344,0.3412,0.3412,0.3412,0.3412,0.3412,0.3412,0.3412,0.0,0.0,0.0,0.0,0.0,0.0,0.0,0.0,0.0,0.0,-0.154,-0.2763,-0.3084,-0.3096,-0.2221,0.0,0.0,0.0,0.0,0.0,0.0,0.0,0.0,0.16,0.1617,0.163,0.1645,0.1558,0.1675,0.1689,0.1704,0.1689,0.1681,0.1575,0.1651,0.1629,0.0,0.0,0.0,0.1515,0.1602,0.0,0.0,0.0,0.0,0.0,0.1704,0.1744,0.0,0.1813,0.1839,0.187,0.0,0.0,0.0,0.0,0.2075,0.2113,0.2129,0.2144,0.2155,0.2155,0.2155,0.2158,0.2173,0.2188,0.2204,0.2218,0.2245,0.2275,0.2305,0.241,0.2523,0.2615,0.2702,0.2804,0.2934,0.3125,0.3257,0.3273,0.3288,0.3298,0.33,0.3258,0.3236,0.325,0.3295,0.3326,0.3341,0.3386,0.3412,0.3412,0.3412,0.3412,0.3412,0.3412,0.3412,0.3412,0.3426,0.3433,0.3434,0.3464,0.3478,0.3479,0.3495,0.3486,0.3457,0.3457,0.344,0.3412,0.3412,0.3412,0.3412,0.3412,0.3412,0.3412,0.0,0.0,0.0,0.0,0.0,0.0,0.0,0.0,0.0,0.0,0.0,0.0,0.0,0.0,0.0,0.0,0.0,0.0,0.0,0.0,0.0,0.0,0.16,0.162,0.1624,0.165,0.1563,0.1675,0.1699,0.1821,0.1825,0.1821,0.1707,0.1591,0.1568,0.1645,0.1615,0.159,0.1594,0.1614,0.159,0.0,0.0,0.0,0.0,0.0,0.0,0.0,0.0,0.1794,0.1814,0.1846,0.1876,0.0,0.0,0.0,0.0,0.0,0.2114,0.2135,0.2159,0.2177,0.2169,0.2168,0.2217,0.2217,0.2215,0.2247,0.2294,0.2339,0.2363,0.2472,0.2627,0.284,0.2846,0.2889,0.3071,0.3197,0.327,0.3275,0.3298,0.3306,0.3284,0.3251,0.3243,0.3273,0.3303,0.3335,0.3365,0.3396,0.3412,0.3412,0.3412,0.3412,0.3412,0.3412,0.3412,0.3412,0.3438,0.345,0.3452,0.3482,0.3499,0.3502,0.3502,0.3487,0.3464,0.3459,0.344,0.3412,0.3412,0.3412,0.3412,0.3412,0.3412,0.3412,0.0,0.0,0.0,0.0,0.0,0.0,0.0,0.0,0.0,0.0,0.0,0.0,0.0,0.0,0.0,0.0,0.0,0.0,0.0,0.0,0.0,0.157,0.16,0.1629,0.1552,0.1555,0.1686,0.1737,0.1741,0.1756,0.178,0.1755,0.1824,0.1773,0.1665,0.1645,0.1617,0.1611,0.1613,0.1617,0.1611,0.0,0.0,0.0,0.0,0.0,0.0,0.0,0.0,0.1786,0.1814,0.1846,0.1876,0.0,0.0,0.0,0.0,0.0,0.2133,0.2151,0.2178,0.2279,0.2229,0.2189,0.232,0.2293,0.2247,0.2278,0.2409,0.2519,0.2525,0.2765,0.2943,0.2883,0.2951,0.3031,0.3089,0.3178,0.3246,0.3272,0.328,0.3291,0.3311,0.3264,0.3243,0.3273,0.3303,0.3335,0.3365,0.3396,0.3412,0.3412,0.3412,0.3412,0.3412,0.3412,0.3412,0.3412,0.3416,0.3419,0.342,0.345,0.3478,0.3502,0.3502,0.3499,0.3493,0.3468,0.344,0.3412,0.3412,0.3412,0.3412,0.3412,0.3412,0.3412,0.0,0.0,0.0,0.0,0.0,0.0,0.0,0.0,0.0,0.0,0.0,0.0,0.0,0.0,0.0,0.0,0.0,0.0,0.0,0.0,0.1539,0.157,0.16,0.163,0.1558,0.1677,0.1707,0.1749,0.1765,0.1782,0.1794,0.178,0.175,0.1815,0.1692,0.1564,0.164,0.1624,0.1617,0.1617,0.0,0.0,0.0,0.0,0.0,0.0,0.0,0.0,0.0,0.0,0.1805,0.1824,0.187,0.0,0.0,0.0,0.0,0.0,0.2119,0.2142,0.2203,0.2405,0.2364,0.2303,0.2403,0.2458,0.2459,0.2358,0.2469,0.2587,0.2604,0.2744,0.2893,0.3002,0.3146,0.3251,0.3265,0.3317,0.3352,0.335,0.3321,0.3299,0.3296,0.3257,0.325,0.3296,0.3313,0.3341,0.3388,0.3404,0.3412,0.3412,0.3412,0.3412,0.3412,0.3429,0.3429,0.3412,0.3429,0.3437,0.3437,0.3468,0.349,0.3502,0.3484,0.3478,0.3476,0.3445,0.3425,0.3412,0.3412,0.3412,0.3412,0.3412,0.3412,0.3412,0.0,0.0,0.0,0.0,0.0,0.0,0.0,0.0,0.0,0.0,0.0,0.0,0.0,0.0,0.0,0.0,0.0,0.0,0.0,0.0847,0.144,0.156,0.1596,0.163,0.1558,0.169,0.1826,0.1749,0.178,0.1795,0.1795,0.1795,0.1779,0.1749,0.1725,0.1589,0.1557,0.1637,0.1624,0.1617,0.0,0.0,0.0,0.0,0.0,0.0,0.0,0.0,0.0,0.0,0.0,0.0,0.0,0.0,0.0,0.2001,0.2065,0.2108,0.2117,0.2162,0.2259,0.2474,0.2453,0.241,0.2536,0.2626,0.2641,0.2492,0.2582,0.2695,0.2725,0.2778,0.2897,0.3135,0.329,0.3388,0.3408,0.3431,0.3433,0.3395,0.335,0.3306,0.3269,0.3243,0.3255,0.3317,0.3321,0.3347,0.3408,0.3412,0.3412,0.3412,0.3412,0.3415,0.3422,0.3446,0.3445,0.3423,0.3453,0.3468,0.3468,0.3493,0.3502,0.3502,0.3471,0.3457,0.3454,0.3425,0.3412,0.3412,0.3412,0.3412,0.3412,0.3412,0.3412,0.3412,0.0,0.0,0.0,0.0,0.0,0.0,0.0,0.0,0.0,0.0,0.0,0.0,0.0,0.0,0.0,0.0,0.0,0.0,0.0,0.084,0.1431,0.1625,0.1585,0.163,0.1558,0.169,0.1826,0.1749,0.178,0.1795,0.1795,0.1795,0.1779,0.1749,0.1748,0.1715,0.1558,0.1555,0.1643,0.1617,0.1617,0.0,0.0,0.0,0.0,0.0,0.0,0.0,0.0,0.0,0.0,0.0,0.0,0.0,0.1909,0.2026,0.2142,0.2221,0.2166,0.2255,0.2373,0.2421,0.2405,0.2461,0.2773,0.2744,0.2662,0.2703,0.2831,0.2945,0.2975,0.3096,0.3208,0.3258,0.3277,0.3315,0.34,0.3414,0.3393,0.3335,0.3324,0.3298,0.3239,0.3231,0.3255,0.3317,0.3321,0.3347,0.3408,0.3412,0.3412,0.3412,0.3412,0.3426,0.3453,0.3456,0.3456,0.3454,0.3484,0.3499,0.3499,0.3502,0.3502,0.3502,0.3471,0.3457,0.3454,0.3425,0.3412,0.3412,0.3412,0.3412,0.3412,0.3412,0.3412,0.3412,0.0,0.0,0.0,0.0,0.0,0.0,0.0,0.0,0.0,0.0,0.0,0.0,0.0,0.0,0.0,0.0,0.0,0.0,0.0,0.0839,0.143,0.1621,0.1584,0.1622,0.1633,0.168,0.1719,0.1749,0.178,0.1795,0.1795,0.1795,0.1789,0.1776,0.1759,0.1727,0.1688,0.167,0.1644,0.1617,0.1617,0.1617,0.0,0.0,0.0,0.0,0.0,0.0,0.0,0.0,0.1757,0.1778,0.1838,0.187,0.1906,0.2007,0.2082,0.2136,0.215,0.2264,0.2408,0.2532,0.2568,0.2612,0.2757,0.2875,0.293,0.2841,0.2912,0.301,0.3078,0.3138,0.3216,0.334,0.3296,0.3285,0.3396,0.3396,0.3375,0.3352,0.3315,0.3284,0.3261,0.3242,0.3255,0.3317,0.3321,0.3347,0.3408,0.3412,0.342,0.344,0.344,0.3454,0.3484,0.3502,0.3513,0.3513,0.3506,0.3502,0.3502,0.3502,0.3493,0.3474,0.3463,0.3446,0.3429,0.3416,0.3412,0.3412,0.3412,0.3412,0.3412,0.3412,0.3412,0.3412,0.0,0.0,0.0,0.0,0.0,0.0,0.0,0.0,0.0,0.0,0.0,0.0,0.0,0.0,0.0,0.0,0.0,0.0,0.0,0.0839,0.143,0.1621,0.1584,0.1617,0.1617,0.1562,0.1705,0.1844,0.1775,0.1795,0.1795,0.1795,0.1795,0.1794,0.1774,0.1851,0.1809,0.1684,0.1549,0.1617,0.1617,0.1617,0.0,0.0,0.0,0.0,0.0,0.0,0.0,0.0,0.1741,0.176,0.1821,0.1861,0.1903,0.1992,0.2067,0.2125,0.2148,0.2298,0.2469,0.2555,0.2671,0.2769,0.2789,0.2924,0.302,0.2934,0.3017,0.3116,0.315,0.318,0.3236,0.3351,0.3299,0.3284,0.3396,0.3395,0.3377,0.3367,0.3329,0.33,0.3291,0.327,0.328,0.3332,0.3336,0.3358,0.341,0.342,0.3435,0.3456,0.3467,0.3486,0.3516,0.3534,0.3549,0.3558,0.354,0.3531,0.3531,0.352,0.3499,0.3471,0.3461,0.344,0.3412,0.3412,0.3412,0.3412,0.3412,0.3412,0.3412,0.3412,0.3412,0.3412,0.0,0.0,0.0,0.0,0.0,0.0,0.0,0.0,0.0,0.0,0.0,0.0,0.0,0.0,0.0,0.0,0.0,0.0,-0.0,0.0838,0.143,0.1621,0.1584,0.1617,0.1617,0.1647,0.1677,0.1811,0.1765,0.1795,0.1795,0.1795,0.1795,0.1795,0.1795,0.1761,0.1811,0.1704,0.1566,0.1617,0.1617,0.1617,0.1617,0.0,0.0,0.0,0.0,0.0,0.0,0.0,0.1725,0.176,0.182,0.1861,0.1903,0.1993,0.2127,0.2233,0.2174,0.2376,0.2575,0.2457,0.2673,0.2916,0.2916,0.2872,0.2864,0.2983,0.3174,0.3294,0.3205,0.3261,0.3311,0.3281,0.3276,0.3307,0.3399,0.3412,0.34,0.337,0.3367,0.3355,0.3325,0.3321,0.3333,0.3365,0.3366,0.338,0.3411,0.3441,0.3457,0.3457,0.3487,0.3516,0.3544,0.3544,0.3558,0.3589,0.3589,0.3589,0.3589,0.3558,0.3531,0.3502,0.3471,0.344,0.3412,0.3412,0.3412,0.3412,0.3412,0.3412,0.3412,0.3412,0.3412,0.3412,0.0,0.0,0.0,0.0,0.0,0.0,0.0,0.0,0.0,0.0,0.0,0.0,0.0,0.0,0.0,0.0,0.0,0.0,-0.0179,0.0932,0.1525,0.1621,0.1584,0.1617,0.1617,0.1647,0.1686,0.1844,0.1776,0.1795,0.1795,0.1795,0.1795,0.1795,0.1795,0.1761,0.1811,0.1704,0.1566,0.1617,0.1617,0.1617,0.1617,0.0,0.0,0.0,0.0,0.0,0.0,0.0,0.0,0.0,0.1764,0.1827,0.18,0.1964,0.2056,0.2274,0.2255,0.2581,0.2727,0.2712,0.2812,0.2927,0.2971,0.2983,0.299,0.3003,0.3174,0.3306,0.3258,0.3254,0.329,0.3388,0.3332,0.3307,0.3399,0.3412,0.3408,0.34,0.338,0.3363,0.3354,0.3333,0.3343,0.3395,0.3378,0.3399,0.3472,0.3464,0.3476,0.3516,0.3527,0.3549,0.3576,0.3576,0.358,0.3589,0.3589,0.3589,0.3589,0.3558,0.3531,0.3502,0.3471,0.344,0.3412,0.3412,0.3412,0.3412,0.3412,0.3412,0.3412,0.3412,0.3412,0.3412,0.0,0.0,0.0,0.0,0.0,0.0,0.0,0.0,0.0,0.0,-0.5018,-0.5018,0.0,0.0,0.0,0.0,0.0,0.0,-0.0179,0.1018,0.1608,0.1621,0.1573,0.1605,0.1617,0.1647,0.168,0.1715,0.1756,0.1783,0.1795,0.1795,0.1795,0.1795,0.1795,0.1768,0.1829,0.171,0.1572,0.1635,0.1622,0.1617,0.1617,0.0,0.0,0.0,0.0,0.0,0.0,0.0,0.0,0.0,0.174,0.1853,0.1867,0.1954,0.2225,0.2517,0.2448,0.2632,0.2803,0.281,0.289,0.298,0.3017,0.3048,0.3069,0.3062,0.3219,0.3348,0.3317,0.3317,0.3347,0.3426,0.3378,0.335,0.3404,0.3412,0.3412,0.3412,0.3396,0.3385,0.3385,0.3378,0.339,0.3427,0.3425,0.3445,0.3499,0.3495,0.3509,0.3544,0.3555,0.3572,0.3589,0.3589,0.3589,0.3589,0.3589,0.3589,0.3589,0.3549,0.352,0.3499,0.3457,0.3429,0.3412,0.3412,0.3412,0.3412,0.3412,0.3412,0.3412,0.3412,0.3412,0.3412,0.0,0.0,0.0,0.0,0.0,0.0,0.0,0.0,0.0,-0.5018,-0.5018,-0.5018,0.0,0.0,0.0,-0.0251,0.0,0.0,0.0,0.0914,0.1493,0.1616,0.1554,0.1585,0.1615,0.1644,0.1555,0.1558,0.1718,0.1761,0.1791,0.1791,0.1791,0.1791,0.1794,0.1776,0.1744,0.1719,0.1585,0.1555,0.1632,0.162,0.1617,0.1617,0.0,0.0,0.0,0.0,0.0,0.0,0.0,0.0,0.1737,0.1783,0.1813,0.2011,0.2367,0.2623,0.269,0.2755,0.2821,0.2807,0.2932,0.3062,0.3065,0.3092,0.3122,0.3135,0.3283,0.3397,0.3365,0.341,0.3444,0.3416,0.3412,0.3412,0.3412,0.3412,0.3412,0.3412,0.3412,0.3412,0.3412,0.344,0.3459,0.3461,0.3487,0.3506,0.3509,0.3531,0.3544,0.3549,0.3576,0.3589,0.3589,0.3589,0.3589,0.3589,0.3589,0.3589,0.3583,0.3527,0.3499,0.3491,0.3435,0.3412,0.3412,0.3412,0.3412,0.3412,0.3412,0.3412,0.3412,0.3412,0.3412,0.3412,0.0,0.0,0.0,0.0,0.0,0.0,0.0,0.0,-0.5018,-0.5018,-0.5018,-0.5018,-0.5018,-0.2669,0.0,-0.0084,0.0,0.0,0.0,0.0183,0.0742,0.1583,0.1638,0.1585,0.1615,0.1624,0.1639,0.1558,0.1697,0.1838,0.176,0.176,0.176,0.176,0.1785,0.1765,0.1822,0.1733,0.171,0.1558,0.1552,0.1639,0.1617,0.1617,0.1617,0.0,0.0,0.0,0.0,0.0,0.0,0.0,0.1712,0.1798,0.1926,0.2592,0.2461,0.247,0.2905,0.2891,0.2819,0.2931,0.3041,0.313,0.3153,0.3217,0.3242,0.313,0.3251,0.3359,0.3306,0.3365,0.3419,0.3412,0.3412,0.3412,0.3412,0.3412,0.3412,0.3412,0.3412,0.3412,0.3412,0.344,0.3467,0.3491,0.3499,0.3524,0.3569,0.3555,0.3555,0.358,0.3587,0.3589,0.3589,0.3589,0.3589,0.3589,0.3589,0.3576,0.3551,0.352,0.3476,0.343,0.3418,0.3412,0.3412,0.3412,0.3412,0.3412,0.3412,0.3412,0.3412,0.3412,0.3412,0.3412,0.0,0.0,0.0,0.0,0.0,0.0,0.0,0.0,-0.5018,-0.5018,-0.5018,-0.5018,-0.5023,-0.2033,0.0,0.0,0.0,0.0,0.0,0.0454,0.0916,0.148,0.1525,0.1564,0.1595,0.1595,0.161,0.164,0.1655,0.1685,0.1727,0.1727,0.1837,0.1838,0.176,0.1756,0.1835,0.1853,0.1733,0.1703,0.1582,0.1568,0.1555,0.1555,0.1555,0.1555,0.1555,0.0,0.0,0.0,0.0,0.0,0.0,0.0,0.1838,0.2282,0.2181,0.2224,0.2575,0.2885,0.3023,0.3009,0.3097,0.315,0.3182,0.3257,0.3299,0.3221,0.3302,0.3378,0.3347,0.338,0.3412,0.3412,0.3412,0.3412,0.3412,0.3412,0.3412,0.3412,0.3412,0.3412,0.3412,0.3453,0.3486,0.3502,0.3527,0.3558,0.3589,0.3576,0.3572,0.3589,0.3589,0.3589,0.3589,0.3589,0.3589,0.3589,0.3589,0.3565,0.3524,0.3495,0.3456,0.3412,0.3412,0.3412,0.3412,0.3412,0.3412,0.3412,0.3412,0.3412,0.3412,0.3412,0.3412,0.3412,0.0,0.0,0.0,0.0,0.0,0.0,0.0,0.0,0.0,-0.5018,-0.5018,-0.4784,-0.4238,-0.1644,0.0,0.0,0.0,0.0,0.0,0.0719,0.1269,0.1387,0.1505,0.1535,0.157,0.1572,0.1587,0.1617,0.1617,0.1641,0.1584,0.1695,0.1803,0.1805,0.1626,0.1637,0.1851,0.1753,0.1755,0.1748,0.1722,0.1601,0.1598,0.1598,0.1598,0.1598,0.1598,0.1598,0.1594,0.1677,0.0,0.0,0.0,0.0,0.1761,0.1821,0.1874,0.2097,0.2151,0.2647,0.3053,0.3059,0.3125,0.3152,0.3187,0.3257,0.3314,0.332,0.337,0.3412,0.3412,0.3412,0.3412,0.3412,0.3412,0.3412,0.3412,0.3412,0.3412,0.3412,0.3412,0.3412,0.3412,0.3463,0.3495,0.3502,0.3551,0.3583,0.3589,0.3589,0.3589,0.3589,0.3589,0.3589,0.3589,0.3589,0.3589,0.3589,0.358,0.3549,0.3502,0.3465,0.3435,0.3412,0.3412,0.3412,0.3412,0.3412,0.3412,0.3412,0.3412,0.3412,0.3412,0.3412,0.3412,0.3412,0.0,0.0,0.0,0.0,0.0,0.0,0.0,0.0,0.0,0.0,-0.5018,-0.3912,-0.1016,-0.0235,0.0,0.0,0.0,0.0,0.0,0.0,0.0,0.1387,0.1392,0.1419,0.1472,0.1572,0.1587,0.1617,0.1617,0.1621,0.1629,0.1655,0.1667,0.167,0.1617,0.1627,0.1821,0.1767,0.1774,0.1749,0.1745,0.1727,0.1811,0.1811,0.1811,0.1811,0.1811,0.1811,0.1811,0.1806,0.1722,0.0,0.0,0.0,0.1756,0.1769,0.184,0.2083,0.2125,0.2568,0.3058,0.3085,0.314,0.3157,0.3212,0.3254,0.329,0.3315,0.337,0.3412,0.3412,0.3412,0.3412,0.3412,0.3412,0.3412,0.3412,0.3412,0.3412,0.3412,0.3412,0.3412,0.3412,0.3442,0.3475,0.3499,0.3534,0.3562,0.3589,0.3589,0.3589,0.3589,0.3589,0.3589,0.3589,0.3589,0.3589,0.3589,0.3538,0.3509,0.3499,0.3444,0.3415,0.3412,0.3412,0.3412,0.3412,0.3412,0.3412,0.3412,0.3412,0.3412,0.3412,0.3412,0.3412,0.3412,0.0,0.0,0.0,0.0,0.0,0.0,0.0,0.0,0.0,0.0,0.0,-0.3698,-0.0325,0.0,0.0,0.0,0.0,0.0,0.0,0.0,0.018,0.0636,0.1091,0.1383,0.1425,0.1538,0.1561,0.1591,0.1609,0.1617,0.1617,0.163,0.1637,0.1639,0.1576,0.1701,0.1813,0.175,0.1772,0.1775,0.1775,0.1767,0.1755,0.1755,0.1755,0.1755,0.1755,0.1755,0.1752,0.1844,0.175,0.1772,0.1755,0.0,0.0,0.0,0.1929,0.2026,0.211,0.2578,0.3056,0.3155,0.3081,0.3179,0.3221,0.3254,0.329,0.3337,0.3367,0.3392,0.3408,0.3412,0.3412,0.3412,0.3412,0.3412,0.3412,0.3412,0.3412,0.3412,0.3412,0.3412,0.3412,0.344,0.3463,0.3476,0.352,0.3551,0.3565,0.358,0.3589,0.3589,0.3589,0.3589,0.3589,0.3589,0.3583,0.3565,0.3524,0.3493,0.3476,0.3431,0.3412,0.3412,0.3412,0.3412,0.3412,0.3412,0.3412,0.3412,0.3412,0.3412,0.3412,0.3412,0.3412,0.3412,0.0,0.0,0.0,0.0,0.0,0.0,0.0,0.0,0.0,0.0,0.0,-0.2808,-0.0252,0.0,0.0,0.0,0.0,0.0,0.0,0.0,0.0,0.0,0.0896,0.1359,0.1388,0.151,0.154,0.1572,0.1602,0.1617,0.1617,0.1617,0.1617,0.1618,0.1648,0.1678,0.1707,0.1737,0.1767,0.1795,0.1804,0.1806,0.1808,0.1814,0.1819,0.1819,0.1819,0.1819,0.1813,0.1783,0.1787,0.1801,0.1771,0.1804,0.0,0.0,0.0,0.2037,0.212,0.253,0.2943,0.304,0.3191,0.3138,0.3213,0.3254,0.3291,0.3135,0.336,0.3375,0.3407,0.3412,0.3412,0.3412,0.3412,0.3412,0.3412,0.3412,0.3412,0.3412,0.3412,0.3412,0.3412,0.3433,0.3449,0.3456,0.3499,0.3527,0.3534,0.3562,0.358,0.358,0.3587,0.3589,0.3589,0.3589,0.3576,0.3544,0.3516,0.3486,0.3456,0.3426,0.3412,0.3412,0.3412,0.3412,0.3412,0.3412,0.3412,0.3412,0.3412,0.3412,0.3412,0.3412,0.3412,0.3412,0.0,0.0,0.0,0.0,0.0,0.0,0.0,0.0,0.0,0.0,0.0,-0.0168,-0.0,0.0,0.0,0.0,0.0,0.0,0.0,0.0,0.0,0.0,0.0896,0.0,0.1388,0.1416,0.1444,0.1572,0.1602,0.1617,0.1617,0.1617,0.1617,0.1618,0.1648,0.1573,0.16,0.1737,0.1767,0.1797,0.1827,0.1838,0.184,0.1754,0.1764,0.1764,0.1764,0.1764,0.1759,0.1846,0.1836,0.1832,0.1802,0.1835,0.1879,0.0,0.0,0.0,0.2102,0.2201,0.233,0.3005,0.3104,0.3169,0.3185,0.3254,0.3284,0.3317,0.3345,0.3375,0.3407,0.3412,0.3412,0.3412,0.3412,0.3412,0.3412,0.3412,0.3412,0.3412,0.3412,0.3412,0.3412,0.3414,0.3426,0.3454,0.346,0.3475,0.3502,0.3531,0.3549,0.3549,0.3576,0.3589,0.3589,0.3589,0.3576,0.3544,0.3517,0.3486,0.3456,0.3426,0.3412,0.3412,0.3412,0.3412,0.3412,0.3412,0.3412,0.3412,0.3412,0.3412,0.3412,0.3412,0.3412,0.3412,0.0,0.0,0.0,0.0,0.0,0.0,0.0,0.0,0.0,0.0,0.0,0.0,0.0,0.0,0.0,0.0,0.0,0.0,0.0,0.0,0.0,0.0,0.0896,0.1441,0.1361,0.1389,0.1512,0.1638,0.1573,0.1598,0.1617,0.1617,0.1617,0.1617,0.1628,0.1555,0.1598,0.1716,0.176,0.1834,0.1819,0.1871,0.1888,0.1898,0.1902,0.1902,0.1902,0.1915,0.1939,0.1867,0.1842,0.1779,0.186,0.1808,0.1769,0.1896,0.1955,0.2037,0.2123,0.2259,0.2262,0.2563,0.2871,0.3185,0.313,0.323,0.3324,0.3418,0.329,0.3352,0.3403,0.3412,0.3412,0.3412,0.3412,0.3412,0.3412,0.3412,0.3412,0.3412,0.3412,0.3412,0.3412,0.3412,0.3416,0.3427,0.3446,0.3463,0.3472,0.3502,0.3516,0.3516,0.3527,0.3534,0.3534,0.3534,0.352,0.3489,0.3478,0.3457,0.3427,0.3416,0.3412,0.3412,0.3412,0.3412,0.3412,0.3412,0.3412,0.3412,0.3412,0.3412,0.3412,0.3412,0.3412,0.3412,0.0,0.0,0.0,0.0,0.0,0.0,0.0,0.0,0.0,0.0,0.0,0.0,0.0,0.0,0.0,0.0,0.0,0.0,0.0,0.0,0.0179,0.0448,0.1077,0.1436,0.1436,0.1364,0.148,0.151,0.1542,0.1572,0.1602,0.1611,0.1617,0.1617,0.1617,0.165,0.1598,0.1704,0.1757,0.185,0.1837,0.2029,0.233,0.2254,0.2153,0.204,0.1938,0.0,0.2286,0.2356,0.2292,0.2174,0.1981,0.1874,0.1775,0.1814,0.1974,0.2014,0.2053,0.2173,0.2165,0.2251,0.2536,0.2842,0.2949,0.2915,0.3044,0.3321,0.3449,0.3348,0.3389,0.3405,0.3412,0.3412,0.342,0.3423,0.3414,0.3412,0.3412,0.3412,0.3412,0.3412,0.3412,0.3412,0.3412,0.3412,0.343,0.3442,0.3442,0.3471,0.3493,0.3502,0.3502,0.3502,0.3502,0.3502,0.3487,0.3457,0.3457,0.3441,0.3412,0.3412,0.3412,0.3412,0.3412,0.3412,0.3412,0.3412,0.3412,0.3412,0.3412,0.3412,0.3412,0.3412,0.3412,0.3412,0.0,0.0,0.0,0.0,0.0,0.0,0.0,0.0,0.0,0.0,0.0,0.0,0.0,0.0,0.0,0.0,0.0,0.0,0.0,0.0,0.0449,0.1347,0.1436,0.1436,0.1436,0.1436,0.136,0.1388,0.151,0.1638,0.1572,0.1602,0.1617,0.1617,0.1617,0.165,0.1598,0.1705,0.1759,0.1844,0.2003,0.2302,0.2886,0.2832,0.2533,0.2028,0.1976,0.2338,0.0,0.3113,0.2977,0.2803,0.2172,0.1902,0.178,0.1958,0.1975,0.1989,0.0,0.0,0.0,0.2216,0.2286,0.2352,0.2355,0.2348,0.2659,0.3051,0.3216,0.336,0.3366,0.3392,0.3412,0.3412,0.3437,0.3446,0.3416,0.3412,0.3412,0.3412,0.3412,0.3412,0.3412,0.3412,0.3412,0.3412,0.3412,0.3412,0.3412,0.344,0.3469,0.3499,0.3499,0.3499,0.3499,0.3499,0.3484,0.3456,0.3456,0.3441,0.3412,0.3412,0.3412,0.3412,0.3412,0.3412,0.3412,0.3412,0.3412,0.3412,0.3412,0.3412,0.3412,0.3412,0.3412,0.3412,0.0,0.0,0.0,0.0,0.0,0.0,0.0,0.0,0.0,0.0,0.0,0.0,0.0,0.0,0.0,0.0,0.0,0.0,0.0,0.0647,0.1101,0.1376,0.1356,0.1436,0.1436,0.1436,0.136,0.1295,0.1416,0.1542,0.1572,0.1602,0.1617,0.1617,0.1617,0.165,0.1599,0.1727,0.179,0.1778,0.1896,0.2155,0.2202,0.2343,0.2567,0.2745,0.0,0.2944,0.299,0.0,0.3129,0.299,0.2245,0.1992,0.1951,0.1945,0.1959,0.1985,0.2022,0.0,0.0,0.0,0.0,0.0,0.2238,0.2307,0.2572,0.3026,0.3327,0.3212,0.3343,0.341,0.3437,0.3415,0.3437,0.3446,0.3416,0.343,0.3437,0.3414,0.3412,0.3412,0.3412,0.3412,0.3412,0.3412,0.3412,0.3412,0.3412,0.342,0.3429,0.3437,0.3437,0.3437,0.3437,0.3437,0.3433,0.3425,0.3425,0.342,0.3412,0.3412,0.3412,0.3412,0.3412,0.3412,0.3412,0.3412,0.3412,0.3412,0.3412,0.3412,0.3412,0.3412,0.3412,0.3412,0.0,0.0,0.0,0.0,0.0,0.0,0.0,0.0,0.0,0.0,0.0,0.0,0.0,0.0,0.0,0.0,0.0,0.0191,0.0668,0.1226,0.1494,0.1389,0.1371,0.1357,0.1436,0.1423,0.1342,0.137,0.1398,0.1428,0.1553,0.1596,0.1617,0.1617,0.163,0.1557,0.1601,0.1764,0.1869,0.1886,0.2036,0.0,0.2425,0.2551,0.2787,0.0,0.0,0.0,0.3034,0.2943,0.2818,0.2717,0.2158,0.2067,0.1961,0.2011,0.199,0.2003,0.2045,0.206,0.2079,0.2139,0.0,0.0,0.2244,0.2473,0.2762,0.2722,0.2976,0.3231,0.3423,0.3242,0.325,0.3309,0.3333,0.336,0.3405,0.3427,0.3437,0.3431,0.3419,0.3416,0.343,0.3419,0.3412,0.3412,0.3412,0.3412,0.3412,0.3412,0.3412,0.3412,0.3412,0.3412,0.3412,0.3412,0.3412,0.3412,0.3412,0.3412,0.3412,0.3412,0.3412,0.3412,0.3412,0.3412,0.3412,0.3412,0.3412,0.3412,0.3412,0.3412,0.3412,0.3412,0.3412,0.3412,0.0,0.0,0.0,0.0,0.0,0.0,0.0,0.0,0.0,0.0,0.0,0.0,0.0,0.01,0.0198,0.0198,0.0195,0.0578,0.154,0.1631,0.1519,0.1398,0.1394,0.1379,0.1441,0.1414,0.1411,0.1436,0.1378,0.15,0.1622,0.1588,0.1617,0.1618,0.1648,0.1575,0.1608,0.1802,0.1843,0.2022,0.2067,0.2441,0.0,0.0,0.2894,0.2837,0.2885,0.2996,0.2848,0.3011,0.2543,0.0,0.2277,0.2211,0.1985,0.1996,0.2056,0.2031,0.1958,0.1954,0.2078,0.2135,0.2173,0.0,0.2255,0.2673,0.3011,0.2391,0.2787,0.321,0.322,0.3166,0.315,0.3323,0.317,0.3232,0.3371,0.3392,0.3401,0.3429,0.3408,0.341,0.3453,0.343,0.3414,0.3416,0.3414,0.3412,0.3412,0.3412,0.3412,0.3412,0.3412,0.3412,0.3412,0.3412,0.3412,0.3412,0.3412,0.3412,0.3412,0.3412,0.3412,0.3412,0.3412,0.3412,0.3412,0.3412,0.3412,0.3412,0.3412,0.3412,0.3412,0.3412,0.3412,0.3412,0.0,0.0,0.0,0.0,0.0,0.0,0.0,0.0,0.0,0.0,0.0,0.0,0.0,0.0737,0.1261,0.1261,0.1239,0.1329,0.1636,0.159,0.156,0.1554,0.1434,0.1408,0.138,0.1374,0.1362,0.1436,0.1397,0.1425,0.1622,0.1588,0.1617,0.1618,0.1648,0.1692,0.1745,0.1812,0.1866,0.2096,0.2625,0.2643,0.2339,0.2461,0.2516,0.2897,0.2945,0.2969,0.3134,0.3099,0.2747,0.2244,0.2734,0.2616,0.2169,0.212,0.2138,0.2154,0.2063,0.2068,0.2202,0.2241,0.2142,0.0,0.2207,0.2323,0.2493,0.2317,0.2824,0.2994,0.2639,0.2506,0.2713,0.293,0.3056,0.3179,0.3255,0.3265,0.3268,0.3273,0.3269,0.3315,0.3445,0.343,0.3422,0.3446,0.3426,0.3412,0.3412,0.3412,0.3412,0.3412,0.3412,0.3412,0.3412,0.3412,0.3412,0.3412,0.3412,0.3412,0.3412,0.3412,0.3412,0.3412,0.3412,0.3412,0.3412,0.3412,0.3412,0.3412,0.3412,0.3412,0.3412,0.3412,0.3412,0.3412,0.0,0.0,0.0,0.0,0.0,0.0,0.0,0.0,0.0206,0.084,0.0855,0.0867,0.0875,0.1422,0.1752,0.1752,0.1723,0.1705,0.1599,0.165,0.161,0.1595,0.1565,0.1535,0.1504,0.141,0.1402,0.1388,0.1431,0.1452,0.1647,0.1595,0.1625,0.164,0.1566,0.1716,0.1782,0.1812,0.1876,0.208,0.2807,0.0,0.2515,0.2628,0.2689,0.3085,0.3147,0.3191,0.3189,0.3171,0.2633,0.2299,0.2912,0.2923,0.2542,0.2348,0.2217,0.222,0.1973,0.2098,0.2225,0.2257,0.2143,0.0,0.0,0.2253,0.2273,0.2212,0.2487,0.2607,0.2292,0.2287,0.229,0.2552,0.2803,0.2878,0.2951,0.317,0.3321,0.3321,0.3321,0.3351,0.3427,0.342,0.3418,0.3434,0.3434,0.3427,0.3412,0.3412,0.3412,0.3412,0.3412,0.3412,0.3412,0.3412,0.3412,0.3412,0.3412,0.3412,0.3412,0.3412,0.3412,0.3412,0.3412,0.3412,0.3412,0.3412,0.3412,0.3412,0.3412,0.3412,0.3412,0.3412,0.3412,0.3412,0.0,0.0,0.0,0.0,0.0203,0.0306,0.0311,0.0313,0.0741,0.1628,0.1871,0.1798,0.1858,0.1834,0.1824,0.1853,0.1801,0.1767,0.1656,0.1605,0.1669,0.1643,0.1609,0.1575,0.1641,0.1538,0.1437,0.143,0.146,0.1474,0.1572,0.1602,0.1633,0.1559,0.1591,0.1655,0.1752,0.1952,0.202,0.2199,0.0,0.3089,0.2833,0.2948,0.2998,0.3023,0.3156,0.3051,0.3081,0.3156,0.2765,0.2567,0.2914,0.3097,0.2974,0.242,0.2281,0.2157,0.2027,0.2136,0.2249,0.2147,0.2155,0.2161,0.0,0.0,0.0,0.223,0.2171,0.2281,0.2275,0.2212,0.2187,0.233,0.2375,0.257,0.2624,0.3013,0.3287,0.3275,0.3279,0.3302,0.3355,0.3407,0.343,0.3414,0.345,0.3456,0.3414,0.3412,0.3412,0.3412,0.3412,0.3412,0.3412,0.3412,0.3412,0.3412,0.3412,0.3412,0.3412,0.3412,0.3412,0.3412,0.3412,0.3412,0.3412,0.3412,0.3412,0.3412,0.3412,0.3412,0.3412,0.3412,0.3412,0.3412,0.0201,0.0,0.0,0.0,0.0819,0.1451,0.1454,0.1492,0.1659,0.1738,0.1868,0.1933,0.1964,0.1971,0.1929,0.1934,0.1924,0.1944,0.1829,0.1774,0.1738,0.1626,0.1576,0.1637,0.1607,0.158,0.1553,0.1621,0.1557,0.1572,0.1572,0.1602,0.1633,0.1561,0.172,0.175,0.182,0.1916,0.2358,0.3045,0.3179,0.3118,0.2861,0.3032,0.3172,0.3026,0.3182,0.3069,0.3281,0.3208,0.3069,0.2922,0.2522,0.2762,0.3009,0.2507,0.2313,0.2161,0.2188,0.2153,0.2249,0.2147,0.2155,0.2155,0.2159,0.0,0.2165,0.2187,0.0,0.2211,0.2232,0.0,0.0,0.2174,0.2364,0.2495,0.2424,0.2668,0.2834,0.2781,0.2797,0.2909,0.315,0.3389,0.3495,0.3418,0.3487,0.3499,0.3416,0.3412,0.3412,0.3412,0.3412,0.3412,0.3412,0.3412,0.3412,0.3412,0.3412,0.3412,0.3412,0.3412,0.3412,0.3412,0.3412,0.3412,0.3412,0.3412,0.3412,0.3412,0.3412,0.3412,0.3412,0.3412,0.3412,0.3412,0.1012,0.091,0.0913,0.0923,0.1344,0.1575,0.1731,0.1805,0.1874,0.1932,0.2074,0.2145,0.203,0.2325,0.233,0.199,0.2009,0.1955,0.0,0.1897,0.184,0.178,0.1714,0.1731,0.1551,0.1571,0.1609,0.1579,0.1592,0.1598,0.1598,0.1611,0.1641,0.1587,0.1725,0.1876,0.1906,0.2444,0.2912,0.3153,0.3214,0.3072,0.3011,0.2761,0.2768,0.3108,0.3077,0.314,0.3149,0.314,0.3331,0.332,0.3058,0.2887,0.2528,0.2293,0.2284,0.2273,0.2192,0.2191,0.2171,0.2168,0.2166,0.2141,0.2178,0.2155,0.2155,0.2155,0.0,0.0,0.0,0.0,0.0,0.0,0.2117,0.2179,0.2304,0.2399,0.2533,0.2699,0.2761,0.2883,0.3119,0.3213,0.3272,0.3303,0.3358,0.3365,0.331,0.3373,0.3412,0.3412,0.3412,0.3412,0.3412,0.3412,0.3412,0.3412,0.3412,0.3412,0.3412,0.3412,0.3412,0.3412,0.3412,0.3412,0.3412,0.3412,0.2985,0.2558,0.3198,0.3412,0.3198,0.1919,0.1492,0.1492,0.1644,0.1635,0.1636,0.1554,0.1675,0.1719,0.1817,0.1895,0.196,0.2007,0.2149,0.2228,0.2125,0.2558,0.2587,0.2152,0.2173,0.2273,0.0,0.0,0.2155,0.185,0.2004,0.1872,0.1681,0.1575,0.1595,0.1629,0.1621,0.1617,0.1617,0.1625,0.1553,0.1605,0.1771,0.1948,0.2282,0.2915,0.3093,0.3159,0.2999,0.2984,0.3027,0.2523,0.2752,0.3192,0.314,0.3178,0.3172,0.3234,0.3412,0.3556,0.337,0.3005,0.2444,0.2401,0.2275,0.2316,0.222,0.2356,0.2477,0.2514,0.2295,0.2205,0.2262,0.2203,0.2165,0.2157,0.2155,0.0,0.0,0.0,0.2139,0.2128,0.0,0.2027,0.2159,0.218,0.2297,0.2571,0.2686,0.2808,0.2979,0.3022,0.3069,0.3138,0.3204,0.3236,0.3231,0.3314,0.3381,0.3423,0.3416,0.3412,0.3412,0.3412,0.3412,0.3412,0.3412,0.3412,0.3412,0.3412,0.3412,0.3412,0.3412,0.3412,0.3412,0.3412,0.2985,0.2345,0.2985,0.3412,0.3198,0.0853,0.0,0.0,0.159,0.1575,0.1557,0.1558,0.171,0.1787,0.2028,0.1954,0.2007,0.2225,0.221,0.2176,0.2163,0.2521,0.2635,0.228,0.0,0.3013,0.2868,0.0,0.2671,0.2072,0.2471,0.246,0.1763,0.1709,0.1607,0.1557,0.163,0.1617,0.1617,0.1647,0.1571,0.1601,0.1691,0.2316,0.3029,0.3156,0.3267,0.3237,0.2529,0.2698,0.3184,0.2598,0.2809,0.3253,0.3155,0.315,0.3123,0.3269,0.3108,0.3294,0.3578,0.3311,0.3051,0.2695,0.2448,0.225,0.2252,0.2788,0.3149,0.3231,0.2667,0.2145,0.2275,0.2179,0.2191,0.2161,0.2155,0.2146,0.2248,0.2242,0.2203,0.2081,0.2138,0.0,0.0,0.2015,0.2117,0.2245,0.2417,0.2551,0.2616,0.2856,0.2986,0.293,0.3063,0.3171,0.3227,0.3234,0.3303,0.3452,0.3427,0.3412,0.3412,0.3412,0.3412,0.3412,0.3412,0.3412,0.3412,0.3412,0.3412,0.3412,0.3412,0.3412,0.3412,0.3412,0.3412,0.3412,0.3412,0.3412,0.3198,0.0853,0.0,0.0,0.16,0.1712,0.172,0.172,0.1753,0.1821,0.1943,0.2128,0.2212,0.0,0.2237,0.0,0.0,0.2612,0.2635,0.0,0.0,0.2926,0.2911,0.2935,0.0,0.0,0.0,0.2697,0.0,0.205,0.1655,0.1584,0.1575,0.1569,0.1569,0.158,0.1599,0.1742,0.1812,0.2044,0.2467,0.2846,0.3211,0.3182,0.3036,0.301,0.3149,0.3112,0.3133,0.3099,0.3028,0.3058,0.3253,0.3305,0.3348,0.3157,0.3285,0.3414,0.3334,0.3226,0.293,0.286,0.2939,0.3091,0.3225,0.2736,0.275,0.2879,0.2353,0.2212,0.2221,0.2191,0.2185,0.2206,0.2132,0.2068,0.2017,0.2054,0.2005,0.2076,0.0,0.2045,0.2079,0.212,0.0,0.0,0.0,0.0,0.2671,0.2789,0.2845,0.2935,0.3074,0.3159,0.3272,0.3422,0.3416,0.3412,0.3412,0.3412,0.3412,0.3412,0.3412,0.3412,0.3412,0.3412,0.2985,0.2345,0.2345,0.2772,0.3412,0.3412,0.3412,0.3199,0.1706,0.1066,0.1066,0.0213,0.0,0.0,0.174,0.1752,0.1763,0.1752,0.1802,0.1891,0.2034,0.2106,0.2187,0.0,0.2365,0.0,0.245,0.0,0.2797,0.0,0.2785,0.2955,0.2953,0.2979,0.0,0.2525,0.284,0.0,0.0,0.2229,0.1788,0.1718,0.1647,0.1715,0.1704,0.1715,0.1737,0.1774,0.1839,0.1906,0.2117,0.2827,0.3153,0.3228,0.3092,0.3133,0.3187,0.3165,0.316,0.3282,0.3067,0.3108,0.3499,0.3326,0.3363,0.3177,0.335,0.3298,0.3447,0.3405,0.332,0.3258,0.334,0.3313,0.3272,0.2733,0.2958,0.3122,0.2389,0.2252,0.2279,0.2261,0.2193,0.2159,0.2232,0.2255,0.2299,0.2101,0.2019,0.1938,0.0,0.2033,0.2037,0.0,0.0,0.0,0.0,0.0,0.2457,0.2615,0.2646,0.2761,0.2994,0.3081,0.3217,0.3422,0.3418,0.3412,0.3412,0.3412,0.3412,0.3412,0.3412,0.3412,0.3412,0.3412,0.2985,0.2345,0.1492,0.1492,0.2132,0.2132,0.2132,0.2132,0.0639,0.0,0.0,0.0,0.0,0.0,0.18,0.1801,0.1793,0.1765,0.1862,0.2004,0.2044,0.2115,0.2173,0.0,0.2619,0.286,0.2929,0.2915,0.2848,0.2936,0.2829,0.2831,0.2842,0.286,0.0,0.0,0.3047,0.2919,0.2978,0.0,0.0,0.1807,0.1857,0.1848,0.1819,0.185,0.177,0.1804,0.1775,0.1936,0.2014,0.2788,0.3103,0.3223,0.3129,0.3108,0.3104,0.2747,0.3097,0.3431,0.3489,0.3313,0.3456,0.334,0.3369,0.3369,0.3369,0.3367,0.3367,0.3158,0.3367,0.3367,0.3369,0.3242,0.3152,0.3117,0.332,0.3288,0.249,0.2386,0.2438,0.2262,0.2276,0.229,0.2142,0.2698,0.2926,0.2265,0.2068,0.2009,0.1982,0.1978,0.1986,0.0,0.0,0.0,0.0,0.0,0.0,0.2414,0.2474,0.2649,0.2973,0.2998,0.3138,0.3434,0.3419,0.3405,0.3405,0.3405,0.3405,0.3405,0.341,0.3412,0.3412,0.3412,0.3412,0.3198,0.0853,0.0,0.0,0.0,0.0,0.0,0.0,0.0,0.0,0.0,0.0,0.0,0.1746,0.188,0.19,0.1915,0.2037,0.2033,0.2138,0.2477,0.2702,0.0,0.2564,0.2619,0.2895,0.2963,0.303,0.3104,0.3074,0.0,0.0,0.0,0.0,0.3123,0.2946,0.3023,0.3113,0.2793,0.2454,0.1967,0.1789,0.1813,0.1805,0.1813,0.1834,0.1748,0.1934,0.1966,0.2182,0.242,0.2474,0.2571,0.2703,0.2748,0.2751,0.306,0.3253,0.3392,0.3345,0.3385,0.3369,0.3392,0.34,0.34,0.34,0.3385,0.3371,0.3393,0.3384,0.3371,0.3395,0.335,0.3314,0.3382,0.3219,0.3242,0.3089,0.3155,0.3193,0.2968,0.2906,0.2718,0.2281,0.24,0.2372,0.2308,0.2081,0.2016,0.2008,0.0,0.0,0.1986,0.0,0.0,0.0,0.0,0.0,0.0,0.2391,0.2518,0.2761,0.2878,0.3037,0.325,0.3292,0.331,0.331,0.331,0.331,0.3311,0.338,0.3412,0.3412,0.3412,0.2558,0.0853,0.0213,0.0,0.0,0.0,0.0,0.0,0.0,0.0,0.0,0.0,0.0,0.0,0.1928,0.1949,0.1988,0.2045,0.2042,0.216,0.2529,0.2808,0.2941,0.2724,0.2426,0.0,0.2875,0.3121,0.3162,0.2975,0.2964,0.0,0.3032,0.0,0.0,0.3014,0.3022,0.295,0.3133,0.2981,0.0,0.2001,0.1973,0.1853,0.178,0.178,0.1796,0.1945,0.1993,0.2112,0.2142,0.2284,0.2492,0.2739,0.2871,0.2932,0.0,0.3251,0.3298,0.3318,0.3388,0.3412,0.3412,0.3412,0.3412,0.3412,0.3412,0.34,0.3389,0.3407,0.34,0.339,0.3407,0.3399,0.339,0.3408,0.3322,0.3238,0.3454,0.3368,0.3469,0.3253,0.3346,0.3108,0.263,0.2716,0.2604,0.2263,0.2083,0.2068,0.0,0.0,0.0,0.0,0.2056,0.0,0.0,0.0,0.0,0.0,0.2361,0.2493,0.0,0.2814,0.2946,0.318,0.3258,0.3264,0.3198,0.3315,0.3341,0.3276,0.3369,0.3412,0.3412,0.2345,0.1279,0.0,0.0,0.0,0.0,0.0,0.0,0.0,0.0,0.0,0.0,0.0,0.0,0.0,0.2005,0.2023,0.2067,0.2147,0.2145,0.2412,0.2941,0.3006,0.2836,0.2543,0.2425,0.2646,0.2998,0.3033,0.3056,0.2862,0.2842,0.3062,0.3164,0.308,0.3056,0.3127,0.3084,0.3044,0.3013,0.304,0.2697,0.2204,0.2043,0.2021,0.1858,0.1858,0.1872,0.2026,0.2189,0.214,0.2264,0.2207,0.2706,0.3188,0.3118,0.3246,0.3373,0.3407,0.3298,0.3412,0.3412,0.3412,0.3412,0.3412,0.3412,0.3412,0.3412,0.3412,0.3412,0.3412,0.3412,0.3412,0.3416,0.3415,0.3627,0.3416,0.3418,0.3423,0.3446,0.3414,0.3173,0.3407,0.3444,0.3294,0.3318,0.3159,0.2933,0.2244,0.2181,0.0,0.0,0.0,0.0,0.0,0.0,0.0,0.0,0.0,0.0,0.0,0.2349,0.2497,0.0,0.0,0.2852,0.3126,0.3232,0.323,0.3111,0.3351,0.3411,0.3083,0.295,0.2985,0.2985,0.0853,0.0,0.0,0.0,0.0,0.0,0.0,0.0,0.0,0.0,0.0,0.0,0.0,0.0,0.0,0.2124,0.2147,0.2173,0.2189,0.2191,0.2326,0.2405,0.2657,0.2937,0.3079,0.3296,0.3305,0.3116,0.3216,0.308,0.3054,0.307,0.308,0.3076,0.3103,0.3104,0.307,0.3082,0.3076,0.3044,0.3052,0.3046,0.2871,0.2346,0.2165,0.2136,0.2136,0.2154,0.2187,0.2247,0.2273,0.2353,0.2367,0.2706,0.3438,0.3221,0.3303,0.333,0.3362,0.3389,0.3412,0.3412,0.3412,0.3412,0.3412,0.3412,0.3412,0.3412,0.3412,0.3412,0.3412,0.3412,0.3418,0.3442,0.3431,0.3418,0.3442,0.3449,0.3444,0.3425,0.3431,0.3435,0.3416,0.3358,0.3306,0.3285,0.2777,0.2487,0.2354,0.2177,0.0,0.0,0.0,0.0,0.0,0.0,0.23,0.0,0.0,0.0,0.0,0.0,0.0,0.0,0.0,0.2721,0.2851,0.3014,0.2927,0.2974,0.3065,0.2913,0.2932,0.1272,0.0639,0.0639,0.0213,0.0,0.0,0.0,0.0,0.0,0.0,0.0,0.0,0.0,0.0,0.0,0.0,0.0,0.0,0.2225,0.2225,0.2233,0.2263,0.2243,0.2221,0.234,0.2787,0.3079,0.3207,0.3252,0.3272,0.3272,0.3118,0.3133,0.3101,0.3112,0.3122,0.3123,0.3135,0.3137,0.3123,0.3122,0.3107,0.3077,0.3194,0.3207,0.3093,0.2519,0.2212,0.2136,0.2136,0.2144,0.2163,0.2303,0.2285,0.2256,0.2689,0.3032,0.331,0.3311,0.3381,0.337,0.34,0.3412,0.3412,0.3412,0.3412,0.3412,0.3412,0.3412,0.3412,0.3412,0.3412,0.3412,0.3412,0.3412,0.3415,0.343,0.3423,0.3419,0.3449,0.3445,0.3438,0.3454,0.3457,0.3457,0.3459,0.3435,0.3375,0.3251,0.31,0.2745,0.2389,0.0,0.0,0.0,0.0,0.0,0.0,0.0,0.0,0.0,0.0,0.0,0.0,0.0,0.0,0.0,0.2541,0.2653,0.2868,0.3006,0.2882,0.307,0.3287,0.3138,0.2845,0.084,0.0,0.0,0.0,0.0,0.0,0.0,0.0,0.0,0.0,0.0,0.0,0.0,0.0,0.0,0.0,0.0,0.0,0.2249,0.2237,0.2233,0.227,0.2356,0.2306,0.2447,0.2932,0.305,0.3141,0.3198,0.3228,0.3221,0.3206,0.3185,0.3155,0.3157,0.317,0.3187,0.3171,0.3172,0.3197,0.3168,0.3148,0.3135,0.3141,0.3189,0.3053,0.2531,0.2225,0.2255,0.2151,0.2191,0.2237,0.2233,0.232,0.2543,0.3204,0.3352,0.3388,0.3348,0.3401,0.3388,0.3412,0.3426,0.3431,0.3431,0.3431,0.3431,0.3431,0.3423,0.3412,0.3412,0.3412,0.3412,0.3412,0.3412,0.3412,0.3412,0.3412,0.3418,0.3441,0.3434,0.3434,0.3482,0.3475,0.3465,0.3495,0.3479,0.3408,0.3249,0.3417,0.333,0.2715,0.2563,0.0,0.0,0.0,0.0,0.0,0.0,0.0,0.245,0.0,0.0,0.0,0.0,0.0,0.259,0.2511,0.2602,0.2913,0.2994,0.2832,0.2624,0.2884,0.2737,0.2214,0.0628,0.0,0.0,0.0,0.0,0.0,0.0,0.0,0.0,0.0,0.0,0.0,0.0,0.0,0.0,0.0,0.0,0.0,0.224,0.2255,0.2248,0.223,0.2426,0.2655,0.3113,0.3191,0.3273,0.3172,0.321,0.322,0.3195,0.3213,0.3215,0.3186,0.3208,0.3212,0.319,0.3209,0.3223,0.3225,0.32,0.3208,0.3258,0.3183,0.3074,0.3116,0.2597,0.2233,0.2288,0.2299,0.2304,0.2287,0.2304,0.2581,0.3326,0.3336,0.3454,0.3423,0.3415,0.3426,0.3449,0.3452,0.3469,0.3495,0.3495,0.3495,0.3495,0.3495,0.3457,0.3412,0.3412,0.3412,0.3412,0.3412,0.3412,0.3412,0.3412,0.3412,0.3412,0.3415,0.3434,0.3454,0.346,0.346,0.3682,0.3495,0.3479,0.346,0.3467,0.3501,0.3495,0.3714,0.3273,0.2716,0.0,0.0,0.2793,0.2577,0.0,0.0,0.0,0.2348,0.0,0.0,0.2289,0.0,0.0,0.2491,0.2542,0.2792,0.2984,0.2549,0.1561,0.0803,0.0416,0.0217,0.0,0.0,0.0,0.0,0.0,0.0,0.0,0.0,0.0,0.0,0.0,0.0,0.0,0.0,0.0,0.0,0.0,0.0,0.3024,0.286,0.2851,0.2861,0.2934,0.3009,0.3253,0.3349,0.322,0.3238,0.3235,0.3219,0.3191,0.3213,0.3225,0.3215,0.3224,0.3225,0.3215,0.3224,0.323,0.323,0.3236,0.3243,0.3249,0.3231,0.3145,0.3175,0.3023,0.2718,0.2286,0.1959,0.2367,0.3059,0.3006,0.3099,0.3366,0.3488,0.337,0.3429,0.3416,0.343,0.3457,0.3457,0.3476,0.3502,0.3502,0.3502,0.3502,0.3502,0.3486,0.3467,0.3467,0.3467,0.3463,0.3444,0.344,0.3435,0.3416,0.3412,0.3412,0.3412,0.342,0.3435,0.3453,0.3457,0.3465,0.3495,0.3493,0.3489,0.3499,0.3438,0.3534,0.3546,0.3231,0.2882,0.2442,0.0,0.0,0.2622,0.0,0.2795,0.0,0.0,0.0,0.0,0.0,0.0,0.0,0.0,0.2501,0.2727,0.2736,0.2655,0.266,0.0812,0.0,0.0,0.0,0.0,0.0,0.0,0.0,0.0,0.0,0.0,0.0,0.0,0.0,0.0,0.0,0.0,0.0,0.0,0.0,0.0,0.7346,0.5103,0.3202,0.3221,0.3308,0.3379,0.3392,0.3275,0.3324,0.3292,0.327,0.3242,0.3205,0.3219,0.323,0.323,0.323,0.323,0.323,0.323,0.3234,0.3243,0.3264,0.3269,0.3257,0.3279,0.3227,0.3292,0.3156,0.2889,0.2317,0.2262,0.2679,0.3624,0.3401,0.3459,0.3447,0.3596,0.3437,0.3425,0.3415,0.3435,0.3471,0.3471,0.3495,0.3527,0.3527,0.3527,0.3527,0.3527,0.3527,0.3524,0.3509,0.3502,0.3499,0.3476,0.3471,0.3464,0.3433,0.3425,0.3423,0.3414,0.3412,0.3418,0.344,0.3444,0.3453,0.3483,0.3495,0.3499,0.3709,0.3513,0.3465,0.3468,0.3021,0.271,0.2582,0.2763,0.0,0.2671,0.2772,0.2844,0.2784,0.2564,0.0,0.0,0.0,0.0,0.0,0.0,0.0,0.2384,0.2553,0.2646,0.3272,0.1003,0.0,0.0,0.0,0.0,0.0,0.0,0.0,0.0,0.0,0.0,0.0,0.0,0.0,0.0,0.0,0.0,0.0,0.0,0.0,0.0,1.6781,0.967,0.3351,0.3321,0.3343,0.3354,0.3324,0.3345,0.3355,0.3117,0.3112,0.3296,0.3236,0.323,0.323,0.323,0.323,0.323,0.323,0.323,0.3243,0.3273,0.3275,0.329,0.332,0.3321,0.332,0.311,0.3167,0.3032,0.2552,0.316,0.336,0.345,0.3453,0.3453,0.3667,0.3425,0.343,0.3454,0.3425,0.3448,0.3502,0.3502,0.3538,0.3589,0.3589,0.3589,0.3589,0.3589,0.3589,0.358,0.352,0.3502,0.3502,0.3502,0.3502,0.3495,0.3465,0.3456,0.3449,0.3419,0.3412,0.3412,0.3412,0.3412,0.342,0.3452,0.3482,0.3493,0.3679,0.3701,0.3659,0.3463,0.2806,0.2697,0.2953,0.2809,0.2872,0.2731,0.2851,0.2936,0.2878,0.2733,0.0,0.0,0.0,0.0,0.0,0.0,0.0,0.1563,0.2194,0.261,0.2671,0.0955,0.0,0.0,0.0,0.0,0.0,0.0,0.0,0.0,0.0,0.0,0.0,0.0,0.0,0.0,0.0,0.0,0.0,0.0,0.0,0.0,0.8994,0.5479,0.3371,0.3373,0.3381,0.3386,0.3384,0.3373,0.3363,0.3354,0.3352,0.3344,0.3325,0.3305,0.3292,0.3292,0.3292,0.3292,0.3292,0.3292,0.3296,0.3099,0.3119,0.3341,0.3352,0.3352,0.3352,0.3352,0.3402,0.3314,0.3104,0.3225,0.3335,0.3427,0.3448,0.3445,0.3427,0.3438,0.3437,0.3427,0.3438,0.3478,0.3313,0.3555,0.36,0.3649,0.3628,0.3621,0.3618,0.3596,0.3589,0.3587,0.3569,0.3562,0.3558,0.3538,0.3531,0.3524,0.3495,0.3472,0.3454,0.3445,0.3427,0.3412,0.3412,0.3412,0.342,0.345,0.3465,0.3475,0.3486,0.3479,0.3426,0.3489,0.3324,0.3273,0.3366,0.3104,0.274,0.2902,0.2908,0.2956,0.302,0.289,0.2799,0.0,0.0,0.0,0.0,0.0,0.0,0.2078,0.133,0.0784,0.0831,0.0202,0.0,0.0,0.0,0.0,0.0,0.0,0.0,0.0,0.0,0.0,0.0,0.0,0.0,0.0,0.0,0.0,0.0,0.0,0.0,0.0,0.967,0.846,0.8481,0.8532,0.8755,0.7696,0.3863,0.3419,0.3408,0.3412,0.3412,0.3414,0.3418,0.34,0.338,0.3356,0.3355,0.335,0.3339,0.3339,0.3333,0.3321,0.335,0.3366,0.3366,0.3378,0.3384,0.3384,0.3495,0.3457,0.3479,0.3369,0.3412,0.3412,0.3431,0.343,0.3414,0.3431,0.3435,0.343,0.3449,0.3493,0.3547,0.3565,0.3604,0.3645,0.3625,0.3618,0.3614,0.3596,0.3589,0.3589,0.3589,0.3589,0.3587,0.3565,0.3562,0.3555,0.3527,0.3506,0.3484,0.3463,0.3442,0.3426,0.3414,0.3412,0.3416,0.3437,0.3449,0.346,0.3467,0.3471,0.3445,0.3567,0.3621,0.3594,0.3563,0.3239,0.3033,0.3021,0.3018,0.3059,0.3125,0.3047,0.2987,0.2976,0.0,0.0,0.0,0.0,0.1315,0.1352,0.0589,0.0,0.0,0.0,0.0,0.0,0.0,0.0,0.0,0.0,0.0,0.0,0.0,0.0,0.0,0.0,0.0,0.0,0.0,0.0,0.0,0.0,0.0,0.0,1.706,1.7093,1.6949,1.7083,1.7545,1.4944,0.5859,0.4347,0.4353,0.4364,0.3932,0.3502,0.3509,0.3513,0.3491,0.3434,0.3423,0.3407,0.3378,0.3375,0.3362,0.3332,0.3358,0.3371,0.337,0.3397,0.3412,0.3412,0.3412,0.3412,0.3412,0.3412,0.3412,0.3412,0.3412,0.3412,0.3412,0.3414,0.3431,0.3457,0.3461,0.3495,0.3549,0.3773,0.3792,0.3822,0.3818,0.3818,0.3594,0.3589,0.3589,0.3589,0.3589,0.3589,0.3589,0.3589,0.3589,0.3583,0.3555,0.3544,0.3531,0.3474,0.3457,0.3446,0.3418,0.3412,0.3412,0.3415,0.3438,0.3449,0.3423,0.3463,0.349,0.3464,0.3459,0.3628,0.3502,0.3585,0.3562,0.31,0.3165,0.3224,0.3209,0.3206,0.319,0.3152,0.3084,0.3084,0.2975,0.1948,0.0959,0.0,0.0,0.0,0.0,0.0,0.0,0.0,0.0,0.0,0.0,0.0,0.0,0.0,0.0,0.0,0.0,0.0,0.0,0.0,0.0,0.0,0.0,0.0,0.0,0.0,1.7103,1.6902,1.7143,1.7648,1.7878,1.7021,1.4862,1.4736,1.481,1.4409,0.8027,0.3589,0.3594,0.3621,0.3628,0.3607,0.3531,0.3478,0.3471,0.3471,0.3457,0.3426,0.3431,0.3425,0.3401,0.3408,0.3412,0.3412,0.3412,0.3412,0.3412,0.3412,0.3412,0.3412,0.3412,0.3412,0.3414,0.3437,0.345,0.3461,0.3506,0.3544,0.3583,0.3604,0.3632,0.3656,0.3632,0.3625,0.3621,0.3596,0.3589,0.3589,0.3589,0.3589,0.3589,0.3589,0.3589,0.3589,0.358,0.3562,0.3538,0.3499,0.3457,0.342,0.3414,0.3412,0.3418,0.3442,0.3452,0.3463,0.3478,0.3474,0.3474,0.3489,0.3472,0.3423,0.3531,0.3523,0.351,0.3466,0.3242,0.3273,0.3382,0.3393,0.3343,0.3219,0.334,0.2906,0.1741,0.2666,0.2311,0.0,0.0,0.0,0.0,0.0,0.0,0.0,0.0,0.0,0.0,0.0,0.0,0.0,0.0,0.0,0.0,0.0,0.0,0.0,0.0,0.0,0.0,0.0,0.0,0.0,1.7419,1.7419,1.7453,1.7765,1.8003,1.7813,1.7895,1.8053,1.8163,1.8218,0.97,0.3632,0.3636,0.7781,0.8724,0.4125,0.3604,0.3558,0.3544,0.3531,0.3509,0.3479,0.3478,0.3469,0.3453,0.3453,0.3446,0.3433,0.3419,0.3412,0.3412,0.3412,0.3412,0.3412,0.3426,0.3433,0.3434,0.3465,0.3486,0.3499,0.3531,0.3562,0.3594,0.3607,0.3625,0.3636,0.3621,0.3614,0.3611,0.3596,0.3589,0.3589,0.3589,0.3589,0.3589,0.3589,0.3589,0.3589,0.3589,0.358,0.3555,0.3513,0.3457,0.3412,0.3412,0.3412,0.3416,0.3433,0.3448,0.3463,0.3479,0.3479,0.3483,0.3499,0.343,0.3362,0.3326,0.3295,0.3492,0.3525,0.3329,0.3366,0.3449,0.3445,0.3401,0.332,0.337,0.2936,0.1621,0.2912,0.2727,0.0,0.0,0.0,0.0,0.0,0.0,0.0,0.0,0.0,0.0,0.0,0.0,0.0,0.0,0.0,0.0,0.0,0.0,0.0,0.0,0.0,0.0,0.0,0.0,0.0,1.7933,1.7933,1.7975,1.7895,1.7909,1.7944,1.7846,1.8023,1.8376,1.8663,1.1388,0.6175,0.5957,1.3593,1.547,0.6901,0.4575,0.3636,0.3604,0.358,0.3551,0.3524,0.3524,0.352,0.3516,0.3509,0.3495,0.3464,0.3438,0.3426,0.3426,0.3426,0.3426,0.3426,0.3453,0.3464,0.3465,0.3495,0.3524,0.3544,0.3549,0.3565,0.3589,0.3589,0.3589,0.3589,0.3589,0.3589,0.3589,0.3589,0.3589,0.3589,0.3589,0.3589,0.3589,0.3589,0.3589,0.3589,0.3589,0.3583,0.3562,0.3509,0.3453,0.3412,0.3412,0.3412,0.3414,0.3418,0.344,0.3675,0.3463,0.3486,0.3495,0.3478,0.3367,0.3489,0.3287,0.3284,0.329,0.3518,0.3399,0.3457,0.3457,0.3434,0.3419,0.3419,0.3533,0.29,0.1712,0.27,0.2236,0.0,0.0,0.0,0.0,0.0,0.0,0.0,0.0,0.0,0.0,0.0,0.0,0.0,0.0,0.0,0.0,0.0,0.0,0.0,0.0,0.0,0.0,0.0,0.0,0.0,1.7792,1.7792,1.7812,1.7826,1.7826,1.7846,1.786,1.8111,1.8301,1.8589,1.7403,1.6377,1.6395,1.7859,1.8111,1.6687,0.8599,0.3692,0.3667,0.3663,0.3645,0.3614,0.3614,0.3603,0.3576,0.3551,0.3524,0.3495,0.349,0.3489,0.3489,0.3489,0.3489,0.3489,0.3491,0.3495,0.3499,0.3527,0.354,0.3549,0.3573,0.3587,0.3589,0.3589,0.3589,0.3589,0.3589,0.3589,0.3589,0.3589,0.3589,0.3589,0.3589,0.3589,0.3589,0.3589,0.3589,0.3589,0.3589,0.3555,0.3506,0.3472,0.3438,0.3412,0.3412,0.3412,0.3419,0.3445,0.3454,0.3465,0.349,0.3499,0.3686,0.3576,0.3537,0.3476,0.2952,0.3034,0.3099,0.3491,0.3386,0.3457,0.3457,0.3453,0.345,0.345,0.3433,0.2964,0.1862,0.1048,0.0417,0.0,0.0,0.0,0.0,0.0,0.0,0.0,0.0,0.0,0.0,0.0,0.0,0.0,0.0,0.0,0.0,0.0,0.0,0.0,0.0,0.0,0.0,0.0,0.0,0.0,1.786,1.786,1.786,1.786,1.786,1.786,1.786,1.8124,1.8321,1.8355,1.8606,1.8796,1.8796,1.8816,1.885,1.8898,0.9589,0.373,0.373,0.3699,0.3674,0.366,0.366,0.3652,0.3639,0.3607,0.358,0.3549,0.3534,0.3516,0.3502,0.3502,0.3502,0.3502,0.352,0.3524,0.3527,0.3555,0.3569,0.3569,0.3583,0.3589,0.3589,0.3589,0.3589,0.3589,0.3589,0.3589,0.3589,0.3589,0.3589,0.3589,0.3589,0.3589,0.3589,0.3589,0.3589,0.3587,0.3569,0.3534,0.3495,0.3465,0.3434,0.3412,0.3412,0.3412,0.3415,0.343,0.3433,0.3442,0.3472,0.3478,0.3449,0.357,0.3318,0.3052,0.2942,0.3007,0.3266,0.3456,0.3359,0.3433,0.3433,0.3433,0.3433,0.3433,0.3433,0.3195,0.2724,0.1059,0.0,0.0,0.0,0.0,0.0,0.0,0.0,0.0,0.0,0.0,0.0,0.0,0.0,0.0,0.0,0.0,0.0,0.0,0.0,0.0,0.0,0.0,0.0,0.0,0.0,0.0,1.786,1.786,1.786,1.786,1.7901,1.7914,1.7914,1.8179,1.8355,1.8321,1.8552,1.8694,1.866,1.866,1.8694,1.8782,0.9561,0.3733,0.3757,0.3708,0.3688,0.3701,0.3701,0.3699,0.3692,0.3667,0.3639,0.36,0.3576,0.3551,0.3524,0.3524,0.3524,0.3524,0.3544,0.3555,0.3555,0.358,0.3589,0.3589,0.3589,0.3589,0.3589,0.3589,0.3589,0.3589,0.3589,0.3589,0.3589,0.3589,0.3589,0.3589,0.3589,0.3589,0.3589,0.3589,0.3587,0.3573,0.3544,0.3513,0.3484,0.3454,0.3429,0.3412,0.3412,0.3412,0.3412,0.3412,0.3412,0.3419,0.3442,0.3452,0.3433,0.3567,0.3104,0.2852,0.2986,0.3212,0.3452,0.3475,0.3355,0.3412,0.3412,0.3412,0.3412,0.3412,0.3412,0.3412,0.3412,0.1279,0.0,0.0,0.0,0.0,0.0,0.0,0.0,0.0,0.0,0.0,0.0,0.0,0.0,0.0,0.0,0.0,0.0,0.0,0.0,0.0,0.0,0.0,0.0,0.0,0.0,0.0,1.786,1.786,1.786,1.786,1.7989,1.8077,1.8077,1.8321,1.8464,1.8335,1.8464,1.8498,1.8603,1.8589,1.861,1.8893,0.9622,0.3906,0.3716,0.3694,0.3705,0.3761,0.3764,0.375,0.3723,0.3719,0.3692,0.3859,0.3628,0.3614,0.3583,0.3583,0.3583,0.3583,0.3587,0.3587,0.3587,0.3589,0.3589,0.3589,0.3589,0.3589,0.3589,0.3589,0.3589,0.3589,0.3589,0.3589,0.3589,0.3589,0.3589,0.3589,0.3589,0.3589,0.3589,0.3589,0.3569,0.354,0.3513,0.3483,0.3453,0.3423,0.3414,0.3412,0.3412,0.3412,0.3412,0.3412,0.3412,0.3412,0.3415,0.3438,0.3419,0.3508,0.3096,0.3099,0.327,0.3473,0.3303,0.3388,0.3407,0.3412,0.3412,0.3412,0.3412,0.3412,0.3412,0.3412,0.3412,0.1279,0.0,0.0,0.0,0.0,0.0,0.0,0.0,0.0,0.0,0.0,0.0,0.0,0.0,0.0,0.0,0.0,0.0,0.0,0.0,0.0,0.0,0.0,0.0,0.0,0.0,0.0,1.8376,1.8369,1.8145,1.8145,1.8199,1.8233,1.8233,1.8409,1.8511,1.8464,1.8498,1.8511,1.8464,1.8375,1.8342,1.8396,1.4906,1.0311,0.4133,0.3674,0.3915,0.3716,0.3716,0.3708,0.3699,0.3699,0.3906,0.3863,0.3636,0.3621,0.3589,0.3589,0.3589,0.3589,0.3589,0.3589,0.3589,0.3611,0.3618,0.3618,0.3618,0.3618,0.3614,0.3596,0.3589,0.3589,0.3589,0.3589,0.3589,0.3589,0.3589,0.3589,0.3589,0.3576,0.3558,0.354,0.3513,0.3487,0.3478,0.3465,0.345,0.3419,0.3412,0.3412,0.3412,0.3412,0.3412,0.3412,0.3412,0.3412,0.3412,0.3422,0.3396,0.3498,0.3333,0.3354,0.3285,0.3325,0.3373,0.3408,0.3412,0.3412,0.3412,0.3412,0.3412,0.3412,0.3412,0.2772,0.1279,0.0426,0.0,0.0,0.0,0.0,0.0,0.0,0.0,0.0,0.0,0.0,0.0,0.0,0.0,0.0,0.0,0.0,0.0,0.0,0.0,0.0,0.0,0.0,0.0,0.0,0.0,0.0,1.8555,1.8555,1.8321,1.8321,1.8355,1.8389,1.8389,1.8511,1.8565,1.8477,1.8464,1.8423,1.8335,1.8233,1.8199,1.8213,1.8233,1.5265,0.8422,0.5467,0.366,0.3681,0.3681,0.3681,0.3681,0.3692,0.3674,0.3636,0.3652,0.3643,0.3604,0.3604,0.3611,0.3618,0.3607,0.3611,0.3621,0.3643,0.3645,0.3636,0.3636,0.3628,0.3618,0.3596,0.3589,0.3589,0.3589,0.3589,0.3589,0.3589,0.3589,0.3589,0.3589,0.3576,0.3551,0.3524,0.3502,0.348,0.3461,0.3457,0.345,0.3419,0.3412,0.3412,0.3412,0.3412,0.3412,0.3412,0.3412,0.3412,0.3412,0.3412,0.3392,0.3329,0.3371,0.339,0.3328,0.3373,0.3412,0.3412,0.3412,0.3412,0.3412,0.3412,0.3198,0.2345,0.2345,0.1705,0.0,0.0,0.0,0.0,0.0,0.0,0.0,0.0,0.0,0.0,0.0,0.0,0.0,0.0,0.0,0.0,0.0,0.0,0.0,0.0,0.0,0.0,0.0,0.0,0.0,0.0,0.0,0.0,1.8555,1.8321,1.8321,1.8321,1.8443,1.8531,1.8531,1.8654,1.8654,1.8355,1.8321,1.8199,1.7901,1.786,1.786,1.786,1.7894,1.8002,1.7914,0.9029,0.3632,0.3677,0.3681,0.3681,0.3681,0.3708,0.3694,0.3636,0.3694,0.3694,0.3636,0.3636,0.3652,0.3681,0.3649,0.3652,0.3681,0.3681,0.3663,0.3863,0.3863,0.3618,0.3589,0.3589,0.3589,0.3589,0.3589,0.3589,0.3589,0.3589,0.3589,0.3589,0.3589,0.3589,0.3359,0.3329,0.3323,0.331,0.3472,0.3457,0.3449,0.3419,0.3412,0.3412,0.3412,0.3412,0.3412,0.3412,0.3412,0.3412,0.3412,0.3412,0.3412,0.3412,0.3412,0.3412,0.3412,0.3412,0.3412,0.3412,0.3412,0.3412,0.3412,0.3412,0.2558,0.0213,0.0,0.0,0.0,0.0,0.0,0.0,0.0,0.0,0.0,0.0,0.0,0.0,0.0,0.0,0.0,0.0,0.0,0.0,0.0,0.0,0.0,0.0,0.0,0.0,0.0,0.0,0.0,0.0,0.0,0.0,1.864,1.864,1.864,1.864,1.8674,1.8694,1.8694,1.864,1.8565,1.8477,1.8287,1.8124,1.8036,1.7935,1.786,1.786,1.788,1.7968,1.7914,0.9019,0.6565,1.3335,0.7264,0.3611,0.3611,0.3645,0.3652,0.3636,0.3674,0.3684,0.3667,0.3667,0.3674,0.3681,0.367,0.3674,0.3681,0.3681,0.3674,0.3896,0.3643,0.3628,0.3618,0.3596,0.3589,0.3589,0.3589,0.3589,0.3589,0.3589,0.3589,0.3587,0.3565,0.3544,0.3524,0.3493,0.3468,0.3448,0.3644,0.3426,0.3423,0.3414,0.3412,0.3412,0.3412,0.3412,0.3412,0.3412,0.3412,0.3412,0.3412,0.3412,0.3412,0.3412,0.3412,0.3412,0.3412,0.3412,0.3412,0.3412,0.3412,0.3412,0.3412,0.3412,0.2558,0.0213,0.0,0.0,0.0,0.0,0.0,0.0,0.0,0.0,0.0,0.0,0.0,0.0,0.0,0.0,0.0,0.0,0.0,0.0,0.0,0.0,0.0,0.0,0.0,0.0,0.0,0.0,0.0,0.0,0.0,0.0,1.8694,1.8674,1.8654,1.8599,1.8586,1.8586,1.8586,1.8511,1.8423,1.8375,1.8199,1.8077,1.8002,1.7914,1.786,1.786,1.7914,1.7793,1.7914,1.2672,1.2273,1.794,1.2734,0.7683,0.3614,0.3652,0.3667,0.3882,0.3694,0.3712,0.3699,0.3699,0.3705,0.3715,0.3692,0.3688,0.3699,0.3915,0.3674,0.366,0.3643,0.3628,0.3614,0.3596,0.3583,0.3573,0.3587,0.3583,0.3573,0.3587,0.3583,0.3569,0.3551,0.3524,0.3499,0.348,0.3463,0.3445,0.3433,0.343,0.3427,0.3415,0.3412,0.3412,0.3412,0.3412,0.3412,0.3412,0.3412,0.3412,0.3412,0.3412,0.3412,0.3412,0.3412,0.3412,0.3412,0.3412,0.3412,0.3412,0.3412,0.3412,0.3412,0.2558,0.1492,0.0,0.0,0.0,0.0,0.0,0.0,0.0,0.0,0.0,0.0,0.0,0.0,0.0,0.0,0.0,0.0,0.0,0.0,0.0,0.0,0.0,0.0,0.0,0.0,0.0,0.0,0.0,0.0,0.0,0.0,0.0,1.8552,1.8511,1.8477,1.8335,1.8321,1.8321,1.8321,1.8301,1.8247,1.8111,1.8077,1.8023,1.788,1.786,1.786,1.786,1.7982,1.788,1.7947,1.85,1.8809,1.8858,1.8893,1.4031,0.3892,0.3705,0.3712,0.3915,0.3744,0.3757,0.373,0.3726,0.3739,0.3764,0.3705,0.3694,0.3719,0.3692,0.366,0.3636,0.3628,0.3611,0.3587,0.3587,0.3569,0.3549,0.358,0.3572,0.3551,0.3576,0.3569,0.3544,0.354,0.352,0.3499,0.3499,0.3495,0.3489,0.346,0.3453,0.3446,0.3419,0.3412,0.3412,0.3412,0.3412,0.3412,0.3412,0.3412,0.3412,0.3412,0.3412,0.3412,0.3412,0.3412,0.3412,0.3412,0.3412,0.3412,0.3412,0.3412,0.3412,0.3198,0.1279,0.0,0.0,0.0,0.0,0.0,0.0,0.0,0.0,0.0,0.0,0.0,0.0,0.0,0.0,0.0,0.0,0.0,0.0,0.0,0.0,0.0,0.0,0.0,0.0,0.0,0.0,0.0,0.0,0.0,0.0,0.0,0.0,1.8389,1.8375,1.8355,1.8321,1.8321,1.8321,1.8321,1.8213,1.8124,1.8091,1.7989,1.7901,1.786,1.786,1.786,1.786,1.7894,1.8023,1.85,1.8767,1.8844,1.8733,1.8788,1.4057,0.3877,0.3699,0.3723,0.3716,0.3754,0.3768,0.3761,0.3737,0.373,0.3733,0.3699,0.3684,0.3688,0.366,0.3643,0.3632,0.3583,0.3562,0.3555,0.3555,0.3551,0.3549,0.358,0.3587,0.3576,0.3558,0.3551,0.354,0.352,0.3491,0.3467,0.3467,0.345,0.343,0.3423,0.3422,0.342,0.3414,0.3412,0.3412,0.3412,0.3412,0.3412,0.3412,0.3412,0.3412,0.3412,0.3412,0.3412,0.3412,0.3412,0.3412,0.3412,0.3412,0.3412,0.3412,0.3412,0.2772,0.0853,0.0213,0.0,0.0,0.0,0.0,0.0,0.0,0.0,0.0,0.0,0.0,0.0,0.0,0.0,0.0,0.0,0.0,0.0,0.0,0.0,0.0,0.0,0.0,0.0,0.0,0.0,0.0,0.0,0.0,0.0,0.0,0.0,0.0,1.8233,1.8213,1.8179,1.8111,1.8111,1.8111,1.8111,1.8036,1.7989,1.7989,1.7914,1.786,1.786,1.786,1.786,1.786,1.7935,1.8036,1.8424,1.852,1.8589,1.8658,1.8477,1.5881,1.0732,0.8287,0.6013,0.3699,0.3712,0.3723,0.3726,0.3712,0.3705,0.3701,0.3674,0.366,0.3656,0.3611,0.3594,0.3589,0.3558,0.3544,0.3544,0.3562,0.3558,0.3549,0.358,0.358,0.3565,0.3551,0.3527,0.3499,0.3486,0.346,0.3435,0.3435,0.3425,0.3412,0.3412,0.3412,0.3412,0.3412,0.3412,0.3412,0.3412,0.3412,0.3412,0.3412,0.3412,0.3412,0.3412,0.3412,0.3412,0.3412,0.3412,0.3412,0.3412,0.3412,0.3412,0.3412,0.2345,0.1279,0.0213,0.0,0.0,0.0,0.0,0.0,0.0,0.0,0.0,0.0,0.0,0.0,0.0,0.0,0.0,0.0,0.0,0.0,0.0,0.0,0.0,0.0,0.0,0.0,0.0,0.0,0.0,0.0,0.0,0.0,0.0,0.0,0.0,0.0,1.8077,1.8057,1.8002,1.788,1.786,1.786,1.786,1.786,1.786,1.786,1.786,1.786,1.786,1.786,1.786,1.786,1.7982,1.7827,1.786,1.8213,1.828,1.828,1.8088,1.7854,1.7841,1.3948,0.9611,0.5043,0.4125,0.3674,0.3681,0.3674,0.3674,0.367,0.3643,0.3625,0.3618,0.3565,0.3544,0.3544,0.354,0.354,0.3326,0.3349,0.3565,0.3549,0.358,0.3569,0.3544,0.3538,0.3502,0.3456,0.345,0.3431,0.3412,0.3412,0.3412,0.3412,0.3412,0.3412,0.3412,0.3412,0.3412,0.3412,0.3412,0.3412,0.3412,0.3412,0.3412,0.3412,0.3412,0.3412,0.3412,0.3412,0.3412,0.3412,0.3412,0.3412,0.3199,0.2772,0.1066,0.0,0.0,0.0,0.0,0.0,0.0,0.0,0.0,0.0,0.0,0.0,0.0,0.0,0.0,0.0,0.0,0.0,0.0,0.0,0.0,0.0,0.0,0.0,0.0,0.0,0.0,0.0,0.0,0.0,0.0,0.0,0.0,0.0,0.0,0.0,1.7914,1.7901,1.788,1.786,1.786,1.786,1.786,1.786,1.786,1.786,1.786,1.786,1.786,1.786,1.786,1.786,1.788,1.7948,1.786,1.788,1.7893,1.7893,1.7893,1.7847,1.7935,1.7262,1.4466,0.988,0.5743,0.3681,0.3681,0.3652,0.3643,0.3639,0.3611,0.3583,0.3555,0.3549,0.3544,0.3319,0.3516,0.3524,0.3544,0.3549,0.3549,0.3549,0.358,0.3569,0.354,0.3516,0.3486,0.3453,0.3426,0.3415,0.3412,0.3412,0.3412,0.3412,0.3412,0.3412,0.3412,0.3412,0.3412,0.3412,0.3412,0.3412,0.3412,0.3412,0.3412,0.3412,0.3412,0.3412,0.3412,0.3412,0.3412,0.3412,0.3412,0.3412,0.2772,0.0639,0.0213,0.0,0.0,0.0,0.0,0.0,0.0,0.0,0.0,0.0,0.0,0.0,0.0,0.0,0.0,0.0,0.0,0.0,0.0,0.0,0.0,0.0,0.0,0.0,0.0,0.0,0.0,0.0,0.0,0.0,0.0,0.0,0.0,0.0,0.0,0.0,1.788,1.786,1.786,1.786,1.786,1.786,1.786,1.786,1.786,1.786,1.786,1.786,1.786,1.786,1.786,1.786,1.786,1.7894,1.7948,1.7968,1.7968,1.7968,1.7968,1.7935,1.786,1.6514,1.4803,1.2672,0.655,0.3621,0.3628,0.3618,0.36,0.3583,0.3569,0.3549,0.352,0.3502,0.3506,0.33,0.3506,0.352,0.3549,0.3562,0.3569,0.3569,0.3565,0.3544,0.3517,0.3487,0.3457,0.343,0.3416,0.3412,0.3412,0.3412,0.3412,0.3412,0.3412,0.3412,0.3412,0.3412,0.3412,0.3412,0.3412,0.3412,0.3412,0.3412,0.3412,0.3412,0.3412,0.3412,0.3412,0.3412,0.3412,0.2985,0.1705,0.1492,0.1066,0.0213,0.0,0.0,0.0,0.0,0.0,0.0,0.0,0.0,0.0,0.0,0.0,0.0,0.0,0.0,0.0,0.0,0.0,0.0,0.0,0.0,0.0,0.0,0.0,0.0,0.0,0.0,0.0,0.0,0.0,0.0,0.0,0.0,0.0,0.0,0.0,0.0]}]]